<?xml version="1.0" encoding="UTF-8" standalone="no" ?>
<gpx xmlns="http://www.topografix.com/GPX/1/1" xmlns:xsi="http://www.w3.org/2001/XMLSchema-instance" xsi:schemaLocation="http://www.topografix.com/GPX/1/1 http://www.topografix.com/GPX/1/1/gpx.xsd" version="1.1" creator="VisuGPX - https://www.visugpx.com">
  <metadata>
    <name>Mandailles/Lafon</name>
    <desc><![CDATA[GR 400 direction Col du Pertus. Monter jusque la D217, un banc secourable près d\'un panneau du parc du volcan, puis poursuivre un moment sur la D217, le Gr part à gauche, puis à droite 500m plus loin pour rejoindre le Col. Traverser la rte, et poursuivre vers le Puy de la Poche, puis Le Clou et le gîte de Trielle, la grotte des Ermites, la chapelle N D de Consolation, pour arriver à Thiézac. Il faut ensuite remonter vers Lagoutte, passer sous la voie ferrée, et entrer dans le chaos de Castelinet fin de parcours superbe, mais éprouvant avant d\'arriver au gîte de Lafon.]]></desc>
  </metadata>
  <trk>
    <name><![CDATA[Mandailles/Lafon 08-JUIN-15 04:36:03 PM]]></name>
    <trkseg>
      <trkpt lat="45.06905" lon="2.6575">
        <ele>935.02</ele>
        <time>2015-06-08T06:53:53Z</time>
      </trkpt>
      <trkpt lat="45.06906" lon="2.65751">
        <ele>934.54</ele>
        <time>2015-06-08T06:53:56Z</time>
      </trkpt>
      <trkpt lat="45.06907" lon="2.65754">
        <ele>935.02</ele>
        <time>2015-06-08T06:54:13Z</time>
      </trkpt>
      <trkpt lat="45.06903" lon="2.65755">
        <ele>930.21</ele>
        <time>2015-06-08T06:54:34Z</time>
      </trkpt>
      <trkpt lat="45.06908" lon="2.65759">
        <ele>933.1</ele>
        <time>2015-06-08T06:54:50Z</time>
      </trkpt>
      <trkpt lat="45.0691" lon="2.65764">
        <ele>934.54</ele>
        <time>2015-06-08T06:54:53Z</time>
      </trkpt>
      <trkpt lat="45.06914" lon="2.65766">
        <ele>935.02</ele>
        <time>2015-06-08T06:54:56Z</time>
      </trkpt>
      <trkpt lat="45.06923" lon="2.65779">
        <ele>934.06</ele>
        <time>2015-06-08T06:55:08Z</time>
      </trkpt>
      <trkpt lat="45.06926" lon="2.65798">
        <ele>935.02</ele>
        <time>2015-06-08T06:55:21Z</time>
      </trkpt>
      <trkpt lat="45.06928" lon="2.65802">
        <ele>936.46</ele>
        <time>2015-06-08T06:55:24Z</time>
      </trkpt>
      <trkpt lat="45.06929" lon="2.65807">
        <ele>936.94</ele>
        <time>2015-06-08T06:55:27Z</time>
      </trkpt>
      <trkpt lat="45.0693" lon="2.65812">
        <ele>936.94</ele>
        <time>2015-06-08T06:55:31Z</time>
      </trkpt>
      <trkpt lat="45.06932" lon="2.65814">
        <ele>936.46</ele>
        <time>2015-06-08T06:55:33Z</time>
      </trkpt>
      <trkpt lat="45.06934" lon="2.65817">
        <ele>935.5</ele>
        <time>2015-06-08T06:55:36Z</time>
      </trkpt>
      <trkpt lat="45.06937" lon="2.65831">
        <ele>935.02</ele>
        <time>2015-06-08T06:55:47Z</time>
      </trkpt>
      <trkpt lat="45.06938" lon="2.65839">
        <ele>935.98</ele>
        <time>2015-06-08T06:55:53Z</time>
      </trkpt>
      <trkpt lat="45.06942" lon="2.65846">
        <ele>935.98</ele>
        <time>2015-06-08T06:55:58Z</time>
      </trkpt>
      <trkpt lat="45.06947" lon="2.65858">
        <ele>932.62</ele>
        <time>2015-06-08T06:56:09Z</time>
      </trkpt>
      <trkpt lat="45.06948" lon="2.65862">
        <ele>932.14</ele>
        <time>2015-06-08T06:56:13Z</time>
      </trkpt>
      <trkpt lat="45.06955" lon="2.6588">
        <ele>931.17</ele>
        <time>2015-06-08T06:56:26Z</time>
      </trkpt>
      <trkpt lat="45.06961" lon="2.65897">
        <ele>929.25</ele>
        <time>2015-06-08T06:56:37Z</time>
      </trkpt>
      <trkpt lat="45.06963" lon="2.65914">
        <ele>929.25</ele>
        <time>2015-06-08T06:56:49Z</time>
      </trkpt>
      <trkpt lat="45.06963" lon="2.65918">
        <ele>929.73</ele>
        <time>2015-06-08T06:56:51Z</time>
      </trkpt>
      <trkpt lat="45.06966" lon="2.65933">
        <ele>933.58</ele>
        <time>2015-06-08T06:57:01Z</time>
      </trkpt>
      <trkpt lat="45.06967" lon="2.65942">
        <ele>934.54</ele>
        <time>2015-06-08T06:57:06Z</time>
      </trkpt>
      <trkpt lat="45.06968" lon="2.65959">
        <ele>937.42</ele>
        <time>2015-06-08T06:57:20Z</time>
      </trkpt>
      <trkpt lat="45.06969" lon="2.65961">
        <ele>937.9</ele>
        <time>2015-06-08T06:57:21Z</time>
      </trkpt>
      <trkpt lat="45.06971" lon="2.65964">
        <ele>938.38</ele>
        <time>2015-06-08T06:57:23Z</time>
      </trkpt>
      <trkpt lat="45.06984" lon="2.65986">
        <ele>940.31</ele>
        <time>2015-06-08T06:57:37Z</time>
      </trkpt>
      <trkpt lat="45.06995" lon="2.66003">
        <ele>941.75</ele>
        <time>2015-06-08T06:57:49Z</time>
      </trkpt>
      <trkpt lat="45.06996" lon="2.66005">
        <ele>941.75</ele>
        <time>2015-06-08T06:57:51Z</time>
      </trkpt>
      <trkpt lat="45.07" lon="2.66018">
        <ele>941.75</ele>
        <time>2015-06-08T06:58:00Z</time>
      </trkpt>
      <trkpt lat="45.07005" lon="2.6604">
        <ele>940.31</ele>
        <time>2015-06-08T06:58:13Z</time>
      </trkpt>
      <trkpt lat="45.07005" lon="2.66045">
        <ele>940.79</ele>
        <time>2015-06-08T06:58:16Z</time>
      </trkpt>
      <trkpt lat="45.07006" lon="2.66061">
        <ele>940.31</ele>
        <time>2015-06-08T06:58:26Z</time>
      </trkpt>
      <trkpt lat="45.07008" lon="2.66068">
        <ele>939.83</ele>
        <time>2015-06-08T06:58:31Z</time>
      </trkpt>
      <trkpt lat="45.07012" lon="2.6608">
        <ele>937.42</ele>
        <time>2015-06-08T06:58:39Z</time>
      </trkpt>
      <trkpt lat="45.07012" lon="2.66083">
        <ele>937.42</ele>
        <time>2015-06-08T06:58:42Z</time>
      </trkpt>
      <trkpt lat="45.07015" lon="2.66091">
        <ele>938.86</ele>
        <time>2015-06-08T06:58:49Z</time>
      </trkpt>
      <trkpt lat="45.07022" lon="2.66096">
        <ele>940.79</ele>
        <time>2015-06-08T06:58:54Z</time>
      </trkpt>
      <trkpt lat="45.07028" lon="2.66099">
        <ele>940.79</ele>
        <time>2015-06-08T06:58:58Z</time>
      </trkpt>
      <trkpt lat="45.07036" lon="2.66108">
        <ele>939.35</ele>
        <time>2015-06-08T06:59:09Z</time>
      </trkpt>
      <trkpt lat="45.07041" lon="2.66116">
        <ele>940.79</ele>
        <time>2015-06-08T06:59:18Z</time>
      </trkpt>
      <trkpt lat="45.07033" lon="2.66134">
        <ele>940.79</ele>
        <time>2015-06-08T06:59:31Z</time>
      </trkpt>
      <trkpt lat="45.0703" lon="2.66142">
        <ele>940.31</ele>
        <time>2015-06-08T06:59:39Z</time>
      </trkpt>
      <trkpt lat="45.0702" lon="2.66152">
        <ele>937.42</ele>
        <time>2015-06-08T06:59:51Z</time>
      </trkpt>
      <trkpt lat="45.0701" lon="2.66163">
        <ele>937.42</ele>
        <time>2015-06-08T07:00:04Z</time>
      </trkpt>
      <trkpt lat="45.07009" lon="2.66173">
        <ele>937.9</ele>
        <time>2015-06-08T07:00:18Z</time>
      </trkpt>
      <trkpt lat="45.07009" lon="2.66174">
        <ele>938.86</ele>
        <time>2015-06-08T07:00:29Z</time>
      </trkpt>
      <trkpt lat="45.07011" lon="2.66178">
        <ele>939.83</ele>
        <time>2015-06-08T07:00:32Z</time>
      </trkpt>
      <trkpt lat="45.07013" lon="2.66184">
        <ele>941.27</ele>
        <time>2015-06-08T07:00:36Z</time>
      </trkpt>
      <trkpt lat="45.07019" lon="2.66201">
        <ele>945.11</ele>
        <time>2015-06-08T07:00:49Z</time>
      </trkpt>
      <trkpt lat="45.07023" lon="2.66215">
        <ele>947.04</ele>
        <time>2015-06-08T07:01:00Z</time>
      </trkpt>
      <trkpt lat="45.07023" lon="2.66216">
        <ele>947.04</ele>
        <time>2015-06-08T07:01:01Z</time>
      </trkpt>
      <trkpt lat="45.0702" lon="2.66228">
        <ele>949.92</ele>
        <time>2015-06-08T07:01:10Z</time>
      </trkpt>
      <trkpt lat="45.0702" lon="2.66242">
        <ele>952.32</ele>
        <time>2015-06-08T07:01:20Z</time>
      </trkpt>
      <trkpt lat="45.07026" lon="2.66258">
        <ele>954.25</ele>
        <time>2015-06-08T07:01:32Z</time>
      </trkpt>
      <trkpt lat="45.07035" lon="2.66272">
        <ele>956.17</ele>
        <time>2015-06-08T07:01:43Z</time>
      </trkpt>
      <trkpt lat="45.07041" lon="2.66277">
        <ele>955.69</ele>
        <time>2015-06-08T07:01:49Z</time>
      </trkpt>
      <trkpt lat="45.07049" lon="2.66283">
        <ele>956.17</ele>
        <time>2015-06-08T07:02:01Z</time>
      </trkpt>
      <trkpt lat="45.07048" lon="2.66285">
        <ele>956.65</ele>
        <time>2015-06-08T07:02:17Z</time>
      </trkpt>
      <trkpt lat="45.07053" lon="2.66288">
        <ele>956.17</ele>
        <time>2015-06-08T07:02:35Z</time>
      </trkpt>
      <trkpt lat="45.07061" lon="2.66299">
        <ele>956.65</ele>
        <time>2015-06-08T07:02:46Z</time>
      </trkpt>
      <trkpt lat="45.07066" lon="2.66309">
        <ele>958.57</ele>
        <time>2015-06-08T07:02:56Z</time>
      </trkpt>
      <trkpt lat="45.07069" lon="2.66318">
        <ele>961.94</ele>
        <time>2015-06-08T07:03:08Z</time>
      </trkpt>
      <trkpt lat="45.07072" lon="2.66329">
        <ele>960.98</ele>
        <time>2015-06-08T07:03:19Z</time>
      </trkpt>
      <trkpt lat="45.07073" lon="2.66333">
        <ele>960.98</ele>
        <time>2015-06-08T07:03:23Z</time>
      </trkpt>
      <trkpt lat="45.07073" lon="2.66335">
        <ele>961.94</ele>
        <time>2015-06-08T07:03:25Z</time>
      </trkpt>
      <trkpt lat="45.07074" lon="2.66345">
        <ele>961.46</ele>
        <time>2015-06-08T07:03:37Z</time>
      </trkpt>
      <trkpt lat="45.07074" lon="2.66355">
        <ele>960.98</ele>
        <time>2015-06-08T07:03:49Z</time>
      </trkpt>
      <trkpt lat="45.07077" lon="2.6636">
        <ele>962.9</ele>
        <time>2015-06-08T07:03:53Z</time>
      </trkpt>
      <trkpt lat="45.07083" lon="2.6637">
        <ele>966.74</ele>
        <time>2015-06-08T07:04:06Z</time>
      </trkpt>
      <trkpt lat="45.07088" lon="2.66376">
        <ele>968.18</ele>
        <time>2015-06-08T07:04:17Z</time>
      </trkpt>
      <trkpt lat="45.07091" lon="2.66378">
        <ele>968.18</ele>
        <time>2015-06-08T07:04:20Z</time>
      </trkpt>
      <trkpt lat="45.07092" lon="2.66385">
        <ele>968.18</ele>
        <time>2015-06-08T07:04:27Z</time>
      </trkpt>
      <trkpt lat="45.07092" lon="2.66388">
        <ele>968.18</ele>
        <time>2015-06-08T07:04:29Z</time>
      </trkpt>
      <trkpt lat="45.07098" lon="2.66394">
        <ele>969.15</ele>
        <time>2015-06-08T07:04:38Z</time>
      </trkpt>
      <trkpt lat="45.071" lon="2.66395">
        <ele>970.11</ele>
        <time>2015-06-08T07:04:47Z</time>
      </trkpt>
      <trkpt lat="45.0711" lon="2.66405">
        <ele>969.63</ele>
        <time>2015-06-08T07:05:00Z</time>
      </trkpt>
      <trkpt lat="45.07117" lon="2.66411">
        <ele>971.55</ele>
        <time>2015-06-08T07:05:12Z</time>
      </trkpt>
      <trkpt lat="45.07117" lon="2.66412">
        <ele>972.03</ele>
        <time>2015-06-08T07:05:16Z</time>
      </trkpt>
      <trkpt lat="45.07129" lon="2.66421">
        <ele>972.99</ele>
        <time>2015-06-08T07:05:27Z</time>
      </trkpt>
      <trkpt lat="45.07134" lon="2.66425">
        <ele>974.43</ele>
        <time>2015-06-08T07:05:33Z</time>
      </trkpt>
      <trkpt lat="45.07143" lon="2.6643">
        <ele>976.84</ele>
        <time>2015-06-08T07:05:45Z</time>
      </trkpt>
      <trkpt lat="45.07143" lon="2.6643">
        <ele>977.32</ele>
        <time>2015-06-08T07:05:46Z</time>
      </trkpt>
      <trkpt lat="45.07144" lon="2.66434">
        <ele>977.8</ele>
        <time>2015-06-08T07:05:51Z</time>
      </trkpt>
      <trkpt lat="45.07146" lon="2.66436">
        <ele>977.8</ele>
        <time>2015-06-08T07:05:54Z</time>
      </trkpt>
      <trkpt lat="45.07155" lon="2.66451">
        <ele>975.39</ele>
        <time>2015-06-08T07:06:08Z</time>
      </trkpt>
      <trkpt lat="45.07156" lon="2.6646">
        <ele>977.32</ele>
        <time>2015-06-08T07:06:19Z</time>
      </trkpt>
      <trkpt lat="45.07159" lon="2.6647">
        <ele>979.24</ele>
        <time>2015-06-08T07:06:31Z</time>
      </trkpt>
      <trkpt lat="45.07163" lon="2.66479">
        <ele>981.64</ele>
        <time>2015-06-08T07:06:43Z</time>
      </trkpt>
      <trkpt lat="45.07168" lon="2.6649">
        <ele>984.53</ele>
        <time>2015-06-08T07:06:56Z</time>
      </trkpt>
      <trkpt lat="45.0717" lon="2.66497">
        <ele>985.01</ele>
        <time>2015-06-08T07:07:03Z</time>
      </trkpt>
      <trkpt lat="45.07172" lon="2.66508">
        <ele>986.45</ele>
        <time>2015-06-08T07:07:15Z</time>
      </trkpt>
      <trkpt lat="45.07181" lon="2.66523">
        <ele>987.41</ele>
        <time>2015-06-08T07:07:29Z</time>
      </trkpt>
      <trkpt lat="45.07189" lon="2.66534">
        <ele>985.49</ele>
        <time>2015-06-08T07:07:42Z</time>
      </trkpt>
      <trkpt lat="45.07195" lon="2.66539">
        <ele>986.93</ele>
        <time>2015-06-08T07:07:49Z</time>
      </trkpt>
      <trkpt lat="45.07199" lon="2.66551">
        <ele>985.49</ele>
        <time>2015-06-08T07:08:01Z</time>
      </trkpt>
      <trkpt lat="45.07197" lon="2.66564">
        <ele>984.05</ele>
        <time>2015-06-08T07:08:13Z</time>
      </trkpt>
      <trkpt lat="45.07196" lon="2.6658">
        <ele>984.53</ele>
        <time>2015-06-08T07:08:26Z</time>
      </trkpt>
      <trkpt lat="45.07191" lon="2.66597">
        <ele>982.6</ele>
        <time>2015-06-08T07:08:40Z</time>
      </trkpt>
      <trkpt lat="45.07187" lon="2.66608">
        <ele>980.2</ele>
        <time>2015-06-08T07:08:53Z</time>
      </trkpt>
      <trkpt lat="45.07183" lon="2.66616">
        <ele>979.24</ele>
        <time>2015-06-08T07:09:05Z</time>
      </trkpt>
      <trkpt lat="45.0718" lon="2.66629">
        <ele>983.09</ele>
        <time>2015-06-08T07:09:20Z</time>
      </trkpt>
      <trkpt lat="45.07187" lon="2.66638">
        <ele>991.26</ele>
        <time>2015-06-08T07:09:30Z</time>
      </trkpt>
      <trkpt lat="45.07194" lon="2.66641">
        <ele>997.02</ele>
        <time>2015-06-08T07:09:45Z</time>
      </trkpt>
      <trkpt lat="45.07202" lon="2.66648">
        <ele>998.47</ele>
        <time>2015-06-08T07:09:57Z</time>
      </trkpt>
      <trkpt lat="45.07208" lon="2.66655">
        <ele>997.99</ele>
        <time>2015-06-08T07:10:09Z</time>
      </trkpt>
      <trkpt lat="45.07214" lon="2.66663">
        <ele>999.43</ele>
        <time>2015-06-08T07:10:23Z</time>
      </trkpt>
      <trkpt lat="45.07217" lon="2.66677">
        <ele>1004.72</ele>
        <time>2015-06-08T07:10:38Z</time>
      </trkpt>
      <trkpt lat="45.07218" lon="2.66685">
        <ele>1009.52</ele>
        <time>2015-06-08T07:10:52Z</time>
      </trkpt>
      <trkpt lat="45.07222" lon="2.66692">
        <ele>1011.44</ele>
        <time>2015-06-08T07:11:09Z</time>
      </trkpt>
      <trkpt lat="45.07222" lon="2.66698">
        <ele>1012.89</ele>
        <time>2015-06-08T07:11:22Z</time>
      </trkpt>
      <trkpt lat="45.07219" lon="2.66714">
        <ele>1016.73</ele>
        <time>2015-06-08T07:11:36Z</time>
      </trkpt>
      <trkpt lat="45.07218" lon="2.66725">
        <ele>1019.62</ele>
        <time>2015-06-08T07:11:51Z</time>
      </trkpt>
      <trkpt lat="45.07221" lon="2.66733">
        <ele>1019.13</ele>
        <time>2015-06-08T07:12:06Z</time>
      </trkpt>
      <trkpt lat="45.07225" lon="2.66741">
        <ele>1018.65</ele>
        <time>2015-06-08T07:12:18Z</time>
      </trkpt>
      <trkpt lat="45.07229" lon="2.66747">
        <ele>1020.58</ele>
        <time>2015-06-08T07:12:30Z</time>
      </trkpt>
      <trkpt lat="45.07235" lon="2.66756">
        <ele>1022.98</ele>
        <time>2015-06-08T07:12:43Z</time>
      </trkpt>
      <trkpt lat="45.07236" lon="2.66757">
        <ele>1022.98</ele>
        <time>2015-06-08T07:12:45Z</time>
      </trkpt>
      <trkpt lat="45.07242" lon="2.66762">
        <ele>1025.38</ele>
        <time>2015-06-08T07:12:58Z</time>
      </trkpt>
      <trkpt lat="45.07246" lon="2.66768">
        <ele>1027.31</ele>
        <time>2015-06-08T07:13:12Z</time>
      </trkpt>
      <trkpt lat="45.07249" lon="2.66773">
        <ele>1026.83</ele>
        <time>2015-06-08T07:13:23Z</time>
      </trkpt>
      <trkpt lat="45.07256" lon="2.66777">
        <ele>1027.79</ele>
        <time>2015-06-08T07:13:35Z</time>
      </trkpt>
      <trkpt lat="45.07261" lon="2.66786">
        <ele>1027.79</ele>
        <time>2015-06-08T07:13:46Z</time>
      </trkpt>
      <trkpt lat="45.07264" lon="2.66798">
        <ele>1024.42</ele>
        <time>2015-06-08T07:14:00Z</time>
      </trkpt>
      <trkpt lat="45.07266" lon="2.66809">
        <ele>1024.42</ele>
        <time>2015-06-08T07:14:14Z</time>
      </trkpt>
      <trkpt lat="45.07264" lon="2.66826">
        <ele>1023.46</ele>
        <time>2015-06-08T07:14:27Z</time>
      </trkpt>
      <trkpt lat="45.07266" lon="2.6684">
        <ele>1024.42</ele>
        <time>2015-06-08T07:14:40Z</time>
      </trkpt>
      <trkpt lat="45.07276" lon="2.66852">
        <ele>1027.79</ele>
        <time>2015-06-08T07:14:55Z</time>
      </trkpt>
      <trkpt lat="45.07279" lon="2.66857">
        <ele>1030.19</ele>
        <time>2015-06-08T07:15:04Z</time>
      </trkpt>
      <trkpt lat="45.07288" lon="2.66868">
        <ele>1035.96</ele>
        <time>2015-06-08T07:15:16Z</time>
      </trkpt>
      <trkpt lat="45.07297" lon="2.66875">
        <ele>1037.88</ele>
        <time>2015-06-08T07:15:29Z</time>
      </trkpt>
      <trkpt lat="45.07302" lon="2.66881">
        <ele>1039.32</ele>
        <time>2015-06-08T07:15:36Z</time>
      </trkpt>
      <trkpt lat="45.07316" lon="2.66891">
        <ele>1042.21</ele>
        <time>2015-06-08T07:15:49Z</time>
      </trkpt>
      <trkpt lat="45.07325" lon="2.66903">
        <ele>1039.8</ele>
        <time>2015-06-08T07:16:01Z</time>
      </trkpt>
      <trkpt lat="45.07327" lon="2.66915">
        <ele>1036.92</ele>
        <time>2015-06-08T07:16:16Z</time>
      </trkpt>
      <trkpt lat="45.07327" lon="2.66918">
        <ele>1039.8</ele>
        <time>2015-06-08T07:16:34Z</time>
      </trkpt>
      <trkpt lat="45.07321" lon="2.66935">
        <ele>1038.36</ele>
        <time>2015-06-08T07:16:47Z</time>
      </trkpt>
      <trkpt lat="45.07318" lon="2.6695">
        <ele>1039.32</ele>
        <time>2015-06-08T07:17:00Z</time>
      </trkpt>
      <trkpt lat="45.07312" lon="2.66964">
        <ele>1039.32</ele>
        <time>2015-06-08T07:17:13Z</time>
      </trkpt>
      <trkpt lat="45.07308" lon="2.66981">
        <ele>1039.32</ele>
        <time>2015-06-08T07:17:25Z</time>
      </trkpt>
      <trkpt lat="45.07302" lon="2.66998">
        <ele>1040.76</ele>
        <time>2015-06-08T07:17:39Z</time>
      </trkpt>
      <trkpt lat="45.07297" lon="2.67013">
        <ele>1038.36</ele>
        <time>2015-06-08T07:17:51Z</time>
      </trkpt>
      <trkpt lat="45.07293" lon="2.6703">
        <ele>1038.84</ele>
        <time>2015-06-08T07:18:05Z</time>
      </trkpt>
      <trkpt lat="45.07289" lon="2.6704">
        <ele>1038.84</ele>
        <time>2015-06-08T07:18:15Z</time>
      </trkpt>
      <trkpt lat="45.07286" lon="2.67058">
        <ele>1036.92</ele>
        <time>2015-06-08T07:18:31Z</time>
      </trkpt>
      <trkpt lat="45.07285" lon="2.67067">
        <ele>1034.04</ele>
        <time>2015-06-08T07:18:44Z</time>
      </trkpt>
      <trkpt lat="45.0728" lon="2.67079">
        <ele>1034.52</ele>
        <time>2015-06-08T07:18:55Z</time>
      </trkpt>
      <trkpt lat="45.07277" lon="2.67094">
        <ele>1035.48</ele>
        <time>2015-06-08T07:19:09Z</time>
      </trkpt>
      <trkpt lat="45.07275" lon="2.67106">
        <ele>1039.8</ele>
        <time>2015-06-08T07:19:21Z</time>
      </trkpt>
      <trkpt lat="45.07273" lon="2.67119">
        <ele>1043.65</ele>
        <time>2015-06-08T07:19:36Z</time>
      </trkpt>
      <trkpt lat="45.07266" lon="2.67122">
        <ele>1048.45</ele>
        <time>2015-06-08T07:19:49Z</time>
      </trkpt>
      <trkpt lat="45.0726" lon="2.67115">
        <ele>1049.42</ele>
        <time>2015-06-08T07:20:01Z</time>
      </trkpt>
      <trkpt lat="45.07257" lon="2.67114">
        <ele>1047.97</ele>
        <time>2015-06-08T07:20:07Z</time>
      </trkpt>
      <trkpt lat="45.07251" lon="2.67115">
        <ele>1048.45</ele>
        <time>2015-06-08T07:20:12Z</time>
      </trkpt>
      <trkpt lat="45.07243" lon="2.67115">
        <ele>1053.74</ele>
        <time>2015-06-08T07:20:26Z</time>
      </trkpt>
      <trkpt lat="45.07235" lon="2.67112">
        <ele>1055.18</ele>
        <time>2015-06-08T07:20:41Z</time>
      </trkpt>
      <trkpt lat="45.07227" lon="2.67112">
        <ele>1058.07</ele>
        <time>2015-06-08T07:20:52Z</time>
      </trkpt>
      <trkpt lat="45.07217" lon="2.67117">
        <ele>1059.99</ele>
        <time>2015-06-08T07:21:06Z</time>
      </trkpt>
      <trkpt lat="45.07215" lon="2.67121">
        <ele>1061.43</ele>
        <time>2015-06-08T07:21:20Z</time>
      </trkpt>
      <trkpt lat="45.07211" lon="2.67129">
        <ele>1062.87</ele>
        <time>2015-06-08T07:21:34Z</time>
      </trkpt>
      <trkpt lat="45.07215" lon="2.67135">
        <ele>1063.84</ele>
        <time>2015-06-08T07:21:47Z</time>
      </trkpt>
      <trkpt lat="45.07219" lon="2.67137">
        <ele>1066.24</ele>
        <time>2015-06-08T07:21:52Z</time>
      </trkpt>
      <trkpt lat="45.07221" lon="2.67144">
        <ele>1068.64</ele>
        <time>2015-06-08T07:22:05Z</time>
      </trkpt>
      <trkpt lat="45.07224" lon="2.67156">
        <ele>1072.01</ele>
        <time>2015-06-08T07:22:19Z</time>
      </trkpt>
      <trkpt lat="45.07222" lon="2.67159">
        <ele>1072.97</ele>
        <time>2015-06-08T07:22:23Z</time>
      </trkpt>
      <trkpt lat="45.0722" lon="2.67159">
        <ele>1073.45</ele>
        <time>2015-06-08T07:22:26Z</time>
      </trkpt>
      <trkpt lat="45.07211" lon="2.67157">
        <ele>1074.41</ele>
        <time>2015-06-08T07:22:39Z</time>
      </trkpt>
      <trkpt lat="45.072" lon="2.67153">
        <ele>1072.97</ele>
        <time>2015-06-08T07:22:51Z</time>
      </trkpt>
      <trkpt lat="45.07189" lon="2.6715">
        <ele>1072.01</ele>
        <time>2015-06-08T07:23:02Z</time>
      </trkpt>
      <trkpt lat="45.07178" lon="2.67146">
        <ele>1074.41</ele>
        <time>2015-06-08T07:23:16Z</time>
      </trkpt>
      <trkpt lat="45.07166" lon="2.67138">
        <ele>1077.78</ele>
        <time>2015-06-08T07:23:30Z</time>
      </trkpt>
      <trkpt lat="45.07158" lon="2.67134">
        <ele>1076.81</ele>
        <time>2015-06-08T07:23:46Z</time>
      </trkpt>
      <trkpt lat="45.07155" lon="2.6713">
        <ele>1076.33</ele>
        <time>2015-06-08T07:24:03Z</time>
      </trkpt>
      <trkpt lat="45.07153" lon="2.67129">
        <ele>1076.33</ele>
        <time>2015-06-08T07:24:25Z</time>
      </trkpt>
      <trkpt lat="45.07151" lon="2.67129">
        <ele>1076.33</ele>
        <time>2015-06-08T07:24:46Z</time>
      </trkpt>
      <trkpt lat="45.07151" lon="2.67129">
        <ele>1076.33</ele>
        <time>2015-06-08T07:25:15Z</time>
      </trkpt>
      <trkpt lat="45.07152" lon="2.67131">
        <ele>1073.93</ele>
        <time>2015-06-08T07:25:54Z</time>
      </trkpt>
      <trkpt lat="45.07152" lon="2.6713">
        <ele>1071.53</ele>
        <time>2015-06-08T07:26:25Z</time>
      </trkpt>
      <trkpt lat="45.07153" lon="2.67131">
        <ele>1069.6</ele>
        <time>2015-06-08T07:26:57Z</time>
      </trkpt>
      <trkpt lat="45.07153" lon="2.6713">
        <ele>1067.68</ele>
        <time>2015-06-08T07:27:32Z</time>
      </trkpt>
      <trkpt lat="45.07154" lon="2.6713">
        <ele>1068.64</ele>
        <time>2015-06-08T07:28:02Z</time>
      </trkpt>
      <trkpt lat="45.07154" lon="2.67129">
        <ele>1069.6</ele>
        <time>2015-06-08T07:28:33Z</time>
      </trkpt>
      <trkpt lat="45.07154" lon="2.67129">
        <ele>1070.08</ele>
        <time>2015-06-08T07:29:09Z</time>
      </trkpt>
      <trkpt lat="45.07154" lon="2.67129">
        <ele>1070.57</ele>
        <time>2015-06-08T07:29:35Z</time>
      </trkpt>
      <trkpt lat="45.07154" lon="2.67128">
        <ele>1070.08</ele>
        <time>2015-06-08T07:29:59Z</time>
      </trkpt>
      <trkpt lat="45.07154" lon="2.67128">
        <ele>1070.57</ele>
        <time>2015-06-08T07:30:32Z</time>
      </trkpt>
      <trkpt lat="45.07149" lon="2.67135">
        <ele>1072.49</ele>
        <time>2015-06-08T07:30:47Z</time>
      </trkpt>
      <trkpt lat="45.07143" lon="2.67142">
        <ele>1075.85</ele>
        <time>2015-06-08T07:31:04Z</time>
      </trkpt>
      <trkpt lat="45.07131" lon="2.67149">
        <ele>1077.29</ele>
        <time>2015-06-08T07:31:23Z</time>
      </trkpt>
      <trkpt lat="45.07124" lon="2.67149">
        <ele>1080.18</ele>
        <time>2015-06-08T07:31:43Z</time>
      </trkpt>
      <trkpt lat="45.07116" lon="2.67148">
        <ele>1085.47</ele>
        <time>2015-06-08T07:31:56Z</time>
      </trkpt>
      <trkpt lat="45.07104" lon="2.67153">
        <ele>1088.35</ele>
        <time>2015-06-08T07:32:13Z</time>
      </trkpt>
      <trkpt lat="45.07087" lon="2.67158">
        <ele>1091.71</ele>
        <time>2015-06-08T07:32:30Z</time>
      </trkpt>
      <trkpt lat="45.07072" lon="2.67162">
        <ele>1094.12</ele>
        <time>2015-06-08T07:32:46Z</time>
      </trkpt>
      <trkpt lat="45.07066" lon="2.6716">
        <ele>1097.96</ele>
        <time>2015-06-08T07:33:04Z</time>
      </trkpt>
      <trkpt lat="45.07056" lon="2.67158">
        <ele>1099.89</ele>
        <time>2015-06-08T07:33:22Z</time>
      </trkpt>
      <trkpt lat="45.07049" lon="2.67159">
        <ele>1100.85</ele>
        <time>2015-06-08T07:33:47Z</time>
      </trkpt>
      <trkpt lat="45.07039" lon="2.6716">
        <ele>1103.25</ele>
        <time>2015-06-08T07:34:03Z</time>
      </trkpt>
      <trkpt lat="45.07031" lon="2.67162">
        <ele>1109.02</ele>
        <time>2015-06-08T07:34:20Z</time>
      </trkpt>
      <trkpt lat="45.07034" lon="2.67166">
        <ele>1108.54</ele>
        <time>2015-06-08T07:34:38Z</time>
      </trkpt>
      <trkpt lat="45.07029" lon="2.67166">
        <ele>1112.38</ele>
        <time>2015-06-08T07:34:54Z</time>
      </trkpt>
      <trkpt lat="45.07021" lon="2.67158">
        <ele>1117.19</ele>
        <time>2015-06-08T07:35:08Z</time>
      </trkpt>
      <trkpt lat="45.07014" lon="2.67157">
        <ele>1119.11</ele>
        <time>2015-06-08T07:35:25Z</time>
      </trkpt>
      <trkpt lat="45.07003" lon="2.67149">
        <ele>1121.52</ele>
        <time>2015-06-08T07:35:44Z</time>
      </trkpt>
      <trkpt lat="45.06999" lon="2.67147">
        <ele>1123.44</ele>
        <time>2015-06-08T07:36:05Z</time>
      </trkpt>
      <trkpt lat="45.06997" lon="2.67143">
        <ele>1125.36</ele>
        <time>2015-06-08T07:36:23Z</time>
      </trkpt>
      <trkpt lat="45.06993" lon="2.67143">
        <ele>1126.32</ele>
        <time>2015-06-08T07:36:36Z</time>
      </trkpt>
      <trkpt lat="45.06986" lon="2.67134">
        <ele>1127.28</ele>
        <time>2015-06-08T07:36:52Z</time>
      </trkpt>
      <trkpt lat="45.06984" lon="2.67133">
        <ele>1127.76</ele>
        <time>2015-06-08T07:37:10Z</time>
      </trkpt>
      <trkpt lat="45.06979" lon="2.67126">
        <ele>1124.4</ele>
        <time>2015-06-08T07:37:25Z</time>
      </trkpt>
      <trkpt lat="45.06977" lon="2.67114">
        <ele>1124.88</ele>
        <time>2015-06-08T07:37:40Z</time>
      </trkpt>
      <trkpt lat="45.06972" lon="2.67106">
        <ele>1126.8</ele>
        <time>2015-06-08T07:37:54Z</time>
      </trkpt>
      <trkpt lat="45.06965" lon="2.67104">
        <ele>1129.21</ele>
        <time>2015-06-08T07:38:07Z</time>
      </trkpt>
      <trkpt lat="45.06964" lon="2.67103">
        <ele>1129.21</ele>
        <time>2015-06-08T07:38:22Z</time>
      </trkpt>
      <trkpt lat="45.06958" lon="2.671">
        <ele>1131.13</ele>
        <time>2015-06-08T07:38:38Z</time>
      </trkpt>
      <trkpt lat="45.06952" lon="2.67099">
        <ele>1128.73</ele>
        <time>2015-06-08T07:38:53Z</time>
      </trkpt>
      <trkpt lat="45.06945" lon="2.67096">
        <ele>1131.13</ele>
        <time>2015-06-08T07:39:09Z</time>
      </trkpt>
      <trkpt lat="45.06938" lon="2.67093">
        <ele>1133.53</ele>
        <time>2015-06-08T07:39:26Z</time>
      </trkpt>
      <trkpt lat="45.06933" lon="2.67092">
        <ele>1135.45</ele>
        <time>2015-06-08T07:39:41Z</time>
      </trkpt>
      <trkpt lat="45.06929" lon="2.67091">
        <ele>1135.45</ele>
        <time>2015-06-08T07:39:58Z</time>
      </trkpt>
      <trkpt lat="45.06923" lon="2.67087">
        <ele>1138.34</ele>
        <time>2015-06-08T07:40:14Z</time>
      </trkpt>
      <trkpt lat="45.06915" lon="2.67081">
        <ele>1142.18</ele>
        <time>2015-06-08T07:40:31Z</time>
      </trkpt>
      <trkpt lat="45.06911" lon="2.67078">
        <ele>1144.11</ele>
        <time>2015-06-08T07:40:47Z</time>
      </trkpt>
      <trkpt lat="45.069" lon="2.67068">
        <ele>1145.55</ele>
        <time>2015-06-08T07:41:05Z</time>
      </trkpt>
      <trkpt lat="45.06897" lon="2.6706">
        <ele>1151.32</ele>
        <time>2015-06-08T07:41:14Z</time>
      </trkpt>
      <trkpt lat="45.06887" lon="2.6705">
        <ele>1155.64</ele>
        <time>2015-06-08T07:41:30Z</time>
      </trkpt>
      <trkpt lat="45.06885" lon="2.67045">
        <ele>1158.53</ele>
        <time>2015-06-08T07:41:43Z</time>
      </trkpt>
      <trkpt lat="45.06878" lon="2.67036">
        <ele>1159.01</ele>
        <time>2015-06-08T07:41:54Z</time>
      </trkpt>
      <trkpt lat="45.06873" lon="2.6703">
        <ele>1159.01</ele>
        <time>2015-06-08T07:42:01Z</time>
      </trkpt>
      <trkpt lat="45.06865" lon="2.67021">
        <ele>1160.93</ele>
        <time>2015-06-08T07:42:12Z</time>
      </trkpt>
      <trkpt lat="45.06864" lon="2.6702">
        <ele>1160.45</ele>
        <time>2015-06-08T07:42:31Z</time>
      </trkpt>
      <trkpt lat="45.06858" lon="2.67008">
        <ele>1160.93</ele>
        <time>2015-06-08T07:42:43Z</time>
      </trkpt>
      <trkpt lat="45.06854" lon="2.67006">
        <ele>1162.37</ele>
        <time>2015-06-08T07:42:47Z</time>
      </trkpt>
      <trkpt lat="45.06852" lon="2.67005">
        <ele>1162.85</ele>
        <time>2015-06-08T07:42:49Z</time>
      </trkpt>
      <trkpt lat="45.06848" lon="2.67001">
        <ele>1164.29</ele>
        <time>2015-06-08T07:42:54Z</time>
      </trkpt>
      <trkpt lat="45.06845" lon="2.67001">
        <ele>1164.77</ele>
        <time>2015-06-08T07:42:56Z</time>
      </trkpt>
      <trkpt lat="45.06843" lon="2.67">
        <ele>1164.77</ele>
        <time>2015-06-08T07:42:59Z</time>
      </trkpt>
      <trkpt lat="45.06828" lon="2.66992">
        <ele>1164.29</ele>
        <time>2015-06-08T07:43:13Z</time>
      </trkpt>
      <trkpt lat="45.06822" lon="2.66989">
        <ele>1163.81</ele>
        <time>2015-06-08T07:43:19Z</time>
      </trkpt>
      <trkpt lat="45.06821" lon="2.66988">
        <ele>1163.33</ele>
        <time>2015-06-08T07:43:21Z</time>
      </trkpt>
      <trkpt lat="45.06815" lon="2.66985">
        <ele>1162.37</ele>
        <time>2015-06-08T07:43:35Z</time>
      </trkpt>
      <trkpt lat="45.06812" lon="2.66984">
        <ele>1162.37</ele>
        <time>2015-06-08T07:43:38Z</time>
      </trkpt>
      <trkpt lat="45.06802" lon="2.66977">
        <ele>1160.93</ele>
        <time>2015-06-08T07:43:51Z</time>
      </trkpt>
      <trkpt lat="45.06799" lon="2.66968">
        <ele>1158.05</ele>
        <time>2015-06-08T07:44:04Z</time>
      </trkpt>
      <trkpt lat="45.06794" lon="2.66965">
        <ele>1155.64</ele>
        <time>2015-06-08T07:44:15Z</time>
      </trkpt>
      <trkpt lat="45.06791" lon="2.66958">
        <ele>1150.35</ele>
        <time>2015-06-08T07:44:29Z</time>
      </trkpt>
      <trkpt lat="45.06784" lon="2.6695">
        <ele>1146.99</ele>
        <time>2015-06-08T07:44:41Z</time>
      </trkpt>
      <trkpt lat="45.06774" lon="2.6694">
        <ele>1145.55</ele>
        <time>2015-06-08T07:44:57Z</time>
      </trkpt>
      <trkpt lat="45.06764" lon="2.66934">
        <ele>1145.55</ele>
        <time>2015-06-08T07:45:10Z</time>
      </trkpt>
      <trkpt lat="45.06751" lon="2.66919">
        <ele>1148.43</ele>
        <time>2015-06-08T07:45:25Z</time>
      </trkpt>
      <trkpt lat="45.06742" lon="2.66922">
        <ele>1149.39</ele>
        <time>2015-06-08T07:45:35Z</time>
      </trkpt>
      <trkpt lat="45.06731" lon="2.66935">
        <ele>1151.32</ele>
        <time>2015-06-08T07:45:52Z</time>
      </trkpt>
      <trkpt lat="45.06724" lon="2.66938">
        <ele>1153.24</ele>
        <time>2015-06-08T07:46:05Z</time>
      </trkpt>
      <trkpt lat="45.06713" lon="2.66947">
        <ele>1154.68</ele>
        <time>2015-06-08T07:46:18Z</time>
      </trkpt>
      <trkpt lat="45.06708" lon="2.66948">
        <ele>1155.64</ele>
        <time>2015-06-08T07:46:27Z</time>
      </trkpt>
      <trkpt lat="45.06694" lon="2.66949">
        <ele>1156.12</ele>
        <time>2015-06-08T07:46:42Z</time>
      </trkpt>
      <trkpt lat="45.06685" lon="2.66945">
        <ele>1158.05</ele>
        <time>2015-06-08T07:46:58Z</time>
      </trkpt>
      <trkpt lat="45.06677" lon="2.66941">
        <ele>1161.89</ele>
        <time>2015-06-08T07:47:11Z</time>
      </trkpt>
      <trkpt lat="45.06674" lon="2.66941">
        <ele>1162.85</ele>
        <time>2015-06-08T07:47:29Z</time>
      </trkpt>
      <trkpt lat="45.06666" lon="2.66945">
        <ele>1165.26</ele>
        <time>2015-06-08T07:47:45Z</time>
      </trkpt>
      <trkpt lat="45.06655" lon="2.66952">
        <ele>1166.7</ele>
        <time>2015-06-08T07:47:59Z</time>
      </trkpt>
      <trkpt lat="45.06649" lon="2.66954">
        <ele>1170.06</ele>
        <time>2015-06-08T07:48:07Z</time>
      </trkpt>
      <trkpt lat="45.06638" lon="2.66958">
        <ele>1170.06</ele>
        <time>2015-06-08T07:48:23Z</time>
      </trkpt>
      <trkpt lat="45.06634" lon="2.66946">
        <ele>1170.06</ele>
        <time>2015-06-08T07:48:33Z</time>
      </trkpt>
      <trkpt lat="45.06629" lon="2.66934">
        <ele>1171.5</ele>
        <time>2015-06-08T07:48:46Z</time>
      </trkpt>
      <trkpt lat="45.06623" lon="2.66935">
        <ele>1172.47</ele>
        <time>2015-06-08T07:48:59Z</time>
      </trkpt>
      <trkpt lat="45.06615" lon="2.66935">
        <ele>1173.43</ele>
        <time>2015-06-08T07:49:10Z</time>
      </trkpt>
      <trkpt lat="45.06601" lon="2.66938">
        <ele>1174.39</ele>
        <time>2015-06-08T07:49:22Z</time>
      </trkpt>
      <trkpt lat="45.06596" lon="2.66933">
        <ele>1176.31</ele>
        <time>2015-06-08T07:49:32Z</time>
      </trkpt>
      <trkpt lat="45.06592" lon="2.66923">
        <ele>1178.71</ele>
        <time>2015-06-08T07:49:42Z</time>
      </trkpt>
      <trkpt lat="45.06589" lon="2.66919">
        <ele>1178.23</ele>
        <time>2015-06-08T07:49:48Z</time>
      </trkpt>
      <trkpt lat="45.0658" lon="2.66911">
        <ele>1179.19</ele>
        <time>2015-06-08T07:50:01Z</time>
      </trkpt>
      <trkpt lat="45.06573" lon="2.66905">
        <ele>1179.19</ele>
        <time>2015-06-08T07:50:14Z</time>
      </trkpt>
      <trkpt lat="45.06565" lon="2.66899">
        <ele>1179.67</ele>
        <time>2015-06-08T07:50:25Z</time>
      </trkpt>
      <trkpt lat="45.06558" lon="2.66893">
        <ele>1180.16</ele>
        <time>2015-06-08T07:50:38Z</time>
      </trkpt>
      <trkpt lat="45.06553" lon="2.6689">
        <ele>1181.12</ele>
        <time>2015-06-08T07:50:46Z</time>
      </trkpt>
      <trkpt lat="45.06549" lon="2.6689">
        <ele>1180.64</ele>
        <time>2015-06-08T07:51:00Z</time>
      </trkpt>
      <trkpt lat="45.06548" lon="2.6689">
        <ele>1180.64</ele>
        <time>2015-06-08T07:51:23Z</time>
      </trkpt>
      <trkpt lat="45.06547" lon="2.6689">
        <ele>1179.19</ele>
        <time>2015-06-08T07:51:46Z</time>
      </trkpt>
      <trkpt lat="45.0654" lon="2.66891">
        <ele>1179.19</ele>
        <time>2015-06-08T07:52:03Z</time>
      </trkpt>
      <trkpt lat="45.06531" lon="2.66898">
        <ele>1179.67</ele>
        <time>2015-06-08T07:52:14Z</time>
      </trkpt>
      <trkpt lat="45.0652" lon="2.66904">
        <ele>1178.23</ele>
        <time>2015-06-08T07:52:26Z</time>
      </trkpt>
      <trkpt lat="45.0651" lon="2.66909">
        <ele>1181.12</ele>
        <time>2015-06-08T07:52:39Z</time>
      </trkpt>
      <trkpt lat="45.06502" lon="2.66914">
        <ele>1180.64</ele>
        <time>2015-06-08T07:52:51Z</time>
      </trkpt>
      <trkpt lat="45.06493" lon="2.6692">
        <ele>1182.56</ele>
        <time>2015-06-08T07:53:04Z</time>
      </trkpt>
      <trkpt lat="45.06485" lon="2.66927">
        <ele>1185.44</ele>
        <time>2015-06-08T07:53:16Z</time>
      </trkpt>
      <trkpt lat="45.06479" lon="2.66932">
        <ele>1186.88</ele>
        <time>2015-06-08T07:53:24Z</time>
      </trkpt>
      <trkpt lat="45.06472" lon="2.66934">
        <ele>1188.81</ele>
        <time>2015-06-08T07:53:31Z</time>
      </trkpt>
      <trkpt lat="45.06469" lon="2.66932">
        <ele>1190.25</ele>
        <time>2015-06-08T07:53:36Z</time>
      </trkpt>
      <trkpt lat="45.06461" lon="2.66925">
        <ele>1192.17</ele>
        <time>2015-06-08T07:53:48Z</time>
      </trkpt>
      <trkpt lat="45.06452" lon="2.66921">
        <ele>1194.09</ele>
        <time>2015-06-08T07:54:00Z</time>
      </trkpt>
      <trkpt lat="45.06443" lon="2.66917">
        <ele>1194.09</ele>
        <time>2015-06-08T07:54:14Z</time>
      </trkpt>
      <trkpt lat="45.06434" lon="2.66912">
        <ele>1196.02</ele>
        <time>2015-06-08T07:54:27Z</time>
      </trkpt>
      <trkpt lat="45.06424" lon="2.66909">
        <ele>1198.42</ele>
        <time>2015-06-08T07:54:41Z</time>
      </trkpt>
      <trkpt lat="45.06417" lon="2.66911">
        <ele>1198.42</ele>
        <time>2015-06-08T07:54:52Z</time>
      </trkpt>
      <trkpt lat="45.06407" lon="2.66908">
        <ele>1197.46</ele>
        <time>2015-06-08T07:55:05Z</time>
      </trkpt>
      <trkpt lat="45.06399" lon="2.66907">
        <ele>1200.82</ele>
        <time>2015-06-08T07:55:19Z</time>
      </trkpt>
      <trkpt lat="45.06388" lon="2.66905">
        <ele>1203.71</ele>
        <time>2015-06-08T07:55:33Z</time>
      </trkpt>
      <trkpt lat="45.06378" lon="2.66904">
        <ele>1206.11</ele>
        <time>2015-06-08T07:55:48Z</time>
      </trkpt>
      <trkpt lat="45.0637" lon="2.66903">
        <ele>1208.51</ele>
        <time>2015-06-08T07:56:01Z</time>
      </trkpt>
      <trkpt lat="45.0636" lon="2.669">
        <ele>1209.48</ele>
        <time>2015-06-08T07:56:15Z</time>
      </trkpt>
      <trkpt lat="45.06352" lon="2.66903">
        <ele>1210.92</ele>
        <time>2015-06-08T07:56:28Z</time>
      </trkpt>
      <trkpt lat="45.06344" lon="2.6691">
        <ele>1212.36</ele>
        <time>2015-06-08T07:56:44Z</time>
      </trkpt>
      <trkpt lat="45.06344" lon="2.66911">
        <ele>1212.84</ele>
        <time>2015-06-08T07:56:45Z</time>
      </trkpt>
      <trkpt lat="45.06346" lon="2.66913">
        <ele>1213.8</ele>
        <time>2015-06-08T07:56:48Z</time>
      </trkpt>
      <trkpt lat="45.06352" lon="2.66918">
        <ele>1216.69</ele>
        <time>2015-06-08T07:57:02Z</time>
      </trkpt>
      <trkpt lat="45.06352" lon="2.66918">
        <ele>1217.17</ele>
        <time>2015-06-08T07:57:19Z</time>
      </trkpt>
      <trkpt lat="45.06352" lon="2.66918">
        <ele>1217.65</ele>
        <time>2015-06-08T07:57:47Z</time>
      </trkpt>
      <trkpt lat="45.06353" lon="2.66918">
        <ele>1216.69</ele>
        <time>2015-06-08T07:58:12Z</time>
      </trkpt>
      <trkpt lat="45.06356" lon="2.66919">
        <ele>1216.21</ele>
        <time>2015-06-08T07:58:39Z</time>
      </trkpt>
      <trkpt lat="45.06361" lon="2.66924">
        <ele>1217.65</ele>
        <time>2015-06-08T07:58:47Z</time>
      </trkpt>
      <trkpt lat="45.06368" lon="2.66935">
        <ele>1217.65</ele>
        <time>2015-06-08T07:59:01Z</time>
      </trkpt>
      <trkpt lat="45.06373" lon="2.66944">
        <ele>1219.57</ele>
        <time>2015-06-08T07:59:15Z</time>
      </trkpt>
      <trkpt lat="45.06374" lon="2.66955">
        <ele>1219.57</ele>
        <time>2015-06-08T07:59:29Z</time>
      </trkpt>
      <trkpt lat="45.06366" lon="2.66957">
        <ele>1220.53</ele>
        <time>2015-06-08T07:59:43Z</time>
      </trkpt>
      <trkpt lat="45.06366" lon="2.66954">
        <ele>1220.05</ele>
        <time>2015-06-08T07:59:56Z</time>
      </trkpt>
      <trkpt lat="45.06365" lon="2.66953">
        <ele>1220.05</ele>
        <time>2015-06-08T08:00:10Z</time>
      </trkpt>
      <trkpt lat="45.06365" lon="2.66953">
        <ele>1220.53</ele>
        <time>2015-06-08T08:00:25Z</time>
      </trkpt>
      <trkpt lat="45.06365" lon="2.66953">
        <ele>1221.97</ele>
        <time>2015-06-08T08:00:55Z</time>
      </trkpt>
      <trkpt lat="45.06365" lon="2.66953">
        <ele>1222.45</ele>
        <time>2015-06-08T08:01:28Z</time>
      </trkpt>
      <trkpt lat="45.06365" lon="2.66952">
        <ele>1222.45</ele>
        <time>2015-06-08T08:01:48Z</time>
      </trkpt>
      <trkpt lat="45.06365" lon="2.66952">
        <ele>1222.45</ele>
        <time>2015-06-08T08:02:08Z</time>
      </trkpt>
      <trkpt lat="45.06365" lon="2.66952">
        <ele>1222.45</ele>
        <time>2015-06-08T08:02:43Z</time>
      </trkpt>
      <trkpt lat="45.06365" lon="2.66952">
        <ele>1223.42</ele>
        <time>2015-06-08T08:03:19Z</time>
      </trkpt>
      <trkpt lat="45.06365" lon="2.66951">
        <ele>1224.38</ele>
        <time>2015-06-08T08:03:53Z</time>
      </trkpt>
      <trkpt lat="45.06365" lon="2.66952">
        <ele>1224.38</ele>
        <time>2015-06-08T08:04:26Z</time>
      </trkpt>
      <trkpt lat="45.06365" lon="2.6695">
        <ele>1224.38</ele>
        <time>2015-06-08T08:04:59Z</time>
      </trkpt>
      <trkpt lat="45.06365" lon="2.6695">
        <ele>1224.38</ele>
        <time>2015-06-08T08:05:30Z</time>
      </trkpt>
      <trkpt lat="45.06365" lon="2.66951">
        <ele>1223.9</ele>
        <time>2015-06-08T08:06:02Z</time>
      </trkpt>
      <trkpt lat="45.06365" lon="2.6695">
        <ele>1224.38</ele>
        <time>2015-06-08T08:06:37Z</time>
      </trkpt>
      <trkpt lat="45.06365" lon="2.6695">
        <ele>1224.86</ele>
        <time>2015-06-08T08:07:05Z</time>
      </trkpt>
      <trkpt lat="45.06365" lon="2.66951">
        <ele>1225.34</ele>
        <time>2015-06-08T08:07:31Z</time>
      </trkpt>
      <trkpt lat="45.06365" lon="2.66952">
        <ele>1225.82</ele>
        <time>2015-06-08T08:07:37Z</time>
      </trkpt>
      <trkpt lat="45.06366" lon="2.66951">
        <ele>1226.3</ele>
        <time>2015-06-08T08:07:50Z</time>
      </trkpt>
      <trkpt lat="45.06366" lon="2.6695">
        <ele>1226.3</ele>
        <time>2015-06-08T08:08:02Z</time>
      </trkpt>
      <trkpt lat="45.06366" lon="2.66951">
        <ele>1226.3</ele>
        <time>2015-06-08T08:08:18Z</time>
      </trkpt>
      <trkpt lat="45.06365" lon="2.66951">
        <ele>1225.82</ele>
        <time>2015-06-08T08:08:31Z</time>
      </trkpt>
      <trkpt lat="45.06365" lon="2.66951">
        <ele>1225.82</ele>
        <time>2015-06-08T08:08:47Z</time>
      </trkpt>
      <trkpt lat="45.06365" lon="2.66952">
        <ele>1225.82</ele>
        <time>2015-06-08T08:09:07Z</time>
      </trkpt>
      <trkpt lat="45.06365" lon="2.66955">
        <ele>1225.34</ele>
        <time>2015-06-08T08:09:22Z</time>
      </trkpt>
      <trkpt lat="45.06362" lon="2.66964">
        <ele>1226.3</ele>
        <time>2015-06-08T08:09:34Z</time>
      </trkpt>
      <trkpt lat="45.06361" lon="2.66965">
        <ele>1226.3</ele>
        <time>2015-06-08T08:09:52Z</time>
      </trkpt>
      <trkpt lat="45.0636" lon="2.66964">
        <ele>1226.3</ele>
        <time>2015-06-08T08:10:15Z</time>
      </trkpt>
      <trkpt lat="45.06359" lon="2.66966">
        <ele>1226.3</ele>
        <time>2015-06-08T08:10:31Z</time>
      </trkpt>
      <trkpt lat="45.06359" lon="2.66966">
        <ele>1226.78</ele>
        <time>2015-06-08T08:10:50Z</time>
      </trkpt>
      <trkpt lat="45.06359" lon="2.66966">
        <ele>1226.78</ele>
        <time>2015-06-08T08:11:07Z</time>
      </trkpt>
      <trkpt lat="45.06358" lon="2.66967">
        <ele>1227.26</ele>
        <time>2015-06-08T08:11:32Z</time>
      </trkpt>
      <trkpt lat="45.06358" lon="2.66967">
        <ele>1227.26</ele>
        <time>2015-06-08T08:11:48Z</time>
      </trkpt>
      <trkpt lat="45.06358" lon="2.66968">
        <ele>1227.26</ele>
        <time>2015-06-08T08:12:07Z</time>
      </trkpt>
      <trkpt lat="45.06358" lon="2.66967">
        <ele>1227.74</ele>
        <time>2015-06-08T08:12:28Z</time>
      </trkpt>
      <trkpt lat="45.06358" lon="2.66967">
        <ele>1227.26</ele>
        <time>2015-06-08T08:12:50Z</time>
      </trkpt>
      <trkpt lat="45.06358" lon="2.66967">
        <ele>1227.26</ele>
        <time>2015-06-08T08:13:12Z</time>
      </trkpt>
      <trkpt lat="45.06358" lon="2.66967">
        <ele>1227.74</ele>
        <time>2015-06-08T08:13:34Z</time>
      </trkpt>
      <trkpt lat="45.06358" lon="2.66967">
        <ele>1227.74</ele>
        <time>2015-06-08T08:13:55Z</time>
      </trkpt>
      <trkpt lat="45.06358" lon="2.66968">
        <ele>1228.22</ele>
        <time>2015-06-08T08:14:19Z</time>
      </trkpt>
      <trkpt lat="45.06358" lon="2.66968">
        <ele>1227.74</ele>
        <time>2015-06-08T08:14:43Z</time>
      </trkpt>
      <trkpt lat="45.06358" lon="2.66968">
        <ele>1227.74</ele>
        <time>2015-06-08T08:15:03Z</time>
      </trkpt>
      <trkpt lat="45.06358" lon="2.66968">
        <ele>1227.74</ele>
        <time>2015-06-08T08:15:26Z</time>
      </trkpt>
      <trkpt lat="45.06355" lon="2.66977">
        <ele>1225.34</ele>
        <time>2015-06-08T08:15:36Z</time>
      </trkpt>
      <trkpt lat="45.06352" lon="2.66988">
        <ele>1224.38</ele>
        <time>2015-06-08T08:15:45Z</time>
      </trkpt>
      <trkpt lat="45.06347" lon="2.67005">
        <ele>1225.34</ele>
        <time>2015-06-08T08:15:59Z</time>
      </trkpt>
      <trkpt lat="45.06347" lon="2.6701">
        <ele>1225.82</ele>
        <time>2015-06-08T08:16:03Z</time>
      </trkpt>
      <trkpt lat="45.06344" lon="2.67031">
        <ele>1227.26</ele>
        <time>2015-06-08T08:16:19Z</time>
      </trkpt>
      <trkpt lat="45.06344" lon="2.67043">
        <ele>1229.18</ele>
        <time>2015-06-08T08:16:28Z</time>
      </trkpt>
      <trkpt lat="45.06343" lon="2.6706">
        <ele>1230.62</ele>
        <time>2015-06-08T08:16:40Z</time>
      </trkpt>
      <trkpt lat="45.06343" lon="2.67062">
        <ele>1230.62</ele>
        <time>2015-06-08T08:16:41Z</time>
      </trkpt>
      <trkpt lat="45.06342" lon="2.6708">
        <ele>1230.62</ele>
        <time>2015-06-08T08:16:55Z</time>
      </trkpt>
      <trkpt lat="45.0634" lon="2.67091">
        <ele>1232.07</ele>
        <time>2015-06-08T08:17:03Z</time>
      </trkpt>
      <trkpt lat="45.06339" lon="2.67094">
        <ele>1233.03</ele>
        <time>2015-06-08T08:17:05Z</time>
      </trkpt>
      <trkpt lat="45.06335" lon="2.67111">
        <ele>1233.51</ele>
        <time>2015-06-08T08:17:18Z</time>
      </trkpt>
      <trkpt lat="45.06332" lon="2.67129">
        <ele>1234.47</ele>
        <time>2015-06-08T08:17:32Z</time>
      </trkpt>
      <trkpt lat="45.06328" lon="2.67148">
        <ele>1236.39</ele>
        <time>2015-06-08T08:17:47Z</time>
      </trkpt>
      <trkpt lat="45.06333" lon="2.67146">
        <ele>1239.76</ele>
        <time>2015-06-08T08:17:59Z</time>
      </trkpt>
      <trkpt lat="45.06334" lon="2.67145">
        <ele>1240.72</ele>
        <time>2015-06-08T08:18:00Z</time>
      </trkpt>
      <trkpt lat="45.06338" lon="2.67131">
        <ele>1245.04</ele>
        <time>2015-06-08T08:18:14Z</time>
      </trkpt>
      <trkpt lat="45.06343" lon="2.67117">
        <ele>1246.49</ele>
        <time>2015-06-08T08:18:26Z</time>
      </trkpt>
      <trkpt lat="45.06348" lon="2.67101">
        <ele>1251.29</ele>
        <time>2015-06-08T08:18:39Z</time>
      </trkpt>
      <trkpt lat="45.06354" lon="2.6709">
        <ele>1249.37</ele>
        <time>2015-06-08T08:18:50Z</time>
      </trkpt>
      <trkpt lat="45.06357" lon="2.67072">
        <ele>1250.81</ele>
        <time>2015-06-08T08:19:01Z</time>
      </trkpt>
      <trkpt lat="45.0636" lon="2.67064">
        <ele>1250.33</ele>
        <time>2015-06-08T08:19:07Z</time>
      </trkpt>
      <trkpt lat="45.06363" lon="2.6706">
        <ele>1250.33</ele>
        <time>2015-06-08T08:19:11Z</time>
      </trkpt>
      <trkpt lat="45.06374" lon="2.67058">
        <ele>1249.85</ele>
        <time>2015-06-08T08:19:23Z</time>
      </trkpt>
      <trkpt lat="45.06385" lon="2.67059">
        <ele>1251.29</ele>
        <time>2015-06-08T08:19:35Z</time>
      </trkpt>
      <trkpt lat="45.06395" lon="2.67066">
        <ele>1254.66</ele>
        <time>2015-06-08T08:19:47Z</time>
      </trkpt>
      <trkpt lat="45.06402" lon="2.67068">
        <ele>1256.58</ele>
        <time>2015-06-08T08:19:54Z</time>
      </trkpt>
      <trkpt lat="45.06413" lon="2.67077">
        <ele>1258.02</ele>
        <time>2015-06-08T08:20:05Z</time>
      </trkpt>
      <trkpt lat="45.06422" lon="2.67082">
        <ele>1259.46</ele>
        <time>2015-06-08T08:20:16Z</time>
      </trkpt>
      <trkpt lat="45.06431" lon="2.67089">
        <ele>1258.02</ele>
        <time>2015-06-08T08:20:26Z</time>
      </trkpt>
      <trkpt lat="45.06444" lon="2.67097">
        <ele>1253.7</ele>
        <time>2015-06-08T08:20:40Z</time>
      </trkpt>
      <trkpt lat="45.06453" lon="2.67101">
        <ele>1252.74</ele>
        <time>2015-06-08T08:20:49Z</time>
      </trkpt>
      <trkpt lat="45.0646" lon="2.67112">
        <ele>1252.25</ele>
        <time>2015-06-08T08:21:00Z</time>
      </trkpt>
      <trkpt lat="45.06468" lon="2.67122">
        <ele>1253.7</ele>
        <time>2015-06-08T08:21:12Z</time>
      </trkpt>
      <trkpt lat="45.06472" lon="2.67125">
        <ele>1254.66</ele>
        <time>2015-06-08T08:21:17Z</time>
      </trkpt>
      <trkpt lat="45.06475" lon="2.67127">
        <ele>1255.14</ele>
        <time>2015-06-08T08:21:20Z</time>
      </trkpt>
      <trkpt lat="45.06486" lon="2.67128">
        <ele>1256.58</ele>
        <time>2015-06-08T08:21:32Z</time>
      </trkpt>
      <trkpt lat="45.0649" lon="2.67127">
        <ele>1257.06</ele>
        <time>2015-06-08T08:21:37Z</time>
      </trkpt>
      <trkpt lat="45.065" lon="2.67133">
        <ele>1261.87</ele>
        <time>2015-06-08T08:21:50Z</time>
      </trkpt>
      <trkpt lat="45.06507" lon="2.67134">
        <ele>1265.23</ele>
        <time>2015-06-08T08:22:00Z</time>
      </trkpt>
      <trkpt lat="45.06513" lon="2.67138">
        <ele>1267.16</ele>
        <time>2015-06-08T08:22:07Z</time>
      </trkpt>
      <trkpt lat="45.06528" lon="2.67149">
        <ele>1266.19</ele>
        <time>2015-06-08T08:22:22Z</time>
      </trkpt>
      <trkpt lat="45.0654" lon="2.67157">
        <ele>1268.6</ele>
        <time>2015-06-08T08:22:33Z</time>
      </trkpt>
      <trkpt lat="45.06549" lon="2.6717">
        <ele>1270.04</ele>
        <time>2015-06-08T08:22:45Z</time>
      </trkpt>
      <trkpt lat="45.06552" lon="2.67174">
        <ele>1271</ele>
        <time>2015-06-08T08:22:50Z</time>
      </trkpt>
      <trkpt lat="45.0656" lon="2.67185">
        <ele>1273.88</ele>
        <time>2015-06-08T08:23:02Z</time>
      </trkpt>
      <trkpt lat="45.06568" lon="2.67195">
        <ele>1275.81</ele>
        <time>2015-06-08T08:23:14Z</time>
      </trkpt>
      <trkpt lat="45.06575" lon="2.67205">
        <ele>1276.29</ele>
        <time>2015-06-08T08:23:27Z</time>
      </trkpt>
      <trkpt lat="45.06584" lon="2.67214">
        <ele>1278.21</ele>
        <time>2015-06-08T08:23:39Z</time>
      </trkpt>
      <trkpt lat="45.06588" lon="2.67216">
        <ele>1278.69</ele>
        <time>2015-06-08T08:23:43Z</time>
      </trkpt>
      <trkpt lat="45.06589" lon="2.67217">
        <ele>1278.21</ele>
        <time>2015-06-08T08:23:45Z</time>
      </trkpt>
      <trkpt lat="45.06599" lon="2.67231">
        <ele>1279.65</ele>
        <time>2015-06-08T08:24:00Z</time>
      </trkpt>
      <trkpt lat="45.06609" lon="2.67238">
        <ele>1283.02</ele>
        <time>2015-06-08T08:24:13Z</time>
      </trkpt>
      <trkpt lat="45.06617" lon="2.67245">
        <ele>1284.46</ele>
        <time>2015-06-08T08:24:24Z</time>
      </trkpt>
      <trkpt lat="45.06627" lon="2.67253">
        <ele>1284.94</ele>
        <time>2015-06-08T08:24:37Z</time>
      </trkpt>
      <trkpt lat="45.06638" lon="2.6726">
        <ele>1287.34</ele>
        <time>2015-06-08T08:24:51Z</time>
      </trkpt>
      <trkpt lat="45.06647" lon="2.67268">
        <ele>1285.9</ele>
        <time>2015-06-08T08:25:04Z</time>
      </trkpt>
      <trkpt lat="45.06655" lon="2.67277">
        <ele>1285.42</ele>
        <time>2015-06-08T08:25:15Z</time>
      </trkpt>
      <trkpt lat="45.06666" lon="2.67285">
        <ele>1287.82</ele>
        <time>2015-06-08T08:25:28Z</time>
      </trkpt>
      <trkpt lat="45.06667" lon="2.67285">
        <ele>1287.82</ele>
        <time>2015-06-08T08:25:29Z</time>
      </trkpt>
      <trkpt lat="45.0668" lon="2.67297">
        <ele>1289.27</ele>
        <time>2015-06-08T08:25:44Z</time>
      </trkpt>
      <trkpt lat="45.06684" lon="2.673">
        <ele>1288.78</ele>
        <time>2015-06-08T08:25:49Z</time>
      </trkpt>
      <trkpt lat="45.06693" lon="2.67305">
        <ele>1287.82</ele>
        <time>2015-06-08T08:26:01Z</time>
      </trkpt>
      <trkpt lat="45.06694" lon="2.67307">
        <ele>1287.82</ele>
        <time>2015-06-08T08:26:03Z</time>
      </trkpt>
      <trkpt lat="45.06702" lon="2.67316">
        <ele>1287.82</ele>
        <time>2015-06-08T08:26:13Z</time>
      </trkpt>
      <trkpt lat="45.06707" lon="2.67321">
        <ele>1288.3</ele>
        <time>2015-06-08T08:26:21Z</time>
      </trkpt>
      <trkpt lat="45.06715" lon="2.67322">
        <ele>1289.27</ele>
        <time>2015-06-08T08:26:35Z</time>
      </trkpt>
      <trkpt lat="45.06715" lon="2.67323">
        <ele>1290.71</ele>
        <time>2015-06-08T08:26:51Z</time>
      </trkpt>
      <trkpt lat="45.06713" lon="2.67322">
        <ele>1290.71</ele>
        <time>2015-06-08T08:27:05Z</time>
      </trkpt>
      <trkpt lat="45.06713" lon="2.67323">
        <ele>1290.71</ele>
        <time>2015-06-08T08:27:20Z</time>
      </trkpt>
      <trkpt lat="45.06713" lon="2.67323">
        <ele>1290.23</ele>
        <time>2015-06-08T08:27:44Z</time>
      </trkpt>
      <trkpt lat="45.06713" lon="2.67323">
        <ele>1290.23</ele>
        <time>2015-06-08T08:28:02Z</time>
      </trkpt>
      <trkpt lat="45.06713" lon="2.67323">
        <ele>1289.75</ele>
        <time>2015-06-08T08:28:28Z</time>
      </trkpt>
      <trkpt lat="45.06713" lon="2.67323">
        <ele>1290.71</ele>
        <time>2015-06-08T08:28:48Z</time>
      </trkpt>
      <trkpt lat="45.06713" lon="2.67322">
        <ele>1291.19</ele>
        <time>2015-06-08T08:29:10Z</time>
      </trkpt>
      <trkpt lat="45.06713" lon="2.67322">
        <ele>1291.67</ele>
        <time>2015-06-08T08:29:27Z</time>
      </trkpt>
      <trkpt lat="45.06712" lon="2.67322">
        <ele>1291.19</ele>
        <time>2015-06-08T08:29:48Z</time>
      </trkpt>
      <trkpt lat="45.06713" lon="2.67322">
        <ele>1291.19</ele>
        <time>2015-06-08T08:30:12Z</time>
      </trkpt>
      <trkpt lat="45.06713" lon="2.67322">
        <ele>1292.15</ele>
        <time>2015-06-08T08:30:30Z</time>
      </trkpt>
      <trkpt lat="45.06713" lon="2.67322">
        <ele>1292.15</ele>
        <time>2015-06-08T08:30:53Z</time>
      </trkpt>
      <trkpt lat="45.06713" lon="2.67322">
        <ele>1293.11</ele>
        <time>2015-06-08T08:31:08Z</time>
      </trkpt>
      <trkpt lat="45.06712" lon="2.67322">
        <ele>1293.11</ele>
        <time>2015-06-08T08:31:30Z</time>
      </trkpt>
      <trkpt lat="45.0671" lon="2.6732">
        <ele>1293.59</ele>
        <time>2015-06-08T08:31:45Z</time>
      </trkpt>
      <trkpt lat="45.06709" lon="2.67319">
        <ele>1294.07</ele>
        <time>2015-06-08T08:32:03Z</time>
      </trkpt>
      <trkpt lat="45.06709" lon="2.67319">
        <ele>1293.59</ele>
        <time>2015-06-08T08:32:21Z</time>
      </trkpt>
      <trkpt lat="45.06709" lon="2.67319">
        <ele>1293.59</ele>
        <time>2015-06-08T08:32:23Z</time>
      </trkpt>
      <trkpt lat="45.0671" lon="2.67319">
        <ele>1293.59</ele>
        <time>2015-06-08T08:32:35Z</time>
      </trkpt>
      <trkpt lat="45.0671" lon="2.67319">
        <ele>1294.07</ele>
        <time>2015-06-08T08:32:54Z</time>
      </trkpt>
      <trkpt lat="45.06707" lon="2.67319">
        <ele>1294.07</ele>
        <time>2015-06-08T08:33:12Z</time>
      </trkpt>
      <trkpt lat="45.06701" lon="2.67317">
        <ele>1293.11</ele>
        <time>2015-06-08T08:33:18Z</time>
      </trkpt>
      <trkpt lat="45.06691" lon="2.67307">
        <ele>1288.78</ele>
        <time>2015-06-08T08:33:32Z</time>
      </trkpt>
      <trkpt lat="45.06686" lon="2.67305">
        <ele>1287.34</ele>
        <time>2015-06-08T08:33:36Z</time>
      </trkpt>
      <trkpt lat="45.06681" lon="2.67303">
        <ele>1286.86</ele>
        <time>2015-06-08T08:33:41Z</time>
      </trkpt>
      <trkpt lat="45.06668" lon="2.67298">
        <ele>1286.38</ele>
        <time>2015-06-08T08:33:54Z</time>
      </trkpt>
      <trkpt lat="45.0666" lon="2.67294">
        <ele>1286.86</ele>
        <time>2015-06-08T08:34:02Z</time>
      </trkpt>
      <trkpt lat="45.06649" lon="2.67288">
        <ele>1286.38</ele>
        <time>2015-06-08T08:34:12Z</time>
      </trkpt>
      <trkpt lat="45.06647" lon="2.67286">
        <ele>1286.86</ele>
        <time>2015-06-08T08:34:14Z</time>
      </trkpt>
      <trkpt lat="45.06633" lon="2.67282">
        <ele>1286.38</ele>
        <time>2015-06-08T08:34:29Z</time>
      </trkpt>
      <trkpt lat="45.06621" lon="2.67276">
        <ele>1286.38</ele>
        <time>2015-06-08T08:34:39Z</time>
      </trkpt>
      <trkpt lat="45.06618" lon="2.67275">
        <ele>1287.34</ele>
        <time>2015-06-08T08:34:43Z</time>
      </trkpt>
      <trkpt lat="45.06602" lon="2.6727">
        <ele>1288.3</ele>
        <time>2015-06-08T08:34:57Z</time>
      </trkpt>
      <trkpt lat="45.06589" lon="2.67265">
        <ele>1287.34</ele>
        <time>2015-06-08T08:35:10Z</time>
      </trkpt>
      <trkpt lat="45.06582" lon="2.67262">
        <ele>1285.9</ele>
        <time>2015-06-08T08:35:17Z</time>
      </trkpt>
      <trkpt lat="45.06567" lon="2.67255">
        <ele>1287.82</ele>
        <time>2015-06-08T08:35:31Z</time>
      </trkpt>
      <trkpt lat="45.06555" lon="2.67252">
        <ele>1288.78</ele>
        <time>2015-06-08T08:35:44Z</time>
      </trkpt>
      <trkpt lat="45.06541" lon="2.6725">
        <ele>1290.71</ele>
        <time>2015-06-08T08:36:02Z</time>
      </trkpt>
      <trkpt lat="45.06529" lon="2.67243">
        <ele>1292.15</ele>
        <time>2015-06-08T08:36:16Z</time>
      </trkpt>
      <trkpt lat="45.06515" lon="2.67235">
        <ele>1293.11</ele>
        <time>2015-06-08T08:36:30Z</time>
      </trkpt>
      <trkpt lat="45.06505" lon="2.67234">
        <ele>1293.11</ele>
        <time>2015-06-08T08:36:42Z</time>
      </trkpt>
      <trkpt lat="45.06489" lon="2.67233">
        <ele>1298.88</ele>
        <time>2015-06-08T08:36:57Z</time>
      </trkpt>
      <trkpt lat="45.06474" lon="2.67234">
        <ele>1302.24</ele>
        <time>2015-06-08T08:37:11Z</time>
      </trkpt>
      <trkpt lat="45.06461" lon="2.67231">
        <ele>1301.28</ele>
        <time>2015-06-08T08:37:23Z</time>
      </trkpt>
      <trkpt lat="45.06453" lon="2.67232">
        <ele>1297.92</ele>
        <time>2015-06-08T08:37:37Z</time>
      </trkpt>
      <trkpt lat="45.06444" lon="2.67235">
        <ele>1295.51</ele>
        <time>2015-06-08T08:37:53Z</time>
      </trkpt>
      <trkpt lat="45.06433" lon="2.6724">
        <ele>1294.07</ele>
        <time>2015-06-08T08:38:07Z</time>
      </trkpt>
      <trkpt lat="45.06426" lon="2.67244">
        <ele>1292.63</ele>
        <time>2015-06-08T08:38:21Z</time>
      </trkpt>
      <trkpt lat="45.06424" lon="2.67254">
        <ele>1289.75</ele>
        <time>2015-06-08T08:38:34Z</time>
      </trkpt>
      <trkpt lat="45.06412" lon="2.67265">
        <ele>1299.84</ele>
        <time>2015-06-08T08:38:49Z</time>
      </trkpt>
      <trkpt lat="45.06399" lon="2.67273">
        <ele>1308.97</ele>
        <time>2015-06-08T08:39:06Z</time>
      </trkpt>
      <trkpt lat="45.06385" lon="2.67282">
        <ele>1313.3</ele>
        <time>2015-06-08T08:39:21Z</time>
      </trkpt>
      <trkpt lat="45.06375" lon="2.67291">
        <ele>1314.26</ele>
        <time>2015-06-08T08:39:36Z</time>
      </trkpt>
      <trkpt lat="45.06367" lon="2.67308">
        <ele>1313.3</ele>
        <time>2015-06-08T08:39:51Z</time>
      </trkpt>
      <trkpt lat="45.06366" lon="2.67317">
        <ele>1314.26</ele>
        <time>2015-06-08T08:40:06Z</time>
      </trkpt>
      <trkpt lat="45.06365" lon="2.67321">
        <ele>1314.74</ele>
        <time>2015-06-08T08:40:08Z</time>
      </trkpt>
      <trkpt lat="45.06357" lon="2.67337">
        <ele>1316.18</ele>
        <time>2015-06-08T08:40:20Z</time>
      </trkpt>
      <trkpt lat="45.06343" lon="2.67356">
        <ele>1320.51</ele>
        <time>2015-06-08T08:40:33Z</time>
      </trkpt>
      <trkpt lat="45.06331" lon="2.67368">
        <ele>1321.47</ele>
        <time>2015-06-08T08:40:49Z</time>
      </trkpt>
      <trkpt lat="45.0632" lon="2.67376">
        <ele>1322.91</ele>
        <time>2015-06-08T08:41:04Z</time>
      </trkpt>
      <trkpt lat="45.06303" lon="2.67384">
        <ele>1326.28</ele>
        <time>2015-06-08T08:41:22Z</time>
      </trkpt>
      <trkpt lat="45.06289" lon="2.67392">
        <ele>1327.72</ele>
        <time>2015-06-08T08:41:39Z</time>
      </trkpt>
      <trkpt lat="45.06282" lon="2.67403">
        <ele>1328.2</ele>
        <time>2015-06-08T08:41:50Z</time>
      </trkpt>
      <trkpt lat="45.06275" lon="2.67416">
        <ele>1327.24</ele>
        <time>2015-06-08T08:42:03Z</time>
      </trkpt>
      <trkpt lat="45.06271" lon="2.67429">
        <ele>1327.24</ele>
        <time>2015-06-08T08:42:16Z</time>
      </trkpt>
      <trkpt lat="45.0627" lon="2.67436">
        <ele>1327.72</ele>
        <time>2015-06-08T08:42:23Z</time>
      </trkpt>
      <trkpt lat="45.06265" lon="2.67454">
        <ele>1330.6</ele>
        <time>2015-06-08T08:42:36Z</time>
      </trkpt>
      <trkpt lat="45.06261" lon="2.67467">
        <ele>1333.01</ele>
        <time>2015-06-08T08:42:49Z</time>
      </trkpt>
      <trkpt lat="45.0625" lon="2.67471">
        <ele>1335.89</ele>
        <time>2015-06-08T08:43:04Z</time>
      </trkpt>
      <trkpt lat="45.06245" lon="2.67473">
        <ele>1335.89</ele>
        <time>2015-06-08T08:43:08Z</time>
      </trkpt>
      <trkpt lat="45.06227" lon="2.67478">
        <ele>1336.37</ele>
        <time>2015-06-08T08:43:20Z</time>
      </trkpt>
      <trkpt lat="45.06212" lon="2.67481">
        <ele>1338.29</ele>
        <time>2015-06-08T08:43:33Z</time>
      </trkpt>
      <trkpt lat="45.06208" lon="2.67484">
        <ele>1339.73</ele>
        <time>2015-06-08T08:43:38Z</time>
      </trkpt>
      <trkpt lat="45.06199" lon="2.67498">
        <ele>1337.81</ele>
        <time>2015-06-08T08:43:53Z</time>
      </trkpt>
      <trkpt lat="45.06188" lon="2.67509">
        <ele>1334.93</ele>
        <time>2015-06-08T08:44:08Z</time>
      </trkpt>
      <trkpt lat="45.06185" lon="2.67513">
        <ele>1333.97</ele>
        <time>2015-06-08T08:44:12Z</time>
      </trkpt>
      <trkpt lat="45.06171" lon="2.67522">
        <ele>1331.56</ele>
        <time>2015-06-08T08:44:25Z</time>
      </trkpt>
      <trkpt lat="45.0617" lon="2.67523">
        <ele>1331.56</ele>
        <time>2015-06-08T08:44:26Z</time>
      </trkpt>
      <trkpt lat="45.06162" lon="2.67528">
        <ele>1331.08</ele>
        <time>2015-06-08T08:44:34Z</time>
      </trkpt>
      <trkpt lat="45.06159" lon="2.6753">
        <ele>1330.6</ele>
        <time>2015-06-08T08:44:37Z</time>
      </trkpt>
      <trkpt lat="45.06155" lon="2.67531">
        <ele>1330.6</ele>
        <time>2015-06-08T08:44:41Z</time>
      </trkpt>
      <trkpt lat="45.0615" lon="2.67538">
        <ele>1331.08</ele>
        <time>2015-06-08T08:44:47Z</time>
      </trkpt>
      <trkpt lat="45.06141" lon="2.67545">
        <ele>1331.56</ele>
        <time>2015-06-08T08:44:58Z</time>
      </trkpt>
      <trkpt lat="45.06128" lon="2.67546">
        <ele>1331.56</ele>
        <time>2015-06-08T08:45:12Z</time>
      </trkpt>
      <trkpt lat="45.06111" lon="2.67549">
        <ele>1330.6</ele>
        <time>2015-06-08T08:45:27Z</time>
      </trkpt>
      <trkpt lat="45.06094" lon="2.67552">
        <ele>1326.28</ele>
        <time>2015-06-08T08:45:43Z</time>
      </trkpt>
      <trkpt lat="45.06081" lon="2.67552">
        <ele>1328.2</ele>
        <time>2015-06-08T08:45:55Z</time>
      </trkpt>
      <trkpt lat="45.06073" lon="2.67551">
        <ele>1328.68</ele>
        <time>2015-06-08T08:46:02Z</time>
      </trkpt>
      <trkpt lat="45.06056" lon="2.67549">
        <ele>1323.87</ele>
        <time>2015-06-08T08:46:19Z</time>
      </trkpt>
      <trkpt lat="45.06047" lon="2.6755">
        <ele>1322.91</ele>
        <time>2015-06-08T08:46:31Z</time>
      </trkpt>
      <trkpt lat="45.06042" lon="2.67556">
        <ele>1322.43</ele>
        <time>2015-06-08T08:46:47Z</time>
      </trkpt>
      <trkpt lat="45.0603" lon="2.67562">
        <ele>1320.03</ele>
        <time>2015-06-08T08:47:02Z</time>
      </trkpt>
      <trkpt lat="45.06017" lon="2.67562">
        <ele>1318.59</ele>
        <time>2015-06-08T08:47:12Z</time>
      </trkpt>
      <trkpt lat="45.05997" lon="2.67558">
        <ele>1323.87</ele>
        <time>2015-06-08T08:47:26Z</time>
      </trkpt>
      <trkpt lat="45.0598" lon="2.67553">
        <ele>1326.76</ele>
        <time>2015-06-08T08:47:41Z</time>
      </trkpt>
      <trkpt lat="45.05975" lon="2.6755">
        <ele>1327.24</ele>
        <time>2015-06-08T08:47:44Z</time>
      </trkpt>
      <trkpt lat="45.05968" lon="2.67546">
        <ele>1326.28</ele>
        <time>2015-06-08T08:48:00Z</time>
      </trkpt>
      <trkpt lat="45.05967" lon="2.67541">
        <ele>1326.28</ele>
        <time>2015-06-08T08:48:06Z</time>
      </trkpt>
      <trkpt lat="45.05965" lon="2.67537">
        <ele>1326.28</ele>
        <time>2015-06-08T08:48:09Z</time>
      </trkpt>
      <trkpt lat="45.05956" lon="2.67527">
        <ele>1322.43</ele>
        <time>2015-06-08T08:48:22Z</time>
      </trkpt>
      <trkpt lat="45.0595" lon="2.67519">
        <ele>1321.47</ele>
        <time>2015-06-08T08:48:33Z</time>
      </trkpt>
      <trkpt lat="45.05939" lon="2.67511">
        <ele>1320.51</ele>
        <time>2015-06-08T08:48:46Z</time>
      </trkpt>
      <trkpt lat="45.05928" lon="2.67504">
        <ele>1315.7</ele>
        <time>2015-06-08T08:48:59Z</time>
      </trkpt>
      <trkpt lat="45.05922" lon="2.67499">
        <ele>1315.22</ele>
        <time>2015-06-08T08:49:05Z</time>
      </trkpt>
      <trkpt lat="45.05913" lon="2.6749">
        <ele>1314.26</ele>
        <time>2015-06-08T08:49:13Z</time>
      </trkpt>
      <trkpt lat="45.05905" lon="2.67486">
        <ele>1313.3</ele>
        <time>2015-06-08T08:49:20Z</time>
      </trkpt>
      <trkpt lat="45.05901" lon="2.67483">
        <ele>1312.82</ele>
        <time>2015-06-08T08:49:24Z</time>
      </trkpt>
      <trkpt lat="45.05892" lon="2.67478">
        <ele>1311.38</ele>
        <time>2015-06-08T08:49:33Z</time>
      </trkpt>
      <trkpt lat="45.05888" lon="2.67473">
        <ele>1309.93</ele>
        <time>2015-06-08T08:49:42Z</time>
      </trkpt>
      <trkpt lat="45.0588" lon="2.6746">
        <ele>1308.49</ele>
        <time>2015-06-08T08:49:52Z</time>
      </trkpt>
      <trkpt lat="45.05874" lon="2.67453">
        <ele>1307.05</ele>
        <time>2015-06-08T08:50:03Z</time>
      </trkpt>
      <trkpt lat="45.05871" lon="2.67449">
        <ele>1306.57</ele>
        <time>2015-06-08T08:50:12Z</time>
      </trkpt>
      <trkpt lat="45.05866" lon="2.67445">
        <ele>1305.13</ele>
        <time>2015-06-08T08:50:17Z</time>
      </trkpt>
      <trkpt lat="45.05863" lon="2.67443">
        <ele>1304.17</ele>
        <time>2015-06-08T08:50:19Z</time>
      </trkpt>
      <trkpt lat="45.05854" lon="2.67438">
        <ele>1304.65</ele>
        <time>2015-06-08T08:50:26Z</time>
      </trkpt>
      <trkpt lat="45.05839" lon="2.67418">
        <ele>1310.41</ele>
        <time>2015-06-08T08:50:38Z</time>
      </trkpt>
      <trkpt lat="45.05837" lon="2.67416">
        <ele>1310.9</ele>
        <time>2015-06-08T08:50:39Z</time>
      </trkpt>
      <trkpt lat="45.05827" lon="2.67403">
        <ele>1312.34</ele>
        <time>2015-06-08T08:50:49Z</time>
      </trkpt>
      <trkpt lat="45.05825" lon="2.67398">
        <ele>1312.82</ele>
        <time>2015-06-08T08:50:54Z</time>
      </trkpt>
      <trkpt lat="45.05818" lon="2.67382">
        <ele>1312.82</ele>
        <time>2015-06-08T08:51:07Z</time>
      </trkpt>
      <trkpt lat="45.05815" lon="2.67378">
        <ele>1312.82</ele>
        <time>2015-06-08T08:51:18Z</time>
      </trkpt>
      <trkpt lat="45.05815" lon="2.67376">
        <ele>1312.82</ele>
        <time>2015-06-08T08:51:32Z</time>
      </trkpt>
      <trkpt lat="45.05813" lon="2.67371">
        <ele>1313.3</ele>
        <time>2015-06-08T08:51:36Z</time>
      </trkpt>
      <trkpt lat="45.05805" lon="2.67358">
        <ele>1313.78</ele>
        <time>2015-06-08T08:51:48Z</time>
      </trkpt>
      <trkpt lat="45.05801" lon="2.67353">
        <ele>1314.26</ele>
        <time>2015-06-08T08:51:53Z</time>
      </trkpt>
      <trkpt lat="45.05797" lon="2.67346">
        <ele>1314.26</ele>
        <time>2015-06-08T08:51:59Z</time>
      </trkpt>
      <trkpt lat="45.0579" lon="2.67335">
        <ele>1313.78</ele>
        <time>2015-06-08T08:52:09Z</time>
      </trkpt>
      <trkpt lat="45.05782" lon="2.67327">
        <ele>1311.38</ele>
        <time>2015-06-08T08:52:20Z</time>
      </trkpt>
      <trkpt lat="45.05768" lon="2.67326">
        <ele>1309.93</ele>
        <time>2015-06-08T08:52:34Z</time>
      </trkpt>
      <trkpt lat="45.05761" lon="2.67321">
        <ele>1309.45</ele>
        <time>2015-06-08T08:52:45Z</time>
      </trkpt>
      <trkpt lat="45.05757" lon="2.67316">
        <ele>1310.9</ele>
        <time>2015-06-08T08:52:58Z</time>
      </trkpt>
      <trkpt lat="45.05751" lon="2.67307">
        <ele>1313.3</ele>
        <time>2015-06-08T08:53:11Z</time>
      </trkpt>
      <trkpt lat="45.05747" lon="2.67302">
        <ele>1316.18</ele>
        <time>2015-06-08T08:53:23Z</time>
      </trkpt>
      <trkpt lat="45.05742" lon="2.67294">
        <ele>1318.59</ele>
        <time>2015-06-08T08:53:35Z</time>
      </trkpt>
      <trkpt lat="45.05735" lon="2.67292">
        <ele>1320.99</ele>
        <time>2015-06-08T08:53:48Z</time>
      </trkpt>
      <trkpt lat="45.05725" lon="2.67292">
        <ele>1323.87</ele>
        <time>2015-06-08T08:54:02Z</time>
      </trkpt>
      <trkpt lat="45.05716" lon="2.67285">
        <ele>1323.87</ele>
        <time>2015-06-08T08:54:14Z</time>
      </trkpt>
      <trkpt lat="45.05702" lon="2.67276">
        <ele>1325.31</ele>
        <time>2015-06-08T08:54:28Z</time>
      </trkpt>
      <trkpt lat="45.05695" lon="2.67265">
        <ele>1326.76</ele>
        <time>2015-06-08T08:54:42Z</time>
      </trkpt>
      <trkpt lat="45.05684" lon="2.67254">
        <ele>1327.24</ele>
        <time>2015-06-08T08:54:55Z</time>
      </trkpt>
      <trkpt lat="45.05674" lon="2.67245">
        <ele>1328.2</ele>
        <time>2015-06-08T08:55:07Z</time>
      </trkpt>
      <trkpt lat="45.05669" lon="2.67243">
        <ele>1327.72</ele>
        <time>2015-06-08T08:55:12Z</time>
      </trkpt>
      <trkpt lat="45.05657" lon="2.67238">
        <ele>1327.24</ele>
        <time>2015-06-08T08:55:25Z</time>
      </trkpt>
      <trkpt lat="45.05647" lon="2.67239">
        <ele>1328.2</ele>
        <time>2015-06-08T08:55:38Z</time>
      </trkpt>
      <trkpt lat="45.05637" lon="2.67238">
        <ele>1328.68</ele>
        <time>2015-06-08T08:55:49Z</time>
      </trkpt>
      <trkpt lat="45.05631" lon="2.67238">
        <ele>1328.68</ele>
        <time>2015-06-08T08:55:56Z</time>
      </trkpt>
      <trkpt lat="45.05616" lon="2.67236">
        <ele>1330.6</ele>
        <time>2015-06-08T08:56:11Z</time>
      </trkpt>
      <trkpt lat="45.05606" lon="2.67237">
        <ele>1329.64</ele>
        <time>2015-06-08T08:56:21Z</time>
      </trkpt>
      <trkpt lat="45.05594" lon="2.67234">
        <ele>1330.6</ele>
        <time>2015-06-08T08:56:33Z</time>
      </trkpt>
      <trkpt lat="45.05583" lon="2.67235">
        <ele>1332.04</ele>
        <time>2015-06-08T08:56:45Z</time>
      </trkpt>
      <trkpt lat="45.05569" lon="2.67232">
        <ele>1333.01</ele>
        <time>2015-06-08T08:57:01Z</time>
      </trkpt>
      <trkpt lat="45.05561" lon="2.67232">
        <ele>1336.85</ele>
        <time>2015-06-08T08:57:13Z</time>
      </trkpt>
      <trkpt lat="45.05547" lon="2.67226">
        <ele>1338.29</ele>
        <time>2015-06-08T08:57:28Z</time>
      </trkpt>
      <trkpt lat="45.05538" lon="2.67219">
        <ele>1338.77</ele>
        <time>2015-06-08T08:57:41Z</time>
      </trkpt>
      <trkpt lat="45.05529" lon="2.67214">
        <ele>1340.22</ele>
        <time>2015-06-08T08:57:54Z</time>
      </trkpt>
      <trkpt lat="45.05523" lon="2.67205">
        <ele>1342.14</ele>
        <time>2015-06-08T08:58:06Z</time>
      </trkpt>
      <trkpt lat="45.05523" lon="2.67204">
        <ele>1342.14</ele>
        <time>2015-06-08T08:58:07Z</time>
      </trkpt>
      <trkpt lat="45.05518" lon="2.67197">
        <ele>1345.02</ele>
        <time>2015-06-08T08:58:19Z</time>
      </trkpt>
      <trkpt lat="45.0551" lon="2.67191">
        <ele>1345.98</ele>
        <time>2015-06-08T08:58:32Z</time>
      </trkpt>
      <trkpt lat="45.05503" lon="2.67186">
        <ele>1348.87</ele>
        <time>2015-06-08T08:58:45Z</time>
      </trkpt>
      <trkpt lat="45.055" lon="2.67175">
        <ele>1350.31</ele>
        <time>2015-06-08T08:58:57Z</time>
      </trkpt>
      <trkpt lat="45.05493" lon="2.67169">
        <ele>1350.79</ele>
        <time>2015-06-08T08:59:11Z</time>
      </trkpt>
      <trkpt lat="45.05485" lon="2.67156">
        <ele>1353.19</ele>
        <time>2015-06-08T08:59:27Z</time>
      </trkpt>
      <trkpt lat="45.05479" lon="2.67151">
        <ele>1353.19</ele>
        <time>2015-06-08T08:59:37Z</time>
      </trkpt>
      <trkpt lat="45.05477" lon="2.67149">
        <ele>1353.19</ele>
        <time>2015-06-08T08:59:40Z</time>
      </trkpt>
      <trkpt lat="45.05474" lon="2.6714">
        <ele>1354.63</ele>
        <time>2015-06-08T08:59:52Z</time>
      </trkpt>
      <trkpt lat="45.05472" lon="2.67128">
        <ele>1355.12</ele>
        <time>2015-06-08T09:00:05Z</time>
      </trkpt>
      <trkpt lat="45.05469" lon="2.67123">
        <ele>1354.63</ele>
        <time>2015-06-08T09:00:17Z</time>
      </trkpt>
      <trkpt lat="45.05468" lon="2.67115">
        <ele>1357.52</ele>
        <time>2015-06-08T09:00:30Z</time>
      </trkpt>
      <trkpt lat="45.0546" lon="2.6711">
        <ele>1359.44</ele>
        <time>2015-06-08T09:00:40Z</time>
      </trkpt>
      <trkpt lat="45.05453" lon="2.67109">
        <ele>1361.84</ele>
        <time>2015-06-08T09:00:53Z</time>
      </trkpt>
      <trkpt lat="45.05448" lon="2.67102">
        <ele>1363.77</ele>
        <time>2015-06-08T09:01:03Z</time>
      </trkpt>
      <trkpt lat="45.05438" lon="2.67099">
        <ele>1363.77</ele>
        <time>2015-06-08T09:01:16Z</time>
      </trkpt>
      <trkpt lat="45.05437" lon="2.67099">
        <ele>1363.77</ele>
        <time>2015-06-08T09:01:17Z</time>
      </trkpt>
      <trkpt lat="45.05427" lon="2.67097">
        <ele>1364.73</ele>
        <time>2015-06-08T09:01:29Z</time>
      </trkpt>
      <trkpt lat="45.05419" lon="2.67093">
        <ele>1364.25</ele>
        <time>2015-06-08T09:01:39Z</time>
      </trkpt>
      <trkpt lat="45.05412" lon="2.67091">
        <ele>1364.73</ele>
        <time>2015-06-08T09:01:48Z</time>
      </trkpt>
      <trkpt lat="45.05401" lon="2.67087">
        <ele>1366.17</ele>
        <time>2015-06-08T09:02:01Z</time>
      </trkpt>
      <trkpt lat="45.05397" lon="2.67084">
        <ele>1367.61</ele>
        <time>2015-06-08T09:02:16Z</time>
      </trkpt>
      <trkpt lat="45.05388" lon="2.67082">
        <ele>1369.05</ele>
        <time>2015-06-08T09:02:33Z</time>
      </trkpt>
      <trkpt lat="45.05378" lon="2.6708">
        <ele>1369.05</ele>
        <time>2015-06-08T09:02:50Z</time>
      </trkpt>
      <trkpt lat="45.05368" lon="2.67076">
        <ele>1370.02</ele>
        <time>2015-06-08T09:03:02Z</time>
      </trkpt>
      <trkpt lat="45.05369" lon="2.67075">
        <ele>1370.02</ele>
        <time>2015-06-08T09:03:03Z</time>
      </trkpt>
      <trkpt lat="45.05367" lon="2.67066">
        <ele>1371.46</ele>
        <time>2015-06-08T09:03:15Z</time>
      </trkpt>
      <trkpt lat="45.05364" lon="2.67053">
        <ele>1373.86</ele>
        <time>2015-06-08T09:03:31Z</time>
      </trkpt>
      <trkpt lat="45.05357" lon="2.6705">
        <ele>1375.3</ele>
        <time>2015-06-08T09:03:45Z</time>
      </trkpt>
      <trkpt lat="45.05353" lon="2.67053">
        <ele>1375.3</ele>
        <time>2015-06-08T09:03:54Z</time>
      </trkpt>
      <trkpt lat="45.05347" lon="2.67055">
        <ele>1377.23</ele>
        <time>2015-06-08T09:04:07Z</time>
      </trkpt>
      <trkpt lat="45.05346" lon="2.67053">
        <ele>1379.15</ele>
        <time>2015-06-08T09:04:22Z</time>
      </trkpt>
      <trkpt lat="45.05342" lon="2.67048">
        <ele>1382.51</ele>
        <time>2015-06-08T09:04:36Z</time>
      </trkpt>
      <trkpt lat="45.05334" lon="2.67046">
        <ele>1382.99</ele>
        <time>2015-06-08T09:04:41Z</time>
      </trkpt>
      <trkpt lat="45.0533" lon="2.67044">
        <ele>1385.88</ele>
        <time>2015-06-08T09:04:55Z</time>
      </trkpt>
      <trkpt lat="45.05325" lon="2.67046">
        <ele>1388.76</ele>
        <time>2015-06-08T09:05:08Z</time>
      </trkpt>
      <trkpt lat="45.05322" lon="2.67045">
        <ele>1389.24</ele>
        <time>2015-06-08T09:05:16Z</time>
      </trkpt>
      <trkpt lat="45.05319" lon="2.67037">
        <ele>1392.13</ele>
        <time>2015-06-08T09:05:26Z</time>
      </trkpt>
      <trkpt lat="45.05312" lon="2.67031">
        <ele>1395.97</ele>
        <time>2015-06-08T09:05:39Z</time>
      </trkpt>
      <trkpt lat="45.05306" lon="2.67027">
        <ele>1399.82</ele>
        <time>2015-06-08T09:05:50Z</time>
      </trkpt>
      <trkpt lat="45.05305" lon="2.67025">
        <ele>1400.78</ele>
        <time>2015-06-08T09:05:52Z</time>
      </trkpt>
      <trkpt lat="45.05296" lon="2.67017">
        <ele>1404.14</ele>
        <time>2015-06-08T09:06:04Z</time>
      </trkpt>
      <trkpt lat="45.05285" lon="2.67011">
        <ele>1405.58</ele>
        <time>2015-06-08T09:06:17Z</time>
      </trkpt>
      <trkpt lat="45.05269" lon="2.67002">
        <ele>1401.26</ele>
        <time>2015-06-08T09:06:30Z</time>
      </trkpt>
      <trkpt lat="45.05259" lon="2.67">
        <ele>1402.7</ele>
        <time>2015-06-08T09:06:41Z</time>
      </trkpt>
      <trkpt lat="45.05254" lon="2.66998">
        <ele>1404.62</ele>
        <time>2015-06-08T09:06:53Z</time>
      </trkpt>
      <trkpt lat="45.05253" lon="2.66995">
        <ele>1406.55</ele>
        <time>2015-06-08T09:07:11Z</time>
      </trkpt>
      <trkpt lat="45.05243" lon="2.66989">
        <ele>1406.55</ele>
        <time>2015-06-08T09:07:24Z</time>
      </trkpt>
      <trkpt lat="45.05237" lon="2.66986">
        <ele>1408.47</ele>
        <time>2015-06-08T09:07:35Z</time>
      </trkpt>
      <trkpt lat="45.05229" lon="2.66983">
        <ele>1408.95</ele>
        <time>2015-06-08T09:07:44Z</time>
      </trkpt>
      <trkpt lat="45.05219" lon="2.66974">
        <ele>1409.91</ele>
        <time>2015-06-08T09:07:57Z</time>
      </trkpt>
      <trkpt lat="45.05204" lon="2.66959">
        <ele>1405.58</ele>
        <time>2015-06-08T09:08:12Z</time>
      </trkpt>
      <trkpt lat="45.05198" lon="2.66948">
        <ele>1403.66</ele>
        <time>2015-06-08T09:08:28Z</time>
      </trkpt>
      <trkpt lat="45.05199" lon="2.66934">
        <ele>1403.18</ele>
        <time>2015-06-08T09:08:43Z</time>
      </trkpt>
      <trkpt lat="45.05194" lon="2.66921">
        <ele>1402.22</ele>
        <time>2015-06-08T09:08:57Z</time>
      </trkpt>
      <trkpt lat="45.05185" lon="2.66907">
        <ele>1403.18</ele>
        <time>2015-06-08T09:09:09Z</time>
      </trkpt>
      <trkpt lat="45.05175" lon="2.66897">
        <ele>1407.03</ele>
        <time>2015-06-08T09:09:22Z</time>
      </trkpt>
      <trkpt lat="45.05168" lon="2.66894">
        <ele>1406.55</ele>
        <time>2015-06-08T09:09:36Z</time>
      </trkpt>
      <trkpt lat="45.05165" lon="2.66886">
        <ele>1407.99</ele>
        <time>2015-06-08T09:09:47Z</time>
      </trkpt>
      <trkpt lat="45.05155" lon="2.66883">
        <ele>1408.95</ele>
        <time>2015-06-08T09:09:58Z</time>
      </trkpt>
      <trkpt lat="45.05153" lon="2.66879">
        <ele>1412.31</ele>
        <time>2015-06-08T09:10:18Z</time>
      </trkpt>
      <trkpt lat="45.05148" lon="2.66878">
        <ele>1413.28</ele>
        <time>2015-06-08T09:10:35Z</time>
      </trkpt>
      <trkpt lat="45.05142" lon="2.66873">
        <ele>1414.24</ele>
        <time>2015-06-08T09:10:46Z</time>
      </trkpt>
      <trkpt lat="45.05135" lon="2.66867">
        <ele>1416.16</ele>
        <time>2015-06-08T09:11:00Z</time>
      </trkpt>
      <trkpt lat="45.05129" lon="2.66856">
        <ele>1417.6</ele>
        <time>2015-06-08T09:11:15Z</time>
      </trkpt>
      <trkpt lat="45.05128" lon="2.66843">
        <ele>1416.64</ele>
        <time>2015-06-08T09:11:29Z</time>
      </trkpt>
      <trkpt lat="45.05126" lon="2.66835">
        <ele>1416.16</ele>
        <time>2015-06-08T09:11:41Z</time>
      </trkpt>
      <trkpt lat="45.0512" lon="2.66828">
        <ele>1417.6</ele>
        <time>2015-06-08T09:11:51Z</time>
      </trkpt>
      <trkpt lat="45.05111" lon="2.66819">
        <ele>1420.97</ele>
        <time>2015-06-08T09:12:04Z</time>
      </trkpt>
      <trkpt lat="45.05099" lon="2.66812">
        <ele>1423.37</ele>
        <time>2015-06-08T09:12:15Z</time>
      </trkpt>
      <trkpt lat="45.05091" lon="2.66807">
        <ele>1427.7</ele>
        <time>2015-06-08T09:12:29Z</time>
      </trkpt>
      <trkpt lat="45.05089" lon="2.66805">
        <ele>1427.7</ele>
        <time>2015-06-08T09:12:53Z</time>
      </trkpt>
      <trkpt lat="45.05088" lon="2.66804">
        <ele>1428.18</ele>
        <time>2015-06-08T09:13:14Z</time>
      </trkpt>
      <trkpt lat="45.05085" lon="2.66795">
        <ele>1429.14</ele>
        <time>2015-06-08T09:13:27Z</time>
      </trkpt>
      <trkpt lat="45.05075" lon="2.66795">
        <ele>1431.06</ele>
        <time>2015-06-08T09:13:40Z</time>
      </trkpt>
      <trkpt lat="45.05073" lon="2.66785">
        <ele>1432.5</ele>
        <time>2015-06-08T09:13:56Z</time>
      </trkpt>
      <trkpt lat="45.05069" lon="2.66779">
        <ele>1435.39</ele>
        <time>2015-06-08T09:14:13Z</time>
      </trkpt>
      <trkpt lat="45.05069" lon="2.66776">
        <ele>1435.87</ele>
        <time>2015-06-08T09:14:26Z</time>
      </trkpt>
      <trkpt lat="45.05066" lon="2.66767">
        <ele>1436.83</ele>
        <time>2015-06-08T09:14:40Z</time>
      </trkpt>
      <trkpt lat="45.05063" lon="2.66766">
        <ele>1437.79</ele>
        <time>2015-06-08T09:14:53Z</time>
      </trkpt>
      <trkpt lat="45.05062" lon="2.66761">
        <ele>1438.27</ele>
        <time>2015-06-08T09:15:07Z</time>
      </trkpt>
      <trkpt lat="45.05062" lon="2.66756">
        <ele>1440.19</ele>
        <time>2015-06-08T09:15:19Z</time>
      </trkpt>
      <trkpt lat="45.05061" lon="2.66756">
        <ele>1441.63</ele>
        <time>2015-06-08T09:15:32Z</time>
      </trkpt>
      <trkpt lat="45.05057" lon="2.66754">
        <ele>1445</ele>
        <time>2015-06-08T09:15:45Z</time>
      </trkpt>
      <trkpt lat="45.05053" lon="2.6675">
        <ele>1446.92</ele>
        <time>2015-06-08T09:15:56Z</time>
      </trkpt>
      <trkpt lat="45.05047" lon="2.66746">
        <ele>1449.81</ele>
        <time>2015-06-08T09:16:09Z</time>
      </trkpt>
      <trkpt lat="45.05046" lon="2.66747">
        <ele>1451.25</ele>
        <time>2015-06-08T09:16:26Z</time>
      </trkpt>
      <trkpt lat="45.05042" lon="2.66746">
        <ele>1456.53</ele>
        <time>2015-06-08T09:16:39Z</time>
      </trkpt>
      <trkpt lat="45.05041" lon="2.66746">
        <ele>1457.98</ele>
        <time>2015-06-08T09:16:53Z</time>
      </trkpt>
      <trkpt lat="45.05037" lon="2.66747">
        <ele>1459.9</ele>
        <time>2015-06-08T09:17:09Z</time>
      </trkpt>
      <trkpt lat="45.0503" lon="2.66745">
        <ele>1467.11</ele>
        <time>2015-06-08T09:17:24Z</time>
      </trkpt>
      <trkpt lat="45.05025" lon="2.66742">
        <ele>1467.59</ele>
        <time>2015-06-08T09:17:37Z</time>
      </trkpt>
      <trkpt lat="45.05019" lon="2.66742">
        <ele>1467.59</ele>
        <time>2015-06-08T09:17:49Z</time>
      </trkpt>
      <trkpt lat="45.05011" lon="2.6674">
        <ele>1469.51</ele>
        <time>2015-06-08T09:18:03Z</time>
      </trkpt>
      <trkpt lat="45.05004" lon="2.66741">
        <ele>1470.95</ele>
        <time>2015-06-08T09:18:18Z</time>
      </trkpt>
      <trkpt lat="45.05" lon="2.66742">
        <ele>1473.84</ele>
        <time>2015-06-08T09:18:32Z</time>
      </trkpt>
      <trkpt lat="45.04994" lon="2.66742">
        <ele>1471.92</ele>
        <time>2015-06-08T09:18:45Z</time>
      </trkpt>
      <trkpt lat="45.04989" lon="2.66742">
        <ele>1470.47</ele>
        <time>2015-06-08T09:18:58Z</time>
      </trkpt>
      <trkpt lat="45.04984" lon="2.6674">
        <ele>1469.03</ele>
        <time>2015-06-08T09:19:16Z</time>
      </trkpt>
      <trkpt lat="45.0498" lon="2.66739">
        <ele>1469.51</ele>
        <time>2015-06-08T09:19:32Z</time>
      </trkpt>
      <trkpt lat="45.04975" lon="2.66736">
        <ele>1468.07</ele>
        <time>2015-06-08T09:19:49Z</time>
      </trkpt>
      <trkpt lat="45.0497" lon="2.66733">
        <ele>1467.11</ele>
        <time>2015-06-08T09:20:03Z</time>
      </trkpt>
      <trkpt lat="45.04968" lon="2.66729">
        <ele>1466.63</ele>
        <time>2015-06-08T09:20:17Z</time>
      </trkpt>
      <trkpt lat="45.04967" lon="2.66722">
        <ele>1466.15</ele>
        <time>2015-06-08T09:20:36Z</time>
      </trkpt>
      <trkpt lat="45.04966" lon="2.66715">
        <ele>1465.67</ele>
        <time>2015-06-08T09:20:51Z</time>
      </trkpt>
      <trkpt lat="45.04965" lon="2.66709">
        <ele>1467.11</ele>
        <time>2015-06-08T09:21:06Z</time>
      </trkpt>
      <trkpt lat="45.04961" lon="2.66709">
        <ele>1469.99</ele>
        <time>2015-06-08T09:21:19Z</time>
      </trkpt>
      <trkpt lat="45.04957" lon="2.66708">
        <ele>1470.47</ele>
        <time>2015-06-08T09:21:32Z</time>
      </trkpt>
      <trkpt lat="45.04956" lon="2.66709">
        <ele>1472.4</ele>
        <time>2015-06-08T09:21:48Z</time>
      </trkpt>
      <trkpt lat="45.04951" lon="2.66707">
        <ele>1472.88</ele>
        <time>2015-06-08T09:22:04Z</time>
      </trkpt>
      <trkpt lat="45.04948" lon="2.66705">
        <ele>1474.32</ele>
        <time>2015-06-08T09:22:18Z</time>
      </trkpt>
      <trkpt lat="45.04942" lon="2.66706">
        <ele>1474.8</ele>
        <time>2015-06-08T09:22:33Z</time>
      </trkpt>
      <trkpt lat="45.04936" lon="2.66703">
        <ele>1474.32</ele>
        <time>2015-06-08T09:22:50Z</time>
      </trkpt>
      <trkpt lat="45.0493" lon="2.66704">
        <ele>1474.32</ele>
        <time>2015-06-08T09:23:03Z</time>
      </trkpt>
      <trkpt lat="45.04924" lon="2.667">
        <ele>1475.76</ele>
        <time>2015-06-08T09:23:17Z</time>
      </trkpt>
      <trkpt lat="45.04918" lon="2.66699">
        <ele>1476.72</ele>
        <time>2015-06-08T09:23:31Z</time>
      </trkpt>
      <trkpt lat="45.04915" lon="2.66698">
        <ele>1478.65</ele>
        <time>2015-06-08T09:23:45Z</time>
      </trkpt>
      <trkpt lat="45.04912" lon="2.66693">
        <ele>1480.57</ele>
        <time>2015-06-08T09:23:57Z</time>
      </trkpt>
      <trkpt lat="45.0491" lon="2.66686">
        <ele>1480.57</ele>
        <time>2015-06-08T09:24:09Z</time>
      </trkpt>
      <trkpt lat="45.04911" lon="2.66681">
        <ele>1482.01</ele>
        <time>2015-06-08T09:24:21Z</time>
      </trkpt>
      <trkpt lat="45.04906" lon="2.66679">
        <ele>1483.45</ele>
        <time>2015-06-08T09:24:31Z</time>
      </trkpt>
      <trkpt lat="45.04905" lon="2.66675">
        <ele>1485.37</ele>
        <time>2015-06-08T09:24:44Z</time>
      </trkpt>
      <trkpt lat="45.04902" lon="2.66667">
        <ele>1487.78</ele>
        <time>2015-06-08T09:24:58Z</time>
      </trkpt>
      <trkpt lat="45.049" lon="2.66663">
        <ele>1487.3</ele>
        <time>2015-06-08T09:25:11Z</time>
      </trkpt>
      <trkpt lat="45.04898" lon="2.66658">
        <ele>1488.74</ele>
        <time>2015-06-08T09:25:24Z</time>
      </trkpt>
      <trkpt lat="45.04895" lon="2.66656">
        <ele>1489.7</ele>
        <time>2015-06-08T09:25:33Z</time>
      </trkpt>
      <trkpt lat="45.04893" lon="2.66659">
        <ele>1489.7</ele>
        <time>2015-06-08T09:25:45Z</time>
      </trkpt>
      <trkpt lat="45.0489" lon="2.66671">
        <ele>1492.58</ele>
        <time>2015-06-08T09:25:58Z</time>
      </trkpt>
      <trkpt lat="45.04886" lon="2.66684">
        <ele>1494.51</ele>
        <time>2015-06-08T09:26:14Z</time>
      </trkpt>
      <trkpt lat="45.04883" lon="2.66689">
        <ele>1495.95</ele>
        <time>2015-06-08T09:26:25Z</time>
      </trkpt>
      <trkpt lat="45.04878" lon="2.66695">
        <ele>1500.27</ele>
        <time>2015-06-08T09:26:37Z</time>
      </trkpt>
      <trkpt lat="45.04876" lon="2.66698">
        <ele>1500.27</ele>
        <time>2015-06-08T09:26:47Z</time>
      </trkpt>
      <trkpt lat="45.04867" lon="2.66704">
        <ele>1500.27</ele>
        <time>2015-06-08T09:26:59Z</time>
      </trkpt>
      <trkpt lat="45.04858" lon="2.66708">
        <ele>1501.72</ele>
        <time>2015-06-08T09:27:09Z</time>
      </trkpt>
      <trkpt lat="45.04855" lon="2.66709">
        <ele>1501.24</ele>
        <time>2015-06-08T09:27:13Z</time>
      </trkpt>
      <trkpt lat="45.04845" lon="2.66712">
        <ele>1498.35</ele>
        <time>2015-06-08T09:27:23Z</time>
      </trkpt>
      <trkpt lat="45.0483" lon="2.66718">
        <ele>1498.83</ele>
        <time>2015-06-08T09:27:38Z</time>
      </trkpt>
      <trkpt lat="45.04827" lon="2.6672">
        <ele>1499.79</ele>
        <time>2015-06-08T09:27:42Z</time>
      </trkpt>
      <trkpt lat="45.04822" lon="2.66723">
        <ele>1498.35</ele>
        <time>2015-06-08T09:27:48Z</time>
      </trkpt>
      <trkpt lat="45.04811" lon="2.66728">
        <ele>1497.39</ele>
        <time>2015-06-08T09:28:00Z</time>
      </trkpt>
      <trkpt lat="45.04805" lon="2.66736">
        <ele>1498.35</ele>
        <time>2015-06-08T09:28:07Z</time>
      </trkpt>
      <trkpt lat="45.04795" lon="2.66743">
        <ele>1500.27</ele>
        <time>2015-06-08T09:28:19Z</time>
      </trkpt>
      <trkpt lat="45.04794" lon="2.66745">
        <ele>1501.24</ele>
        <time>2015-06-08T09:28:22Z</time>
      </trkpt>
      <trkpt lat="45.04785" lon="2.66753">
        <ele>1502.2</ele>
        <time>2015-06-08T09:28:34Z</time>
      </trkpt>
      <trkpt lat="45.04778" lon="2.66757">
        <ele>1504.12</ele>
        <time>2015-06-08T09:28:48Z</time>
      </trkpt>
      <trkpt lat="45.04777" lon="2.66758">
        <ele>1503.64</ele>
        <time>2015-06-08T09:29:05Z</time>
      </trkpt>
      <trkpt lat="45.0477" lon="2.66765">
        <ele>1507.48</ele>
        <time>2015-06-08T09:29:19Z</time>
      </trkpt>
      <trkpt lat="45.04764" lon="2.66769">
        <ele>1508.93</ele>
        <time>2015-06-08T09:29:32Z</time>
      </trkpt>
      <trkpt lat="45.04755" lon="2.66778">
        <ele>1512.29</ele>
        <time>2015-06-08T09:29:48Z</time>
      </trkpt>
      <trkpt lat="45.04748" lon="2.66776">
        <ele>1512.77</ele>
        <time>2015-06-08T09:30:03Z</time>
      </trkpt>
      <trkpt lat="45.04742" lon="2.66777">
        <ele>1514.21</ele>
        <time>2015-06-08T09:30:15Z</time>
      </trkpt>
      <trkpt lat="45.04734" lon="2.66779">
        <ele>1515.18</ele>
        <time>2015-06-08T09:30:28Z</time>
      </trkpt>
      <trkpt lat="45.04725" lon="2.66788">
        <ele>1515.18</ele>
        <time>2015-06-08T09:30:44Z</time>
      </trkpt>
      <trkpt lat="45.04723" lon="2.66789">
        <ele>1516.62</ele>
        <time>2015-06-08T09:30:55Z</time>
      </trkpt>
      <trkpt lat="45.04721" lon="2.66793">
        <ele>1517.58</ele>
        <time>2015-06-08T09:31:05Z</time>
      </trkpt>
      <trkpt lat="45.04716" lon="2.66797">
        <ele>1519.02</ele>
        <time>2015-06-08T09:31:18Z</time>
      </trkpt>
      <trkpt lat="45.04712" lon="2.668">
        <ele>1519.98</ele>
        <time>2015-06-08T09:31:25Z</time>
      </trkpt>
      <trkpt lat="45.04704" lon="2.66803">
        <ele>1521.42</ele>
        <time>2015-06-08T09:31:38Z</time>
      </trkpt>
      <trkpt lat="45.04703" lon="2.66803">
        <ele>1521.9</ele>
        <time>2015-06-08T09:31:39Z</time>
      </trkpt>
      <trkpt lat="45.04692" lon="2.66805">
        <ele>1525.27</ele>
        <time>2015-06-08T09:31:54Z</time>
      </trkpt>
      <trkpt lat="45.04682" lon="2.66806">
        <ele>1524.79</ele>
        <time>2015-06-08T09:32:08Z</time>
      </trkpt>
      <trkpt lat="45.04675" lon="2.66812">
        <ele>1527.19</ele>
        <time>2015-06-08T09:32:22Z</time>
      </trkpt>
      <trkpt lat="45.04672" lon="2.66812">
        <ele>1529.11</ele>
        <time>2015-06-08T09:32:29Z</time>
      </trkpt>
      <trkpt lat="45.04665" lon="2.6681">
        <ele>1529.59</ele>
        <time>2015-06-08T09:32:42Z</time>
      </trkpt>
      <trkpt lat="45.04658" lon="2.66815">
        <ele>1529.59</ele>
        <time>2015-06-08T09:32:56Z</time>
      </trkpt>
      <trkpt lat="45.04652" lon="2.66815">
        <ele>1530.56</ele>
        <time>2015-06-08T09:33:10Z</time>
      </trkpt>
      <trkpt lat="45.04645" lon="2.66818">
        <ele>1532</ele>
        <time>2015-06-08T09:33:24Z</time>
      </trkpt>
      <trkpt lat="45.04644" lon="2.66821">
        <ele>1532</ele>
        <time>2015-06-08T09:33:35Z</time>
      </trkpt>
      <trkpt lat="45.04643" lon="2.66825">
        <ele>1532.96</ele>
        <time>2015-06-08T09:33:48Z</time>
      </trkpt>
      <trkpt lat="45.04644" lon="2.66833">
        <ele>1534.88</ele>
        <time>2015-06-08T09:34:00Z</time>
      </trkpt>
      <trkpt lat="45.04643" lon="2.66837">
        <ele>1536.32</ele>
        <time>2015-06-08T09:34:12Z</time>
      </trkpt>
      <trkpt lat="45.04642" lon="2.66841">
        <ele>1536.32</ele>
        <time>2015-06-08T09:34:24Z</time>
      </trkpt>
      <trkpt lat="45.04642" lon="2.66846">
        <ele>1535.84</ele>
        <time>2015-06-08T09:34:39Z</time>
      </trkpt>
      <trkpt lat="45.04642" lon="2.66847">
        <ele>1536.32</ele>
        <time>2015-06-08T09:34:57Z</time>
      </trkpt>
      <trkpt lat="45.04642" lon="2.66848">
        <ele>1536.32</ele>
        <time>2015-06-08T09:35:21Z</time>
      </trkpt>
      <trkpt lat="45.04642" lon="2.66848">
        <ele>1535.84</ele>
        <time>2015-06-08T09:35:38Z</time>
      </trkpt>
      <trkpt lat="45.04635" lon="2.66852">
        <ele>1535.36</ele>
        <time>2015-06-08T09:35:55Z</time>
      </trkpt>
      <trkpt lat="45.04628" lon="2.66854">
        <ele>1533.44</ele>
        <time>2015-06-08T09:36:07Z</time>
      </trkpt>
      <trkpt lat="45.04622" lon="2.6686">
        <ele>1532.96</ele>
        <time>2015-06-08T09:36:20Z</time>
      </trkpt>
      <trkpt lat="45.04613" lon="2.66863">
        <ele>1532.48</ele>
        <time>2015-06-08T09:36:32Z</time>
      </trkpt>
      <trkpt lat="45.04611" lon="2.66863">
        <ele>1532</ele>
        <time>2015-06-08T09:36:34Z</time>
      </trkpt>
      <trkpt lat="45.04607" lon="2.6686">
        <ele>1531.04</ele>
        <time>2015-06-08T09:36:39Z</time>
      </trkpt>
      <trkpt lat="45.04603" lon="2.66858">
        <ele>1531.04</ele>
        <time>2015-06-08T09:36:44Z</time>
      </trkpt>
      <trkpt lat="45.04592" lon="2.66857">
        <ele>1532.48</ele>
        <time>2015-06-08T09:36:55Z</time>
      </trkpt>
      <trkpt lat="45.04584" lon="2.66854">
        <ele>1532</ele>
        <time>2015-06-08T09:37:04Z</time>
      </trkpt>
      <trkpt lat="45.04577" lon="2.66849">
        <ele>1531.04</ele>
        <time>2015-06-08T09:37:15Z</time>
      </trkpt>
      <trkpt lat="45.04575" lon="2.66848">
        <ele>1531.52</ele>
        <time>2015-06-08T09:37:17Z</time>
      </trkpt>
      <trkpt lat="45.04572" lon="2.66845">
        <ele>1531.04</ele>
        <time>2015-06-08T09:37:22Z</time>
      </trkpt>
      <trkpt lat="45.04562" lon="2.66838">
        <ele>1531.04</ele>
        <time>2015-06-08T09:37:36Z</time>
      </trkpt>
      <trkpt lat="45.04561" lon="2.66838">
        <ele>1532</ele>
        <time>2015-06-08T09:37:50Z</time>
      </trkpt>
      <trkpt lat="45.04557" lon="2.66837">
        <ele>1534.4</ele>
        <time>2015-06-08T09:38:06Z</time>
      </trkpt>
      <trkpt lat="45.04556" lon="2.66836">
        <ele>1534.4</ele>
        <time>2015-06-08T09:38:19Z</time>
      </trkpt>
      <trkpt lat="45.04553" lon="2.6684">
        <ele>1535.84</ele>
        <time>2015-06-08T09:38:35Z</time>
      </trkpt>
      <trkpt lat="45.04544" lon="2.66838">
        <ele>1537.29</ele>
        <time>2015-06-08T09:38:51Z</time>
      </trkpt>
      <trkpt lat="45.04538" lon="2.66839">
        <ele>1538.25</ele>
        <time>2015-06-08T09:39:03Z</time>
      </trkpt>
      <trkpt lat="45.04534" lon="2.66832">
        <ele>1539.69</ele>
        <time>2015-06-08T09:39:18Z</time>
      </trkpt>
      <trkpt lat="45.04527" lon="2.66833">
        <ele>1542.57</ele>
        <time>2015-06-08T09:39:33Z</time>
      </trkpt>
      <trkpt lat="45.04522" lon="2.66833">
        <ele>1543.05</ele>
        <time>2015-06-08T09:39:46Z</time>
      </trkpt>
      <trkpt lat="45.04514" lon="2.66836">
        <ele>1543.05</ele>
        <time>2015-06-08T09:39:59Z</time>
      </trkpt>
      <trkpt lat="45.04506" lon="2.66837">
        <ele>1542.09</ele>
        <time>2015-06-08T09:40:13Z</time>
      </trkpt>
      <trkpt lat="45.04506" lon="2.66837">
        <ele>1542.57</ele>
        <time>2015-06-08T09:40:30Z</time>
      </trkpt>
      <trkpt lat="45.04506" lon="2.66838">
        <ele>1543.05</ele>
        <time>2015-06-08T09:40:49Z</time>
      </trkpt>
      <trkpt lat="45.04507" lon="2.66837">
        <ele>1543.05</ele>
        <time>2015-06-08T09:41:01Z</time>
      </trkpt>
      <trkpt lat="45.04507" lon="2.66837">
        <ele>1543.05</ele>
        <time>2015-06-08T09:41:32Z</time>
      </trkpt>
      <trkpt lat="45.04507" lon="2.66838">
        <ele>1542.57</ele>
        <time>2015-06-08T09:42:03Z</time>
      </trkpt>
      <trkpt lat="45.04507" lon="2.66837">
        <ele>1542.57</ele>
        <time>2015-06-08T09:42:16Z</time>
      </trkpt>
      <trkpt lat="45.04507" lon="2.66837">
        <ele>1542.57</ele>
        <time>2015-06-08T09:42:42Z</time>
      </trkpt>
      <trkpt lat="45.04507" lon="2.66837">
        <ele>1543.05</ele>
        <time>2015-06-08T09:43:12Z</time>
      </trkpt>
      <trkpt lat="45.04506" lon="2.66837">
        <ele>1543.05</ele>
        <time>2015-06-08T09:43:36Z</time>
      </trkpt>
      <trkpt lat="45.04506" lon="2.66836">
        <ele>1543.53</ele>
        <time>2015-06-08T09:44:02Z</time>
      </trkpt>
      <trkpt lat="45.04506" lon="2.66836">
        <ele>1544.01</ele>
        <time>2015-06-08T09:44:32Z</time>
      </trkpt>
      <trkpt lat="45.04506" lon="2.66836">
        <ele>1544.5</ele>
        <time>2015-06-08T09:44:58Z</time>
      </trkpt>
      <trkpt lat="45.04506" lon="2.66836">
        <ele>1544.5</ele>
        <time>2015-06-08T09:45:23Z</time>
      </trkpt>
      <trkpt lat="45.04506" lon="2.66836">
        <ele>1544.5</ele>
        <time>2015-06-08T09:45:43Z</time>
      </trkpt>
      <trkpt lat="45.04506" lon="2.66835">
        <ele>1544.5</ele>
        <time>2015-06-08T09:46:07Z</time>
      </trkpt>
      <trkpt lat="45.04506" lon="2.66835">
        <ele>1544.5</ele>
        <time>2015-06-08T09:46:31Z</time>
      </trkpt>
      <trkpt lat="45.04506" lon="2.66835">
        <ele>1544.5</ele>
        <time>2015-06-08T09:47:03Z</time>
      </trkpt>
      <trkpt lat="45.04506" lon="2.66836">
        <ele>1544.5</ele>
        <time>2015-06-08T09:47:34Z</time>
      </trkpt>
      <trkpt lat="45.04506" lon="2.66836">
        <ele>1544.98</ele>
        <time>2015-06-08T09:48:07Z</time>
      </trkpt>
      <trkpt lat="45.04506" lon="2.66836">
        <ele>1544.98</ele>
        <time>2015-06-08T09:48:37Z</time>
      </trkpt>
      <trkpt lat="45.04506" lon="2.66836">
        <ele>1544.5</ele>
        <time>2015-06-08T09:49:11Z</time>
      </trkpt>
      <trkpt lat="45.04507" lon="2.66836">
        <ele>1544.5</ele>
        <time>2015-06-08T09:49:41Z</time>
      </trkpt>
      <trkpt lat="45.04508" lon="2.66838">
        <ele>1544.5</ele>
        <time>2015-06-08T09:50:02Z</time>
      </trkpt>
      <trkpt lat="45.04509" lon="2.66838">
        <ele>1543.53</ele>
        <time>2015-06-08T09:50:39Z</time>
      </trkpt>
      <trkpt lat="45.04508" lon="2.66837">
        <ele>1543.05</ele>
        <time>2015-06-08T09:51:13Z</time>
      </trkpt>
      <trkpt lat="45.04508" lon="2.66837">
        <ele>1542.57</ele>
        <time>2015-06-08T09:51:49Z</time>
      </trkpt>
      <trkpt lat="45.04507" lon="2.66836">
        <ele>1542.57</ele>
        <time>2015-06-08T09:52:24Z</time>
      </trkpt>
      <trkpt lat="45.04507" lon="2.66836">
        <ele>1542.57</ele>
        <time>2015-06-08T09:53:01Z</time>
      </trkpt>
      <trkpt lat="45.04507" lon="2.66836">
        <ele>1542.57</ele>
        <time>2015-06-08T09:53:33Z</time>
      </trkpt>
      <trkpt lat="45.04507" lon="2.66837">
        <ele>1542.57</ele>
        <time>2015-06-08T09:54:05Z</time>
      </trkpt>
      <trkpt lat="45.04508" lon="2.66837">
        <ele>1543.05</ele>
        <time>2015-06-08T09:54:21Z</time>
      </trkpt>
      <trkpt lat="45.04507" lon="2.66837">
        <ele>1543.05</ele>
        <time>2015-06-08T09:54:38Z</time>
      </trkpt>
      <trkpt lat="45.04507" lon="2.66837">
        <ele>1543.53</ele>
        <time>2015-06-08T09:54:58Z</time>
      </trkpt>
      <trkpt lat="45.04507" lon="2.66837">
        <ele>1543.53</ele>
        <time>2015-06-08T09:55:17Z</time>
      </trkpt>
      <trkpt lat="45.04507" lon="2.66837">
        <ele>1543.53</ele>
        <time>2015-06-08T09:55:32Z</time>
      </trkpt>
      <trkpt lat="45.04507" lon="2.66837">
        <ele>1543.53</ele>
        <time>2015-06-08T09:55:47Z</time>
      </trkpt>
      <trkpt lat="45.04507" lon="2.66837">
        <ele>1543.53</ele>
        <time>2015-06-08T09:56:04Z</time>
      </trkpt>
      <trkpt lat="45.04506" lon="2.66837">
        <ele>1543.53</ele>
        <time>2015-06-08T09:56:34Z</time>
      </trkpt>
      <trkpt lat="45.04506" lon="2.66837">
        <ele>1543.53</ele>
        <time>2015-06-08T09:56:53Z</time>
      </trkpt>
      <trkpt lat="45.04504" lon="2.66838">
        <ele>1543.53</ele>
        <time>2015-06-08T09:57:02Z</time>
      </trkpt>
      <trkpt lat="45.04493" lon="2.66841">
        <ele>1542.09</ele>
        <time>2015-06-08T09:57:13Z</time>
      </trkpt>
      <trkpt lat="45.04492" lon="2.66841">
        <ele>1542.09</ele>
        <time>2015-06-08T09:57:14Z</time>
      </trkpt>
      <trkpt lat="45.04491" lon="2.6684">
        <ele>1541.61</ele>
        <time>2015-06-08T09:57:16Z</time>
      </trkpt>
      <trkpt lat="45.04479" lon="2.66839">
        <ele>1540.65</ele>
        <time>2015-06-08T09:57:28Z</time>
      </trkpt>
      <trkpt lat="45.04467" lon="2.66839">
        <ele>1541.13</ele>
        <time>2015-06-08T09:57:41Z</time>
      </trkpt>
      <trkpt lat="45.0446" lon="2.66837">
        <ele>1540.65</ele>
        <time>2015-06-08T09:57:52Z</time>
      </trkpt>
      <trkpt lat="45.04459" lon="2.66838">
        <ele>1540.65</ele>
        <time>2015-06-08T09:57:53Z</time>
      </trkpt>
      <trkpt lat="45.04451" lon="2.66836">
        <ele>1541.13</ele>
        <time>2015-06-08T09:58:03Z</time>
      </trkpt>
      <trkpt lat="45.04442" lon="2.66832">
        <ele>1541.13</ele>
        <time>2015-06-08T09:58:16Z</time>
      </trkpt>
      <trkpt lat="45.04435" lon="2.6683">
        <ele>1538.73</ele>
        <time>2015-06-08T09:58:27Z</time>
      </trkpt>
      <trkpt lat="45.0443" lon="2.66829">
        <ele>1537.77</ele>
        <time>2015-06-08T09:58:41Z</time>
      </trkpt>
      <trkpt lat="45.04421" lon="2.66828">
        <ele>1535.84</ele>
        <time>2015-06-08T09:58:53Z</time>
      </trkpt>
      <trkpt lat="45.04418" lon="2.66826">
        <ele>1535.36</ele>
        <time>2015-06-08T09:58:57Z</time>
      </trkpt>
      <trkpt lat="45.0441" lon="2.66826">
        <ele>1534.88</ele>
        <time>2015-06-08T09:59:09Z</time>
      </trkpt>
      <trkpt lat="45.04401" lon="2.66827">
        <ele>1533.44</ele>
        <time>2015-06-08T09:59:21Z</time>
      </trkpt>
      <trkpt lat="45.0439" lon="2.6683">
        <ele>1531.04</ele>
        <time>2015-06-08T09:59:34Z</time>
      </trkpt>
      <trkpt lat="45.04387" lon="2.66831">
        <ele>1530.56</ele>
        <time>2015-06-08T09:59:37Z</time>
      </trkpt>
      <trkpt lat="45.0438" lon="2.66833">
        <ele>1529.59</ele>
        <time>2015-06-08T09:59:45Z</time>
      </trkpt>
      <trkpt lat="45.04379" lon="2.66835">
        <ele>1529.11</ele>
        <time>2015-06-08T09:59:48Z</time>
      </trkpt>
      <trkpt lat="45.0437" lon="2.66838">
        <ele>1527.19</ele>
        <time>2015-06-08T10:00:01Z</time>
      </trkpt>
      <trkpt lat="45.04364" lon="2.66836">
        <ele>1525.27</ele>
        <time>2015-06-08T10:00:08Z</time>
      </trkpt>
      <trkpt lat="45.04362" lon="2.66833">
        <ele>1524.79</ele>
        <time>2015-06-08T10:00:11Z</time>
      </trkpt>
      <trkpt lat="45.04352" lon="2.66841">
        <ele>1522.87</ele>
        <time>2015-06-08T10:00:23Z</time>
      </trkpt>
      <trkpt lat="45.0434" lon="2.66848">
        <ele>1519.5</ele>
        <time>2015-06-08T10:00:37Z</time>
      </trkpt>
      <trkpt lat="45.04327" lon="2.66852">
        <ele>1517.1</ele>
        <time>2015-06-08T10:00:49Z</time>
      </trkpt>
      <trkpt lat="45.04319" lon="2.66853">
        <ele>1517.58</ele>
        <time>2015-06-08T10:01:02Z</time>
      </trkpt>
      <trkpt lat="45.04314" lon="2.66855">
        <ele>1517.58</ele>
        <time>2015-06-08T10:01:14Z</time>
      </trkpt>
      <trkpt lat="45.04309" lon="2.66855">
        <ele>1517.1</ele>
        <time>2015-06-08T10:01:26Z</time>
      </trkpt>
      <trkpt lat="45.043" lon="2.66856">
        <ele>1514.69</ele>
        <time>2015-06-08T10:01:38Z</time>
      </trkpt>
      <trkpt lat="45.04298" lon="2.66854">
        <ele>1513.73</ele>
        <time>2015-06-08T10:01:54Z</time>
      </trkpt>
      <trkpt lat="45.04297" lon="2.66854">
        <ele>1513.25</ele>
        <time>2015-06-08T10:02:02Z</time>
      </trkpt>
      <trkpt lat="45.04288" lon="2.66854">
        <ele>1512.77</ele>
        <time>2015-06-08T10:02:10Z</time>
      </trkpt>
      <trkpt lat="45.04274" lon="2.66855">
        <ele>1510.85</ele>
        <time>2015-06-08T10:02:23Z</time>
      </trkpt>
      <trkpt lat="45.04272" lon="2.66855">
        <ele>1510.37</ele>
        <time>2015-06-08T10:02:25Z</time>
      </trkpt>
      <trkpt lat="45.04263" lon="2.66857">
        <ele>1508.45</ele>
        <time>2015-06-08T10:02:34Z</time>
      </trkpt>
      <trkpt lat="45.04254" lon="2.66858">
        <ele>1507.97</ele>
        <time>2015-06-08T10:02:44Z</time>
      </trkpt>
      <trkpt lat="45.04245" lon="2.66859">
        <ele>1508.45</ele>
        <time>2015-06-08T10:02:53Z</time>
      </trkpt>
      <trkpt lat="45.04241" lon="2.66861">
        <ele>1508.45</ele>
        <time>2015-06-08T10:02:56Z</time>
      </trkpt>
      <trkpt lat="45.04239" lon="2.66864">
        <ele>1507.97</ele>
        <time>2015-06-08T10:02:59Z</time>
      </trkpt>
      <trkpt lat="45.04222" lon="2.6687">
        <ele>1506.52</ele>
        <time>2015-06-08T10:03:13Z</time>
      </trkpt>
      <trkpt lat="45.0422" lon="2.66871">
        <ele>1506.52</ele>
        <time>2015-06-08T10:03:15Z</time>
      </trkpt>
      <trkpt lat="45.04205" lon="2.66877">
        <ele>1503.16</ele>
        <time>2015-06-08T10:03:29Z</time>
      </trkpt>
      <trkpt lat="45.04193" lon="2.6688">
        <ele>1500.76</ele>
        <time>2015-06-08T10:03:40Z</time>
      </trkpt>
      <trkpt lat="45.04187" lon="2.66882">
        <ele>1499.79</ele>
        <time>2015-06-08T10:03:46Z</time>
      </trkpt>
      <trkpt lat="45.04174" lon="2.66887">
        <ele>1501.72</ele>
        <time>2015-06-08T10:03:59Z</time>
      </trkpt>
      <trkpt lat="45.04163" lon="2.6689">
        <ele>1501.24</ele>
        <time>2015-06-08T10:04:09Z</time>
      </trkpt>
      <trkpt lat="45.04158" lon="2.66893">
        <ele>1501.24</ele>
        <time>2015-06-08T10:04:21Z</time>
      </trkpt>
      <trkpt lat="45.0415" lon="2.66895">
        <ele>1502.2</ele>
        <time>2015-06-08T10:04:28Z</time>
      </trkpt>
      <trkpt lat="45.04142" lon="2.66897">
        <ele>1501.72</ele>
        <time>2015-06-08T10:04:37Z</time>
      </trkpt>
      <trkpt lat="45.04126" lon="2.66906">
        <ele>1501.24</ele>
        <time>2015-06-08T10:04:52Z</time>
      </trkpt>
      <trkpt lat="45.04118" lon="2.66909">
        <ele>1501.24</ele>
        <time>2015-06-08T10:04:59Z</time>
      </trkpt>
      <trkpt lat="45.04111" lon="2.66913">
        <ele>1503.16</ele>
        <time>2015-06-08T10:05:10Z</time>
      </trkpt>
      <trkpt lat="45.041" lon="2.66921">
        <ele>1504.12</ele>
        <time>2015-06-08T10:05:22Z</time>
      </trkpt>
      <trkpt lat="45.04089" lon="2.66927">
        <ele>1502.68</ele>
        <time>2015-06-08T10:05:34Z</time>
      </trkpt>
      <trkpt lat="45.04087" lon="2.66928">
        <ele>1502.2</ele>
        <time>2015-06-08T10:05:37Z</time>
      </trkpt>
      <trkpt lat="45.04077" lon="2.66936">
        <ele>1501.72</ele>
        <time>2015-06-08T10:05:48Z</time>
      </trkpt>
      <trkpt lat="45.04067" lon="2.66945">
        <ele>1501.72</ele>
        <time>2015-06-08T10:06:00Z</time>
      </trkpt>
      <trkpt lat="45.04056" lon="2.66955">
        <ele>1501.72</ele>
        <time>2015-06-08T10:06:13Z</time>
      </trkpt>
      <trkpt lat="45.04047" lon="2.66967">
        <ele>1500.27</ele>
        <time>2015-06-08T10:06:25Z</time>
      </trkpt>
      <trkpt lat="45.04041" lon="2.66979">
        <ele>1501.24</ele>
        <time>2015-06-08T10:06:36Z</time>
      </trkpt>
      <trkpt lat="45.04034" lon="2.66991">
        <ele>1501.24</ele>
        <time>2015-06-08T10:06:48Z</time>
      </trkpt>
      <trkpt lat="45.04026" lon="2.67005">
        <ele>1502.68</ele>
        <time>2015-06-08T10:07:00Z</time>
      </trkpt>
      <trkpt lat="45.0402" lon="2.67016">
        <ele>1503.16</ele>
        <time>2015-06-08T10:07:11Z</time>
      </trkpt>
      <trkpt lat="45.04011" lon="2.67025">
        <ele>1502.68</ele>
        <time>2015-06-08T10:07:21Z</time>
      </trkpt>
      <trkpt lat="45.04004" lon="2.67034">
        <ele>1502.2</ele>
        <time>2015-06-08T10:07:34Z</time>
      </trkpt>
      <trkpt lat="45.03997" lon="2.67043">
        <ele>1498.35</ele>
        <time>2015-06-08T10:07:46Z</time>
      </trkpt>
      <trkpt lat="45.03989" lon="2.6705">
        <ele>1492.1</ele>
        <time>2015-06-08T10:08:00Z</time>
      </trkpt>
      <trkpt lat="45.03983" lon="2.6706">
        <ele>1491.62</ele>
        <time>2015-06-08T10:08:11Z</time>
      </trkpt>
      <trkpt lat="45.03979" lon="2.67064">
        <ele>1490.18</ele>
        <time>2015-06-08T10:08:15Z</time>
      </trkpt>
      <trkpt lat="45.03977" lon="2.67066">
        <ele>1489.7</ele>
        <time>2015-06-08T10:08:17Z</time>
      </trkpt>
      <trkpt lat="45.03967" lon="2.67076">
        <ele>1485.85</ele>
        <time>2015-06-08T10:08:30Z</time>
      </trkpt>
      <trkpt lat="45.03959" lon="2.67088">
        <ele>1487.3</ele>
        <time>2015-06-08T10:08:43Z</time>
      </trkpt>
      <trkpt lat="45.03949" lon="2.67096">
        <ele>1484.89</ele>
        <time>2015-06-08T10:08:56Z</time>
      </trkpt>
      <trkpt lat="45.03938" lon="2.671">
        <ele>1482.49</ele>
        <time>2015-06-08T10:09:08Z</time>
      </trkpt>
      <trkpt lat="45.03937" lon="2.67101">
        <ele>1482.49</ele>
        <time>2015-06-08T10:09:09Z</time>
      </trkpt>
      <trkpt lat="45.03926" lon="2.67102">
        <ele>1479.61</ele>
        <time>2015-06-08T10:09:23Z</time>
      </trkpt>
      <trkpt lat="45.03922" lon="2.67101">
        <ele>1478.16</ele>
        <time>2015-06-08T10:09:36Z</time>
      </trkpt>
      <trkpt lat="45.03922" lon="2.671">
        <ele>1479.13</ele>
        <time>2015-06-08T10:09:49Z</time>
      </trkpt>
      <trkpt lat="45.03921" lon="2.67099">
        <ele>1479.61</ele>
        <time>2015-06-08T10:10:09Z</time>
      </trkpt>
      <trkpt lat="45.03921" lon="2.67098">
        <ele>1480.09</ele>
        <time>2015-06-08T10:10:22Z</time>
      </trkpt>
      <trkpt lat="45.0392" lon="2.67098">
        <ele>1479.61</ele>
        <time>2015-06-08T10:10:32Z</time>
      </trkpt>
      <trkpt lat="45.03919" lon="2.67098">
        <ele>1480.57</ele>
        <time>2015-06-08T10:10:50Z</time>
      </trkpt>
      <trkpt lat="45.03913" lon="2.6709">
        <ele>1479.61</ele>
        <time>2015-06-08T10:10:59Z</time>
      </trkpt>
      <trkpt lat="45.03906" lon="2.67078">
        <ele>1479.13</ele>
        <time>2015-06-08T10:11:12Z</time>
      </trkpt>
      <trkpt lat="45.03904" lon="2.67074">
        <ele>1479.61</ele>
        <time>2015-06-08T10:11:16Z</time>
      </trkpt>
      <trkpt lat="45.03902" lon="2.67072">
        <ele>1479.61</ele>
        <time>2015-06-08T10:11:19Z</time>
      </trkpt>
      <trkpt lat="45.03893" lon="2.67061">
        <ele>1477.68</ele>
        <time>2015-06-08T10:11:30Z</time>
      </trkpt>
      <trkpt lat="45.03886" lon="2.67052">
        <ele>1476.72</ele>
        <time>2015-06-08T10:11:41Z</time>
      </trkpt>
      <trkpt lat="45.03881" lon="2.67045">
        <ele>1476.24</ele>
        <time>2015-06-08T10:11:48Z</time>
      </trkpt>
      <trkpt lat="45.03873" lon="2.67035">
        <ele>1473.84</ele>
        <time>2015-06-08T10:11:59Z</time>
      </trkpt>
      <trkpt lat="45.03864" lon="2.67024">
        <ele>1471.92</ele>
        <time>2015-06-08T10:12:11Z</time>
      </trkpt>
      <trkpt lat="45.03857" lon="2.67017">
        <ele>1470.95</ele>
        <time>2015-06-08T10:12:23Z</time>
      </trkpt>
      <trkpt lat="45.03855" lon="2.67013">
        <ele>1470.47</ele>
        <time>2015-06-08T10:12:27Z</time>
      </trkpt>
      <trkpt lat="45.03848" lon="2.67001">
        <ele>1469.51</ele>
        <time>2015-06-08T10:12:38Z</time>
      </trkpt>
      <trkpt lat="45.03839" lon="2.66992">
        <ele>1468.55</ele>
        <time>2015-06-08T10:12:48Z</time>
      </trkpt>
      <trkpt lat="45.03836" lon="2.66987">
        <ele>1468.55</ele>
        <time>2015-06-08T10:12:53Z</time>
      </trkpt>
      <trkpt lat="45.0383" lon="2.66982">
        <ele>1467.59</ele>
        <time>2015-06-08T10:13:04Z</time>
      </trkpt>
      <trkpt lat="45.03817" lon="2.66973">
        <ele>1464.71</ele>
        <time>2015-06-08T10:13:17Z</time>
      </trkpt>
      <trkpt lat="45.03809" lon="2.66968">
        <ele>1463.26</ele>
        <time>2015-06-08T10:13:27Z</time>
      </trkpt>
      <trkpt lat="45.03806" lon="2.66968">
        <ele>1461.82</ele>
        <time>2015-06-08T10:13:31Z</time>
      </trkpt>
      <trkpt lat="45.03802" lon="2.66969">
        <ele>1459.9</ele>
        <time>2015-06-08T10:13:38Z</time>
      </trkpt>
      <trkpt lat="45.03798" lon="2.66963">
        <ele>1460.38</ele>
        <time>2015-06-08T10:13:52Z</time>
      </trkpt>
      <trkpt lat="45.03798" lon="2.66963">
        <ele>1460.86</ele>
        <time>2015-06-08T10:14:05Z</time>
      </trkpt>
      <trkpt lat="45.03796" lon="2.6696">
        <ele>1460.86</ele>
        <time>2015-06-08T10:14:17Z</time>
      </trkpt>
      <trkpt lat="45.03788" lon="2.66958">
        <ele>1461.82</ele>
        <time>2015-06-08T10:14:28Z</time>
      </trkpt>
      <trkpt lat="45.03785" lon="2.66958">
        <ele>1460.38</ele>
        <time>2015-06-08T10:14:31Z</time>
      </trkpt>
      <trkpt lat="45.03777" lon="2.66954">
        <ele>1458.46</ele>
        <time>2015-06-08T10:14:43Z</time>
      </trkpt>
      <trkpt lat="45.03768" lon="2.66948">
        <ele>1455.57</ele>
        <time>2015-06-08T10:14:53Z</time>
      </trkpt>
      <trkpt lat="45.03755" lon="2.66942">
        <ele>1454.13</ele>
        <time>2015-06-08T10:15:05Z</time>
      </trkpt>
      <trkpt lat="45.03747" lon="2.66934">
        <ele>1452.69</ele>
        <time>2015-06-08T10:15:16Z</time>
      </trkpt>
      <trkpt lat="45.03733" lon="2.6693">
        <ele>1451.73</ele>
        <time>2015-06-08T10:15:28Z</time>
      </trkpt>
      <trkpt lat="45.03732" lon="2.66929">
        <ele>1451.25</ele>
        <time>2015-06-08T10:15:30Z</time>
      </trkpt>
      <trkpt lat="45.03729" lon="2.66927">
        <ele>1450.29</ele>
        <time>2015-06-08T10:15:33Z</time>
      </trkpt>
      <trkpt lat="45.03725" lon="2.66925">
        <ele>1448.84</ele>
        <time>2015-06-08T10:15:37Z</time>
      </trkpt>
      <trkpt lat="45.03722" lon="2.66923">
        <ele>1447.88</ele>
        <time>2015-06-08T10:15:40Z</time>
      </trkpt>
      <trkpt lat="45.0372" lon="2.6692">
        <ele>1446.44</ele>
        <time>2015-06-08T10:15:43Z</time>
      </trkpt>
      <trkpt lat="45.03717" lon="2.66917">
        <ele>1445</ele>
        <time>2015-06-08T10:15:48Z</time>
      </trkpt>
      <trkpt lat="45.03712" lon="2.66915">
        <ele>1444.52</ele>
        <time>2015-06-08T10:15:53Z</time>
      </trkpt>
      <trkpt lat="45.03704" lon="2.66903">
        <ele>1444.52</ele>
        <time>2015-06-08T10:16:04Z</time>
      </trkpt>
      <trkpt lat="45.03699" lon="2.66897">
        <ele>1443.56</ele>
        <time>2015-06-08T10:16:10Z</time>
      </trkpt>
      <trkpt lat="45.03689" lon="2.66885">
        <ele>1441.15</ele>
        <time>2015-06-08T10:16:23Z</time>
      </trkpt>
      <trkpt lat="45.03688" lon="2.66882">
        <ele>1441.63</ele>
        <time>2015-06-08T10:16:25Z</time>
      </trkpt>
      <trkpt lat="45.0368" lon="2.66872">
        <ele>1440.19</ele>
        <time>2015-06-08T10:16:36Z</time>
      </trkpt>
      <trkpt lat="45.03678" lon="2.66868">
        <ele>1440.19</ele>
        <time>2015-06-08T10:16:39Z</time>
      </trkpt>
      <trkpt lat="45.03669" lon="2.66856">
        <ele>1441.15</ele>
        <time>2015-06-08T10:16:50Z</time>
      </trkpt>
      <trkpt lat="45.03664" lon="2.66843">
        <ele>1441.63</ele>
        <time>2015-06-08T10:17:02Z</time>
      </trkpt>
      <trkpt lat="45.03662" lon="2.66838">
        <ele>1441.63</ele>
        <time>2015-06-08T10:17:06Z</time>
      </trkpt>
      <trkpt lat="45.03657" lon="2.66826">
        <ele>1440.67</ele>
        <time>2015-06-08T10:17:17Z</time>
      </trkpt>
      <trkpt lat="45.03654" lon="2.66816">
        <ele>1440.19</ele>
        <time>2015-06-08T10:17:30Z</time>
      </trkpt>
      <trkpt lat="45.03648" lon="2.66807">
        <ele>1440.67</ele>
        <time>2015-06-08T10:17:39Z</time>
      </trkpt>
      <trkpt lat="45.03642" lon="2.66792">
        <ele>1439.71</ele>
        <time>2015-06-08T10:17:50Z</time>
      </trkpt>
      <trkpt lat="45.0364" lon="2.66784">
        <ele>1439.23</ele>
        <time>2015-06-08T10:17:59Z</time>
      </trkpt>
      <trkpt lat="45.03635" lon="2.66777">
        <ele>1438.27</ele>
        <time>2015-06-08T10:18:13Z</time>
      </trkpt>
      <trkpt lat="45.03636" lon="2.66777">
        <ele>1437.79</ele>
        <time>2015-06-08T10:18:29Z</time>
      </trkpt>
      <trkpt lat="45.03636" lon="2.66777">
        <ele>1436.83</ele>
        <time>2015-06-08T10:18:53Z</time>
      </trkpt>
      <trkpt lat="45.03636" lon="2.66776">
        <ele>1436.35</ele>
        <time>2015-06-08T10:19:14Z</time>
      </trkpt>
      <trkpt lat="45.03636" lon="2.66776">
        <ele>1435.39</ele>
        <time>2015-06-08T10:19:36Z</time>
      </trkpt>
      <trkpt lat="45.03636" lon="2.66775">
        <ele>1434.91</ele>
        <time>2015-06-08T10:20:02Z</time>
      </trkpt>
      <trkpt lat="45.03637" lon="2.66777">
        <ele>1434.91</ele>
        <time>2015-06-08T10:20:25Z</time>
      </trkpt>
      <trkpt lat="45.03637" lon="2.66778">
        <ele>1434.91</ele>
        <time>2015-06-08T10:20:26Z</time>
      </trkpt>
      <trkpt lat="45.03642" lon="2.66783">
        <ele>1435.39</ele>
        <time>2015-06-08T10:20:37Z</time>
      </trkpt>
      <trkpt lat="45.03641" lon="2.66784">
        <ele>1435.87</ele>
        <time>2015-06-08T10:21:02Z</time>
      </trkpt>
      <trkpt lat="45.03642" lon="2.66786">
        <ele>1436.35</ele>
        <time>2015-06-08T10:21:21Z</time>
      </trkpt>
      <trkpt lat="45.03642" lon="2.66785">
        <ele>1436.83</ele>
        <time>2015-06-08T10:21:36Z</time>
      </trkpt>
      <trkpt lat="45.03642" lon="2.66786">
        <ele>1437.31</ele>
        <time>2015-06-08T10:21:58Z</time>
      </trkpt>
      <trkpt lat="45.0364" lon="2.66782">
        <ele>1438.27</ele>
        <time>2015-06-08T10:22:16Z</time>
      </trkpt>
      <trkpt lat="45.03637" lon="2.6678">
        <ele>1438.27</ele>
        <time>2015-06-08T10:22:28Z</time>
      </trkpt>
      <trkpt lat="45.03631" lon="2.66768">
        <ele>1436.83</ele>
        <time>2015-06-08T10:22:40Z</time>
      </trkpt>
      <trkpt lat="45.03622" lon="2.66751">
        <ele>1434.42</ele>
        <time>2015-06-08T10:22:53Z</time>
      </trkpt>
      <trkpt lat="45.03616" lon="2.66735">
        <ele>1434.42</ele>
        <time>2015-06-08T10:23:06Z</time>
      </trkpt>
      <trkpt lat="45.03616" lon="2.66734">
        <ele>1434.42</ele>
        <time>2015-06-08T10:23:07Z</time>
      </trkpt>
      <trkpt lat="45.03609" lon="2.66718">
        <ele>1432.02</ele>
        <time>2015-06-08T10:23:19Z</time>
      </trkpt>
      <trkpt lat="45.03608" lon="2.66714">
        <ele>1432.02</ele>
        <time>2015-06-08T10:23:21Z</time>
      </trkpt>
      <trkpt lat="45.03602" lon="2.66698">
        <ele>1429.62</ele>
        <time>2015-06-08T10:23:34Z</time>
      </trkpt>
      <trkpt lat="45.03597" lon="2.6669">
        <ele>1428.66</ele>
        <time>2015-06-08T10:23:41Z</time>
      </trkpt>
      <trkpt lat="45.03591" lon="2.66675">
        <ele>1425.77</ele>
        <time>2015-06-08T10:23:53Z</time>
      </trkpt>
      <trkpt lat="45.03585" lon="2.66659">
        <ele>1423.85</ele>
        <time>2015-06-08T10:24:05Z</time>
      </trkpt>
      <trkpt lat="45.03583" lon="2.66655">
        <ele>1423.37</ele>
        <time>2015-06-08T10:24:09Z</time>
      </trkpt>
      <trkpt lat="45.03574" lon="2.66638">
        <ele>1422.41</ele>
        <time>2015-06-08T10:24:22Z</time>
      </trkpt>
      <trkpt lat="45.03569" lon="2.66622">
        <ele>1419.04</ele>
        <time>2015-06-08T10:24:35Z</time>
      </trkpt>
      <trkpt lat="45.03563" lon="2.66611">
        <ele>1418.08</ele>
        <time>2015-06-08T10:24:45Z</time>
      </trkpt>
      <trkpt lat="45.03557" lon="2.66597">
        <ele>1416.64</ele>
        <time>2015-06-08T10:24:56Z</time>
      </trkpt>
      <trkpt lat="45.03555" lon="2.66589">
        <ele>1414.72</ele>
        <time>2015-06-08T10:25:01Z</time>
      </trkpt>
      <trkpt lat="45.03553" lon="2.66585">
        <ele>1413.76</ele>
        <time>2015-06-08T10:25:04Z</time>
      </trkpt>
      <trkpt lat="45.03543" lon="2.66566">
        <ele>1408.47</ele>
        <time>2015-06-08T10:25:20Z</time>
      </trkpt>
      <trkpt lat="45.03536" lon="2.6655">
        <ele>1406.55</ele>
        <time>2015-06-08T10:25:33Z</time>
      </trkpt>
      <trkpt lat="45.03531" lon="2.66537">
        <ele>1403.66</ele>
        <time>2015-06-08T10:25:44Z</time>
      </trkpt>
      <trkpt lat="45.03523" lon="2.66527">
        <ele>1401.74</ele>
        <time>2015-06-08T10:25:55Z</time>
      </trkpt>
      <trkpt lat="45.0352" lon="2.66518">
        <ele>1400.3</ele>
        <time>2015-06-08T10:26:01Z</time>
      </trkpt>
      <trkpt lat="45.0352" lon="2.66514">
        <ele>1399.82</ele>
        <time>2015-06-08T10:26:04Z</time>
      </trkpt>
      <trkpt lat="45.03512" lon="2.66498">
        <ele>1396.45</ele>
        <time>2015-06-08T10:26:17Z</time>
      </trkpt>
      <trkpt lat="45.03507" lon="2.66482">
        <ele>1395.01</ele>
        <time>2015-06-08T10:26:29Z</time>
      </trkpt>
      <trkpt lat="45.03506" lon="2.66478">
        <ele>1394.05</ele>
        <time>2015-06-08T10:26:32Z</time>
      </trkpt>
      <trkpt lat="45.03503" lon="2.6647">
        <ele>1394.53</ele>
        <time>2015-06-08T10:26:38Z</time>
      </trkpt>
      <trkpt lat="45.03495" lon="2.66455">
        <ele>1391.65</ele>
        <time>2015-06-08T10:26:52Z</time>
      </trkpt>
      <trkpt lat="45.03488" lon="2.66439">
        <ele>1389.72</ele>
        <time>2015-06-08T10:27:03Z</time>
      </trkpt>
      <trkpt lat="45.03481" lon="2.66423">
        <ele>1388.76</ele>
        <time>2015-06-08T10:27:16Z</time>
      </trkpt>
      <trkpt lat="45.03479" lon="2.66419">
        <ele>1388.28</ele>
        <time>2015-06-08T10:27:20Z</time>
      </trkpt>
      <trkpt lat="45.03472" lon="2.66403">
        <ele>1385.4</ele>
        <time>2015-06-08T10:27:33Z</time>
      </trkpt>
      <trkpt lat="45.03472" lon="2.66399">
        <ele>1385.4</ele>
        <time>2015-06-08T10:27:47Z</time>
      </trkpt>
      <trkpt lat="45.0347" lon="2.664">
        <ele>1385.4</ele>
        <time>2015-06-08T10:27:59Z</time>
      </trkpt>
      <trkpt lat="45.03468" lon="2.66396">
        <ele>1384.92</ele>
        <time>2015-06-08T10:28:12Z</time>
      </trkpt>
      <trkpt lat="45.03467" lon="2.66397">
        <ele>1384.92</ele>
        <time>2015-06-08T10:28:14Z</time>
      </trkpt>
      <trkpt lat="45.03466" lon="2.664">
        <ele>1383.96</ele>
        <time>2015-06-08T10:28:19Z</time>
      </trkpt>
      <trkpt lat="45.03456" lon="2.66411">
        <ele>1385.88</ele>
        <time>2015-06-08T10:28:32Z</time>
      </trkpt>
      <trkpt lat="45.03455" lon="2.66413">
        <ele>1386.36</ele>
        <time>2015-06-08T10:28:37Z</time>
      </trkpt>
      <trkpt lat="45.03446" lon="2.66427">
        <ele>1385.88</ele>
        <time>2015-06-08T10:28:51Z</time>
      </trkpt>
      <trkpt lat="45.0344" lon="2.66433">
        <ele>1385.4</ele>
        <time>2015-06-08T10:28:58Z</time>
      </trkpt>
      <trkpt lat="45.03434" lon="2.66439">
        <ele>1385.4</ele>
        <time>2015-06-08T10:29:06Z</time>
      </trkpt>
      <trkpt lat="45.03424" lon="2.66451">
        <ele>1384.44</ele>
        <time>2015-06-08T10:29:20Z</time>
      </trkpt>
      <trkpt lat="45.03414" lon="2.66462">
        <ele>1382.03</ele>
        <time>2015-06-08T10:29:35Z</time>
      </trkpt>
      <trkpt lat="45.03409" lon="2.66472">
        <ele>1379.63</ele>
        <time>2015-06-08T10:29:48Z</time>
      </trkpt>
      <trkpt lat="45.03408" lon="2.66473">
        <ele>1379.63</ele>
        <time>2015-06-08T10:29:49Z</time>
      </trkpt>
      <trkpt lat="45.03407" lon="2.66475">
        <ele>1378.67</ele>
        <time>2015-06-08T10:30:06Z</time>
      </trkpt>
      <trkpt lat="45.03407" lon="2.66475">
        <ele>1378.67</ele>
        <time>2015-06-08T10:30:34Z</time>
      </trkpt>
      <trkpt lat="45.03404" lon="2.66481">
        <ele>1377.23</ele>
        <time>2015-06-08T10:30:48Z</time>
      </trkpt>
      <trkpt lat="45.034" lon="2.66486">
        <ele>1375.3</ele>
        <time>2015-06-08T10:30:55Z</time>
      </trkpt>
      <trkpt lat="45.03391" lon="2.66495">
        <ele>1370.02</ele>
        <time>2015-06-08T10:31:11Z</time>
      </trkpt>
      <trkpt lat="45.03387" lon="2.66504">
        <ele>1366.17</ele>
        <time>2015-06-08T10:31:23Z</time>
      </trkpt>
      <trkpt lat="45.0338" lon="2.66514">
        <ele>1362.33</ele>
        <time>2015-06-08T10:31:36Z</time>
      </trkpt>
      <trkpt lat="45.03378" lon="2.66516">
        <ele>1362.33</ele>
        <time>2015-06-08T10:31:50Z</time>
      </trkpt>
      <trkpt lat="45.03379" lon="2.66516">
        <ele>1363.29</ele>
        <time>2015-06-08T10:32:08Z</time>
      </trkpt>
      <trkpt lat="45.03376" lon="2.66518">
        <ele>1362.33</ele>
        <time>2015-06-08T10:32:22Z</time>
      </trkpt>
      <trkpt lat="45.03373" lon="2.66522">
        <ele>1360.88</ele>
        <time>2015-06-08T10:32:38Z</time>
      </trkpt>
      <trkpt lat="45.03373" lon="2.66523">
        <ele>1359.92</ele>
        <time>2015-06-08T10:32:51Z</time>
      </trkpt>
      <trkpt lat="45.03373" lon="2.66524">
        <ele>1359.44</ele>
        <time>2015-06-08T10:33:14Z</time>
      </trkpt>
      <trkpt lat="45.03373" lon="2.66524">
        <ele>1358.48</ele>
        <time>2015-06-08T10:33:46Z</time>
      </trkpt>
      <trkpt lat="45.03373" lon="2.66525">
        <ele>1358.48</ele>
        <time>2015-06-08T10:34:11Z</time>
      </trkpt>
      <trkpt lat="45.03373" lon="2.66526">
        <ele>1358</ele>
        <time>2015-06-08T10:34:31Z</time>
      </trkpt>
      <trkpt lat="45.03371" lon="2.6653">
        <ele>1356.08</ele>
        <time>2015-06-08T10:34:43Z</time>
      </trkpt>
      <trkpt lat="45.03369" lon="2.66542">
        <ele>1355.12</ele>
        <time>2015-06-08T10:34:54Z</time>
      </trkpt>
      <trkpt lat="45.03371" lon="2.66552">
        <ele>1354.63</ele>
        <time>2015-06-08T10:35:06Z</time>
      </trkpt>
      <trkpt lat="45.03368" lon="2.66562">
        <ele>1355.12</ele>
        <time>2015-06-08T10:35:19Z</time>
      </trkpt>
      <trkpt lat="45.03367" lon="2.66565">
        <ele>1354.63</ele>
        <time>2015-06-08T10:35:30Z</time>
      </trkpt>
      <trkpt lat="45.03366" lon="2.66567">
        <ele>1353.19</ele>
        <time>2015-06-08T10:35:47Z</time>
      </trkpt>
      <trkpt lat="45.03366" lon="2.66567">
        <ele>1351.75</ele>
        <time>2015-06-08T10:36:07Z</time>
      </trkpt>
      <trkpt lat="45.03368" lon="2.66569">
        <ele>1352.23</ele>
        <time>2015-06-08T10:36:20Z</time>
      </trkpt>
      <trkpt lat="45.03369" lon="2.6657">
        <ele>1352.23</ele>
        <time>2015-06-08T10:36:37Z</time>
      </trkpt>
      <trkpt lat="45.03369" lon="2.6657">
        <ele>1351.75</ele>
        <time>2015-06-08T10:36:59Z</time>
      </trkpt>
      <trkpt lat="45.0337" lon="2.66571">
        <ele>1351.75</ele>
        <time>2015-06-08T10:37:20Z</time>
      </trkpt>
      <trkpt lat="45.03369" lon="2.66573">
        <ele>1351.75</ele>
        <time>2015-06-08T10:37:41Z</time>
      </trkpt>
      <trkpt lat="45.03369" lon="2.66573">
        <ele>1351.75</ele>
        <time>2015-06-08T10:37:59Z</time>
      </trkpt>
      <trkpt lat="45.0337" lon="2.66578">
        <ele>1352.23</ele>
        <time>2015-06-08T10:38:12Z</time>
      </trkpt>
      <trkpt lat="45.0337" lon="2.66584">
        <ele>1351.75</ele>
        <time>2015-06-08T10:38:25Z</time>
      </trkpt>
      <trkpt lat="45.03368" lon="2.66591">
        <ele>1352.23</ele>
        <time>2015-06-08T10:38:40Z</time>
      </trkpt>
      <trkpt lat="45.03369" lon="2.66597">
        <ele>1352.71</ele>
        <time>2015-06-08T10:38:45Z</time>
      </trkpt>
      <trkpt lat="45.0337" lon="2.6661">
        <ele>1353.67</ele>
        <time>2015-06-08T10:38:59Z</time>
      </trkpt>
      <trkpt lat="45.03368" lon="2.66621">
        <ele>1355.12</ele>
        <time>2015-06-08T10:39:12Z</time>
      </trkpt>
      <trkpt lat="45.03367" lon="2.66624">
        <ele>1356.08</ele>
        <time>2015-06-08T10:39:16Z</time>
      </trkpt>
      <trkpt lat="45.03364" lon="2.66632">
        <ele>1356.08</ele>
        <time>2015-06-08T10:39:23Z</time>
      </trkpt>
      <trkpt lat="45.03361" lon="2.6664">
        <ele>1355.6</ele>
        <time>2015-06-08T10:39:30Z</time>
      </trkpt>
      <trkpt lat="45.03359" lon="2.66642">
        <ele>1354.63</ele>
        <time>2015-06-08T10:39:32Z</time>
      </trkpt>
      <trkpt lat="45.03348" lon="2.66658">
        <ele>1353.67</ele>
        <time>2015-06-08T10:39:48Z</time>
      </trkpt>
      <trkpt lat="45.03347" lon="2.66663">
        <ele>1353.19</ele>
        <time>2015-06-08T10:39:52Z</time>
      </trkpt>
      <trkpt lat="45.03337" lon="2.66679">
        <ele>1351.27</ele>
        <time>2015-06-08T10:40:09Z</time>
      </trkpt>
      <trkpt lat="45.03335" lon="2.66689">
        <ele>1350.79</ele>
        <time>2015-06-08T10:40:21Z</time>
      </trkpt>
      <trkpt lat="45.03335" lon="2.6669">
        <ele>1351.27</ele>
        <time>2015-06-08T10:40:22Z</time>
      </trkpt>
      <trkpt lat="45.03332" lon="2.66698">
        <ele>1350.79</ele>
        <time>2015-06-08T10:40:29Z</time>
      </trkpt>
      <trkpt lat="45.03326" lon="2.66704">
        <ele>1350.31</ele>
        <time>2015-06-08T10:40:36Z</time>
      </trkpt>
      <trkpt lat="45.03323" lon="2.66708">
        <ele>1349.35</ele>
        <time>2015-06-08T10:40:40Z</time>
      </trkpt>
      <trkpt lat="45.03321" lon="2.66728">
        <ele>1348.87</ele>
        <time>2015-06-08T10:40:55Z</time>
      </trkpt>
      <trkpt lat="45.0332" lon="2.66732">
        <ele>1348.39</ele>
        <time>2015-06-08T10:40:59Z</time>
      </trkpt>
      <trkpt lat="45.03317" lon="2.66745">
        <ele>1347.43</ele>
        <time>2015-06-08T10:41:11Z</time>
      </trkpt>
      <trkpt lat="45.03318" lon="2.66752">
        <ele>1347.91</ele>
        <time>2015-06-08T10:41:22Z</time>
      </trkpt>
      <trkpt lat="45.03318" lon="2.66756">
        <ele>1348.39</ele>
        <time>2015-06-08T10:41:34Z</time>
      </trkpt>
      <trkpt lat="45.03318" lon="2.66762">
        <ele>1348.87</ele>
        <time>2015-06-08T10:41:51Z</time>
      </trkpt>
      <trkpt lat="45.03317" lon="2.66765">
        <ele>1349.35</ele>
        <time>2015-06-08T10:41:54Z</time>
      </trkpt>
      <trkpt lat="45.03313" lon="2.66772">
        <ele>1350.31</ele>
        <time>2015-06-08T10:42:01Z</time>
      </trkpt>
      <trkpt lat="45.0331" lon="2.66777">
        <ele>1348.87</ele>
        <time>2015-06-08T10:42:14Z</time>
      </trkpt>
      <trkpt lat="45.03308" lon="2.6678">
        <ele>1347.43</ele>
        <time>2015-06-08T10:42:26Z</time>
      </trkpt>
      <trkpt lat="45.03306" lon="2.66785">
        <ele>1347.43</ele>
        <time>2015-06-08T10:42:37Z</time>
      </trkpt>
      <trkpt lat="45.0331" lon="2.66788">
        <ele>1348.87</ele>
        <time>2015-06-08T10:42:51Z</time>
      </trkpt>
      <trkpt lat="45.03312" lon="2.66798">
        <ele>1352.23</ele>
        <time>2015-06-08T10:43:07Z</time>
      </trkpt>
      <trkpt lat="45.03311" lon="2.66803">
        <ele>1353.19</ele>
        <time>2015-06-08T10:43:21Z</time>
      </trkpt>
      <trkpt lat="45.03311" lon="2.66809">
        <ele>1353.67</ele>
        <time>2015-06-08T10:43:36Z</time>
      </trkpt>
      <trkpt lat="45.03312" lon="2.6681">
        <ele>1354.63</ele>
        <time>2015-06-08T10:43:48Z</time>
      </trkpt>
      <trkpt lat="45.03314" lon="2.66816">
        <ele>1354.63</ele>
        <time>2015-06-08T10:44:00Z</time>
      </trkpt>
      <trkpt lat="45.03312" lon="2.66824">
        <ele>1353.19</ele>
        <time>2015-06-08T10:44:12Z</time>
      </trkpt>
      <trkpt lat="45.03315" lon="2.66833">
        <ele>1353.67</ele>
        <time>2015-06-08T10:44:26Z</time>
      </trkpt>
      <trkpt lat="45.03314" lon="2.66847">
        <ele>1353.19</ele>
        <time>2015-06-08T10:44:40Z</time>
      </trkpt>
      <trkpt lat="45.03316" lon="2.66855">
        <ele>1351.75</ele>
        <time>2015-06-08T10:44:52Z</time>
      </trkpt>
      <trkpt lat="45.03316" lon="2.66866">
        <ele>1351.27</ele>
        <time>2015-06-08T10:45:05Z</time>
      </trkpt>
      <trkpt lat="45.03316" lon="2.66869">
        <ele>1351.27</ele>
        <time>2015-06-08T10:45:07Z</time>
      </trkpt>
      <trkpt lat="45.03317" lon="2.66876">
        <ele>1353.19</ele>
        <time>2015-06-08T10:45:19Z</time>
      </trkpt>
      <trkpt lat="45.03319" lon="2.66879">
        <ele>1353.67</ele>
        <time>2015-06-08T10:45:31Z</time>
      </trkpt>
      <trkpt lat="45.03321" lon="2.66887">
        <ele>1355.6</ele>
        <time>2015-06-08T10:45:45Z</time>
      </trkpt>
      <trkpt lat="45.03326" lon="2.66899">
        <ele>1358.48</ele>
        <time>2015-06-08T10:45:59Z</time>
      </trkpt>
      <trkpt lat="45.03327" lon="2.66905">
        <ele>1358</ele>
        <time>2015-06-08T10:46:05Z</time>
      </trkpt>
      <trkpt lat="45.03328" lon="2.6692">
        <ele>1357.04</ele>
        <time>2015-06-08T10:46:19Z</time>
      </trkpt>
      <trkpt lat="45.03328" lon="2.6693">
        <ele>1355.6</ele>
        <time>2015-06-08T10:46:31Z</time>
      </trkpt>
      <trkpt lat="45.0333" lon="2.66942">
        <ele>1356.08</ele>
        <time>2015-06-08T10:46:44Z</time>
      </trkpt>
      <trkpt lat="45.03332" lon="2.6695">
        <ele>1356.08</ele>
        <time>2015-06-08T10:46:56Z</time>
      </trkpt>
      <trkpt lat="45.03331" lon="2.66952">
        <ele>1355.6</ele>
        <time>2015-06-08T10:47:01Z</time>
      </trkpt>
      <trkpt lat="45.03329" lon="2.66964">
        <ele>1354.15</ele>
        <time>2015-06-08T10:47:14Z</time>
      </trkpt>
      <trkpt lat="45.0333" lon="2.66969">
        <ele>1353.19</ele>
        <time>2015-06-08T10:47:17Z</time>
      </trkpt>
      <trkpt lat="45.03331" lon="2.66981">
        <ele>1352.23</ele>
        <time>2015-06-08T10:47:31Z</time>
      </trkpt>
      <trkpt lat="45.03333" lon="2.66994">
        <ele>1350.79</ele>
        <time>2015-06-08T10:47:45Z</time>
      </trkpt>
      <trkpt lat="45.03341" lon="2.66997">
        <ele>1349.83</ele>
        <time>2015-06-08T10:47:55Z</time>
      </trkpt>
      <trkpt lat="45.03344" lon="2.67">
        <ele>1350.79</ele>
        <time>2015-06-08T10:48:08Z</time>
      </trkpt>
      <trkpt lat="45.03342" lon="2.67011">
        <ele>1349.83</ele>
        <time>2015-06-08T10:48:20Z</time>
      </trkpt>
      <trkpt lat="45.0334" lon="2.67012">
        <ele>1350.31</ele>
        <time>2015-06-08T10:48:24Z</time>
      </trkpt>
      <trkpt lat="45.03335" lon="2.67023">
        <ele>1349.83</ele>
        <time>2015-06-08T10:48:33Z</time>
      </trkpt>
      <trkpt lat="45.03336" lon="2.67027">
        <ele>1347.91</ele>
        <time>2015-06-08T10:48:42Z</time>
      </trkpt>
      <trkpt lat="45.03335" lon="2.6703">
        <ele>1345.98</ele>
        <time>2015-06-08T10:48:52Z</time>
      </trkpt>
      <trkpt lat="45.03339" lon="2.67036">
        <ele>1344.06</ele>
        <time>2015-06-08T10:49:03Z</time>
      </trkpt>
      <trkpt lat="45.03337" lon="2.67037">
        <ele>1343.58</ele>
        <time>2015-06-08T10:49:06Z</time>
      </trkpt>
      <trkpt lat="45.03332" lon="2.67039">
        <ele>1343.58</ele>
        <time>2015-06-08T10:49:11Z</time>
      </trkpt>
      <trkpt lat="45.03323" lon="2.67041">
        <ele>1340.22</ele>
        <time>2015-06-08T10:49:22Z</time>
      </trkpt>
      <trkpt lat="45.03321" lon="2.67041">
        <ele>1338.29</ele>
        <time>2015-06-08T10:49:25Z</time>
      </trkpt>
      <trkpt lat="45.03317" lon="2.6704">
        <ele>1336.85</ele>
        <time>2015-06-08T10:49:29Z</time>
      </trkpt>
      <trkpt lat="45.0331" lon="2.67042">
        <ele>1334.93</ele>
        <time>2015-06-08T10:49:36Z</time>
      </trkpt>
      <trkpt lat="45.03304" lon="2.67046">
        <ele>1333.97</ele>
        <time>2015-06-08T10:49:43Z</time>
      </trkpt>
      <trkpt lat="45.03296" lon="2.67055">
        <ele>1330.6</ele>
        <time>2015-06-08T10:49:57Z</time>
      </trkpt>
      <trkpt lat="45.03295" lon="2.67055">
        <ele>1330.12</ele>
        <time>2015-06-08T10:49:58Z</time>
      </trkpt>
      <trkpt lat="45.03288" lon="2.67069">
        <ele>1327.24</ele>
        <time>2015-06-08T10:50:12Z</time>
      </trkpt>
      <trkpt lat="45.03285" lon="2.67071">
        <ele>1326.76</ele>
        <time>2015-06-08T10:50:15Z</time>
      </trkpt>
      <trkpt lat="45.0328" lon="2.67075">
        <ele>1324.35</ele>
        <time>2015-06-08T10:50:29Z</time>
      </trkpt>
      <trkpt lat="45.0328" lon="2.67075">
        <ele>1324.35</ele>
        <time>2015-06-08T10:50:30Z</time>
      </trkpt>
      <trkpt lat="45.0328" lon="2.67075">
        <ele>1324.35</ele>
        <time>2015-06-08T10:50:42Z</time>
      </trkpt>
      <trkpt lat="45.0328" lon="2.67076">
        <ele>1324.35</ele>
        <time>2015-06-08T10:51:05Z</time>
      </trkpt>
      <trkpt lat="45.0328" lon="2.67076">
        <ele>1323.87</ele>
        <time>2015-06-08T10:51:30Z</time>
      </trkpt>
      <trkpt lat="45.0328" lon="2.67076">
        <ele>1323.87</ele>
        <time>2015-06-08T10:51:55Z</time>
      </trkpt>
      <trkpt lat="45.0328" lon="2.67077">
        <ele>1323.87</ele>
        <time>2015-06-08T10:52:29Z</time>
      </trkpt>
      <trkpt lat="45.0328" lon="2.67077">
        <ele>1322.91</ele>
        <time>2015-06-08T10:52:58Z</time>
      </trkpt>
      <trkpt lat="45.0328" lon="2.67077">
        <ele>1322.91</ele>
        <time>2015-06-08T10:53:38Z</time>
      </trkpt>
      <trkpt lat="45.0328" lon="2.67078">
        <ele>1322.43</ele>
        <time>2015-06-08T10:54:09Z</time>
      </trkpt>
      <trkpt lat="45.03281" lon="2.67078">
        <ele>1321.95</ele>
        <time>2015-06-08T10:54:44Z</time>
      </trkpt>
      <trkpt lat="45.03281" lon="2.67078">
        <ele>1321.47</ele>
        <time>2015-06-08T10:55:19Z</time>
      </trkpt>
      <trkpt lat="45.03281" lon="2.67077">
        <ele>1321.95</ele>
        <time>2015-06-08T10:55:55Z</time>
      </trkpt>
      <trkpt lat="45.03281" lon="2.67077">
        <ele>1323.39</ele>
        <time>2015-06-08T10:56:32Z</time>
      </trkpt>
      <trkpt lat="45.03281" lon="2.67077">
        <ele>1323.87</ele>
        <time>2015-06-08T10:57:05Z</time>
      </trkpt>
      <trkpt lat="45.0328" lon="2.67077">
        <ele>1324.35</ele>
        <time>2015-06-08T10:57:40Z</time>
      </trkpt>
      <trkpt lat="45.0328" lon="2.67076">
        <ele>1324.35</ele>
        <time>2015-06-08T10:58:16Z</time>
      </trkpt>
      <trkpt lat="45.03279" lon="2.67076">
        <ele>1324.35</ele>
        <time>2015-06-08T10:58:51Z</time>
      </trkpt>
      <trkpt lat="45.03279" lon="2.67077">
        <ele>1323.39</ele>
        <time>2015-06-08T10:59:25Z</time>
      </trkpt>
      <trkpt lat="45.03279" lon="2.67076">
        <ele>1323.39</ele>
        <time>2015-06-08T11:00:02Z</time>
      </trkpt>
      <trkpt lat="45.0328" lon="2.67077">
        <ele>1323.87</ele>
        <time>2015-06-08T11:00:21Z</time>
      </trkpt>
      <trkpt lat="45.03279" lon="2.67077">
        <ele>1323.87</ele>
        <time>2015-06-08T11:00:52Z</time>
      </trkpt>
      <trkpt lat="45.03279" lon="2.67077">
        <ele>1323.87</ele>
        <time>2015-06-08T11:01:26Z</time>
      </trkpt>
      <trkpt lat="45.03279" lon="2.67077">
        <ele>1323.87</ele>
        <time>2015-06-08T11:02:02Z</time>
      </trkpt>
      <trkpt lat="45.03279" lon="2.67078">
        <ele>1323.87</ele>
        <time>2015-06-08T11:02:26Z</time>
      </trkpt>
      <trkpt lat="45.03279" lon="2.67078">
        <ele>1324.83</ele>
        <time>2015-06-08T11:02:58Z</time>
      </trkpt>
      <trkpt lat="45.03279" lon="2.67077">
        <ele>1324.83</ele>
        <time>2015-06-08T11:03:34Z</time>
      </trkpt>
      <trkpt lat="45.03279" lon="2.67078">
        <ele>1325.31</ele>
        <time>2015-06-08T11:04:02Z</time>
      </trkpt>
      <trkpt lat="45.03279" lon="2.67077">
        <ele>1324.35</ele>
        <time>2015-06-08T11:04:37Z</time>
      </trkpt>
      <trkpt lat="45.03279" lon="2.67076">
        <ele>1324.83</ele>
        <time>2015-06-08T11:05:07Z</time>
      </trkpt>
      <trkpt lat="45.0328" lon="2.67076">
        <ele>1325.31</ele>
        <time>2015-06-08T11:05:16Z</time>
      </trkpt>
      <trkpt lat="45.0328" lon="2.67075">
        <ele>1325.31</ele>
        <time>2015-06-08T11:05:27Z</time>
      </trkpt>
      <trkpt lat="45.0328" lon="2.67076">
        <ele>1325.31</ele>
        <time>2015-06-08T11:05:39Z</time>
      </trkpt>
      <trkpt lat="45.0328" lon="2.67076">
        <ele>1325.8</ele>
        <time>2015-06-08T11:05:52Z</time>
      </trkpt>
      <trkpt lat="45.0328" lon="2.67075">
        <ele>1325.31</ele>
        <time>2015-06-08T11:06:03Z</time>
      </trkpt>
      <trkpt lat="45.0328" lon="2.67076">
        <ele>1325.31</ele>
        <time>2015-06-08T11:06:17Z</time>
      </trkpt>
      <trkpt lat="45.03275" lon="2.67076">
        <ele>1324.83</ele>
        <time>2015-06-08T11:06:29Z</time>
      </trkpt>
      <trkpt lat="45.03274" lon="2.67077">
        <ele>1324.35</ele>
        <time>2015-06-08T11:06:31Z</time>
      </trkpt>
      <trkpt lat="45.03261" lon="2.67084">
        <ele>1321.95</ele>
        <time>2015-06-08T11:06:44Z</time>
      </trkpt>
      <trkpt lat="45.03248" lon="2.6709">
        <ele>1319.07</ele>
        <time>2015-06-08T11:06:58Z</time>
      </trkpt>
      <trkpt lat="45.03246" lon="2.67091">
        <ele>1318.59</ele>
        <time>2015-06-08T11:07:01Z</time>
      </trkpt>
      <trkpt lat="45.03233" lon="2.67095">
        <ele>1318.1</ele>
        <time>2015-06-08T11:07:16Z</time>
      </trkpt>
      <trkpt lat="45.03233" lon="2.67096">
        <ele>1319.07</ele>
        <time>2015-06-08T11:07:28Z</time>
      </trkpt>
      <trkpt lat="45.03232" lon="2.67097">
        <ele>1320.03</ele>
        <time>2015-06-08T11:07:43Z</time>
      </trkpt>
      <trkpt lat="45.03225" lon="2.67099">
        <ele>1320.51</ele>
        <time>2015-06-08T11:07:53Z</time>
      </trkpt>
      <trkpt lat="45.03211" lon="2.67104">
        <ele>1319.07</ele>
        <time>2015-06-08T11:08:05Z</time>
      </trkpt>
      <trkpt lat="45.03201" lon="2.67106">
        <ele>1317.62</ele>
        <time>2015-06-08T11:08:14Z</time>
      </trkpt>
      <trkpt lat="45.03189" lon="2.67108">
        <ele>1316.66</ele>
        <time>2015-06-08T11:08:27Z</time>
      </trkpt>
      <trkpt lat="45.03177" lon="2.67111">
        <ele>1315.7</ele>
        <time>2015-06-08T11:08:40Z</time>
      </trkpt>
      <trkpt lat="45.03167" lon="2.67115">
        <ele>1314.26</ele>
        <time>2015-06-08T11:08:51Z</time>
      </trkpt>
      <trkpt lat="45.03155" lon="2.67118">
        <ele>1313.78</ele>
        <time>2015-06-08T11:09:05Z</time>
      </trkpt>
      <trkpt lat="45.03153" lon="2.67118">
        <ele>1312.82</ele>
        <time>2015-06-08T11:09:08Z</time>
      </trkpt>
      <trkpt lat="45.03147" lon="2.67119">
        <ele>1313.3</ele>
        <time>2015-06-08T11:09:14Z</time>
      </trkpt>
      <trkpt lat="45.03134" lon="2.67124">
        <ele>1313.3</ele>
        <time>2015-06-08T11:09:26Z</time>
      </trkpt>
      <trkpt lat="45.03124" lon="2.67127">
        <ele>1310.9</ele>
        <time>2015-06-08T11:09:37Z</time>
      </trkpt>
      <trkpt lat="45.03123" lon="2.67131">
        <ele>1310.41</ele>
        <time>2015-06-08T11:09:40Z</time>
      </trkpt>
      <trkpt lat="45.03124" lon="2.67152">
        <ele>1306.57</ele>
        <time>2015-06-08T11:09:56Z</time>
      </trkpt>
      <trkpt lat="45.03125" lon="2.67161">
        <ele>1304.17</ele>
        <time>2015-06-08T11:10:07Z</time>
      </trkpt>
      <trkpt lat="45.03128" lon="2.67176">
        <ele>1299.36</ele>
        <time>2015-06-08T11:10:22Z</time>
      </trkpt>
      <trkpt lat="45.0313" lon="2.6718">
        <ele>1297.44</ele>
        <time>2015-06-08T11:10:26Z</time>
      </trkpt>
      <trkpt lat="45.03139" lon="2.67192">
        <ele>1293.11</ele>
        <time>2015-06-08T11:10:41Z</time>
      </trkpt>
      <trkpt lat="45.03141" lon="2.67194">
        <ele>1292.63</ele>
        <time>2015-06-08T11:10:45Z</time>
      </trkpt>
      <trkpt lat="45.03142" lon="2.67197">
        <ele>1291.19</ele>
        <time>2015-06-08T11:10:59Z</time>
      </trkpt>
      <trkpt lat="45.03141" lon="2.67198">
        <ele>1290.71</ele>
        <time>2015-06-08T11:11:27Z</time>
      </trkpt>
      <trkpt lat="45.03146" lon="2.67211">
        <ele>1288.78</ele>
        <time>2015-06-08T11:11:40Z</time>
      </trkpt>
      <trkpt lat="45.03146" lon="2.67212">
        <ele>1288.78</ele>
        <time>2015-06-08T11:11:41Z</time>
      </trkpt>
      <trkpt lat="45.03153" lon="2.6722">
        <ele>1284.46</ele>
        <time>2015-06-08T11:11:52Z</time>
      </trkpt>
      <trkpt lat="45.03151" lon="2.67223">
        <ele>1283.5</ele>
        <time>2015-06-08T11:11:55Z</time>
      </trkpt>
      <trkpt lat="45.03148" lon="2.67223">
        <ele>1283.02</ele>
        <time>2015-06-08T11:11:58Z</time>
      </trkpt>
      <trkpt lat="45.03142" lon="2.67222">
        <ele>1283.02</ele>
        <time>2015-06-08T11:12:04Z</time>
      </trkpt>
      <trkpt lat="45.03131" lon="2.67224">
        <ele>1282.06</ele>
        <time>2015-06-08T11:12:16Z</time>
      </trkpt>
      <trkpt lat="45.03122" lon="2.67225">
        <ele>1278.69</ele>
        <time>2015-06-08T11:12:29Z</time>
      </trkpt>
      <trkpt lat="45.03115" lon="2.67219">
        <ele>1274.85</ele>
        <time>2015-06-08T11:12:43Z</time>
      </trkpt>
      <trkpt lat="45.03108" lon="2.67216">
        <ele>1271.96</ele>
        <time>2015-06-08T11:12:52Z</time>
      </trkpt>
      <trkpt lat="45.03102" lon="2.67209">
        <ele>1269.56</ele>
        <time>2015-06-08T11:13:01Z</time>
      </trkpt>
      <trkpt lat="45.03092" lon="2.67203">
        <ele>1266.19</ele>
        <time>2015-06-08T11:13:13Z</time>
      </trkpt>
      <trkpt lat="45.03086" lon="2.6721">
        <ele>1264.27</ele>
        <time>2015-06-08T11:13:27Z</time>
      </trkpt>
      <trkpt lat="45.03086" lon="2.67213">
        <ele>1263.79</ele>
        <time>2015-06-08T11:13:31Z</time>
      </trkpt>
      <trkpt lat="45.03086" lon="2.67233">
        <ele>1259.46</ele>
        <time>2015-06-08T11:13:43Z</time>
      </trkpt>
      <trkpt lat="45.03087" lon="2.67256">
        <ele>1257.06</ele>
        <time>2015-06-08T11:13:57Z</time>
      </trkpt>
      <trkpt lat="45.03085" lon="2.67276">
        <ele>1255.62</ele>
        <time>2015-06-08T11:14:10Z</time>
      </trkpt>
      <trkpt lat="45.03085" lon="2.67279">
        <ele>1255.14</ele>
        <time>2015-06-08T11:14:12Z</time>
      </trkpt>
      <trkpt lat="45.03079" lon="2.67292">
        <ele>1253.7</ele>
        <time>2015-06-08T11:14:26Z</time>
      </trkpt>
      <trkpt lat="45.03079" lon="2.67293">
        <ele>1254.18</ele>
        <time>2015-06-08T11:14:28Z</time>
      </trkpt>
      <trkpt lat="45.03069" lon="2.67303">
        <ele>1251.77</ele>
        <time>2015-06-08T11:14:42Z</time>
      </trkpt>
      <trkpt lat="45.03062" lon="2.67299">
        <ele>1249.85</ele>
        <time>2015-06-08T11:14:53Z</time>
      </trkpt>
      <trkpt lat="45.03052" lon="2.67298">
        <ele>1247.45</ele>
        <time>2015-06-08T11:15:03Z</time>
      </trkpt>
      <trkpt lat="45.03049" lon="2.67295">
        <ele>1246.49</ele>
        <time>2015-06-08T11:15:07Z</time>
      </trkpt>
      <trkpt lat="45.0304" lon="2.67288">
        <ele>1243.12</ele>
        <time>2015-06-08T11:15:19Z</time>
      </trkpt>
      <trkpt lat="45.03028" lon="2.67285">
        <ele>1244.08</ele>
        <time>2015-06-08T11:15:33Z</time>
      </trkpt>
      <trkpt lat="45.03016" lon="2.67283">
        <ele>1241.2</ele>
        <time>2015-06-08T11:15:51Z</time>
      </trkpt>
      <trkpt lat="45.03006" lon="2.6728">
        <ele>1238.32</ele>
        <time>2015-06-08T11:16:05Z</time>
      </trkpt>
      <trkpt lat="45.02999" lon="2.67274">
        <ele>1235.91</ele>
        <time>2015-06-08T11:16:20Z</time>
      </trkpt>
      <trkpt lat="45.0299" lon="2.67269">
        <ele>1235.43</ele>
        <time>2015-06-08T11:16:35Z</time>
      </trkpt>
      <trkpt lat="45.02979" lon="2.67264">
        <ele>1233.99</ele>
        <time>2015-06-08T11:16:46Z</time>
      </trkpt>
      <trkpt lat="45.02971" lon="2.67259">
        <ele>1234.95</ele>
        <time>2015-06-08T11:16:59Z</time>
      </trkpt>
      <trkpt lat="45.02965" lon="2.67254">
        <ele>1235.43</ele>
        <time>2015-06-08T11:17:12Z</time>
      </trkpt>
      <trkpt lat="45.02957" lon="2.6725">
        <ele>1234.47</ele>
        <time>2015-06-08T11:17:24Z</time>
      </trkpt>
      <trkpt lat="45.02949" lon="2.67247">
        <ele>1233.03</ele>
        <time>2015-06-08T11:17:31Z</time>
      </trkpt>
      <trkpt lat="45.02934" lon="2.67239">
        <ele>1231.11</ele>
        <time>2015-06-08T11:17:44Z</time>
      </trkpt>
      <trkpt lat="45.02917" lon="2.6723">
        <ele>1228.22</ele>
        <time>2015-06-08T11:18:02Z</time>
      </trkpt>
      <trkpt lat="45.02902" lon="2.67222">
        <ele>1227.74</ele>
        <time>2015-06-08T11:18:17Z</time>
      </trkpt>
      <trkpt lat="45.02892" lon="2.67217">
        <ele>1226.78</ele>
        <time>2015-06-08T11:18:35Z</time>
      </trkpt>
      <trkpt lat="45.02882" lon="2.67211">
        <ele>1225.82</ele>
        <time>2015-06-08T11:18:49Z</time>
      </trkpt>
      <trkpt lat="45.02869" lon="2.67203">
        <ele>1225.34</ele>
        <time>2015-06-08T11:19:04Z</time>
      </trkpt>
      <trkpt lat="45.02858" lon="2.67197">
        <ele>1225.82</ele>
        <time>2015-06-08T11:19:17Z</time>
      </trkpt>
      <trkpt lat="45.02844" lon="2.67185">
        <ele>1226.78</ele>
        <time>2015-06-08T11:19:32Z</time>
      </trkpt>
      <trkpt lat="45.0284" lon="2.67183">
        <ele>1227.26</ele>
        <time>2015-06-08T11:19:47Z</time>
      </trkpt>
      <trkpt lat="45.02839" lon="2.67183">
        <ele>1227.26</ele>
        <time>2015-06-08T11:20:10Z</time>
      </trkpt>
      <trkpt lat="45.02838" lon="2.67183">
        <ele>1227.26</ele>
        <time>2015-06-08T11:20:37Z</time>
      </trkpt>
      <trkpt lat="45.02827" lon="2.6718">
        <ele>1227.74</ele>
        <time>2015-06-08T11:20:49Z</time>
      </trkpt>
      <trkpt lat="45.02811" lon="2.67184">
        <ele>1224.86</ele>
        <time>2015-06-08T11:21:05Z</time>
      </trkpt>
      <trkpt lat="45.02801" lon="2.67185">
        <ele>1221.97</ele>
        <time>2015-06-08T11:21:17Z</time>
      </trkpt>
      <trkpt lat="45.02787" lon="2.67183">
        <ele>1220.05</ele>
        <time>2015-06-08T11:21:31Z</time>
      </trkpt>
      <trkpt lat="45.02775" lon="2.67183">
        <ele>1215.72</ele>
        <time>2015-06-08T11:21:43Z</time>
      </trkpt>
      <trkpt lat="45.02765" lon="2.67191">
        <ele>1212.84</ele>
        <time>2015-06-08T11:21:57Z</time>
      </trkpt>
      <trkpt lat="45.02755" lon="2.672">
        <ele>1210.92</ele>
        <time>2015-06-08T11:22:11Z</time>
      </trkpt>
      <trkpt lat="45.02743" lon="2.67212">
        <ele>1207.07</ele>
        <time>2015-06-08T11:22:27Z</time>
      </trkpt>
      <trkpt lat="45.02735" lon="2.67222">
        <ele>1206.11</ele>
        <time>2015-06-08T11:22:42Z</time>
      </trkpt>
      <trkpt lat="45.02722" lon="2.67226">
        <ele>1203.23</ele>
        <time>2015-06-08T11:22:53Z</time>
      </trkpt>
      <trkpt lat="45.02716" lon="2.67239">
        <ele>1202.27</ele>
        <time>2015-06-08T11:23:07Z</time>
      </trkpt>
      <trkpt lat="45.02726" lon="2.67249">
        <ele>1196.98</ele>
        <time>2015-06-08T11:23:22Z</time>
      </trkpt>
      <trkpt lat="45.02733" lon="2.67254">
        <ele>1193.13</ele>
        <time>2015-06-08T11:23:36Z</time>
      </trkpt>
      <trkpt lat="45.0274" lon="2.67255">
        <ele>1189.77</ele>
        <time>2015-06-08T11:23:50Z</time>
      </trkpt>
      <trkpt lat="45.02751" lon="2.67258">
        <ele>1185.92</ele>
        <time>2015-06-08T11:24:07Z</time>
      </trkpt>
      <trkpt lat="45.02762" lon="2.67266">
        <ele>1182.56</ele>
        <time>2015-06-08T11:24:23Z</time>
      </trkpt>
      <trkpt lat="45.02768" lon="2.67272">
        <ele>1179.67</ele>
        <time>2015-06-08T11:24:36Z</time>
      </trkpt>
      <trkpt lat="45.02784" lon="2.67282">
        <ele>1177.75</ele>
        <time>2015-06-08T11:24:52Z</time>
      </trkpt>
      <trkpt lat="45.02804" lon="2.6729">
        <ele>1173.91</ele>
        <time>2015-06-08T11:25:10Z</time>
      </trkpt>
      <trkpt lat="45.02817" lon="2.67299">
        <ele>1172.47</ele>
        <time>2015-06-08T11:25:25Z</time>
      </trkpt>
      <trkpt lat="45.02828" lon="2.67308">
        <ele>1171.5</ele>
        <time>2015-06-08T11:25:42Z</time>
      </trkpt>
      <trkpt lat="45.02854" lon="2.67314">
        <ele>1169.1</ele>
        <time>2015-06-08T11:25:59Z</time>
      </trkpt>
      <trkpt lat="45.0286" lon="2.67324">
        <ele>1168.14</ele>
        <time>2015-06-08T11:26:10Z</time>
      </trkpt>
      <trkpt lat="45.02865" lon="2.67334">
        <ele>1166.22</ele>
        <time>2015-06-08T11:26:25Z</time>
      </trkpt>
      <trkpt lat="45.02878" lon="2.6735">
        <ele>1162.37</ele>
        <time>2015-06-08T11:26:40Z</time>
      </trkpt>
      <trkpt lat="45.02889" lon="2.67365">
        <ele>1160.45</ele>
        <time>2015-06-08T11:26:55Z</time>
      </trkpt>
      <trkpt lat="45.029" lon="2.67375">
        <ele>1161.41</ele>
        <time>2015-06-08T11:27:08Z</time>
      </trkpt>
      <trkpt lat="45.02903" lon="2.67388">
        <ele>1160.45</ele>
        <time>2015-06-08T11:27:23Z</time>
      </trkpt>
      <trkpt lat="45.0291" lon="2.67405">
        <ele>1159.01</ele>
        <time>2015-06-08T11:27:36Z</time>
      </trkpt>
      <trkpt lat="45.0291" lon="2.67423">
        <ele>1158.05</ele>
        <time>2015-06-08T11:27:51Z</time>
      </trkpt>
      <trkpt lat="45.02915" lon="2.67447">
        <ele>1155.16</ele>
        <time>2015-06-08T11:28:08Z</time>
      </trkpt>
      <trkpt lat="45.0292" lon="2.67465">
        <ele>1152.28</ele>
        <time>2015-06-08T11:28:24Z</time>
      </trkpt>
      <trkpt lat="45.02927" lon="2.67482">
        <ele>1150.35</ele>
        <time>2015-06-08T11:28:40Z</time>
      </trkpt>
      <trkpt lat="45.02933" lon="2.67494">
        <ele>1148.43</ele>
        <time>2015-06-08T11:28:57Z</time>
      </trkpt>
      <trkpt lat="45.02936" lon="2.67503">
        <ele>1146.03</ele>
        <time>2015-06-08T11:29:09Z</time>
      </trkpt>
      <trkpt lat="45.02945" lon="2.67514">
        <ele>1141.22</ele>
        <time>2015-06-08T11:29:25Z</time>
      </trkpt>
      <trkpt lat="45.02963" lon="2.67542">
        <ele>1140.74</ele>
        <time>2015-06-08T11:29:42Z</time>
      </trkpt>
      <trkpt lat="45.02965" lon="2.67558">
        <ele>1137.38</ele>
        <time>2015-06-08T11:29:56Z</time>
      </trkpt>
      <trkpt lat="45.02972" lon="2.67573">
        <ele>1134.97</ele>
        <time>2015-06-08T11:30:11Z</time>
      </trkpt>
      <trkpt lat="45.02983" lon="2.67582">
        <ele>1131.61</ele>
        <time>2015-06-08T11:30:28Z</time>
      </trkpt>
      <trkpt lat="45.02988" lon="2.67586">
        <ele>1134.49</ele>
        <time>2015-06-08T11:30:46Z</time>
      </trkpt>
      <trkpt lat="45.0299" lon="2.67596">
        <ele>1132.09</ele>
        <time>2015-06-08T11:31:00Z</time>
      </trkpt>
      <trkpt lat="45.02993" lon="2.67604">
        <ele>1130.65</ele>
        <time>2015-06-08T11:31:15Z</time>
      </trkpt>
      <trkpt lat="45.02994" lon="2.67606">
        <ele>1130.65</ele>
        <time>2015-06-08T11:31:34Z</time>
      </trkpt>
      <trkpt lat="45.02997" lon="2.67614">
        <ele>1129.69</ele>
        <time>2015-06-08T11:31:40Z</time>
      </trkpt>
      <trkpt lat="45.03003" lon="2.67626">
        <ele>1127.76</ele>
        <time>2015-06-08T11:31:51Z</time>
      </trkpt>
      <trkpt lat="45.03005" lon="2.67627">
        <ele>1127.28</ele>
        <time>2015-06-08T11:31:54Z</time>
      </trkpt>
      <trkpt lat="45.03011" lon="2.67638">
        <ele>1123.92</ele>
        <time>2015-06-08T11:32:10Z</time>
      </trkpt>
      <trkpt lat="45.03013" lon="2.67651">
        <ele>1121.03</ele>
        <time>2015-06-08T11:32:24Z</time>
      </trkpt>
      <trkpt lat="45.0303" lon="2.67672">
        <ele>1121.52</ele>
        <time>2015-06-08T11:32:37Z</time>
      </trkpt>
      <trkpt lat="45.0303" lon="2.67672">
        <ele>1121.03</ele>
        <time>2015-06-08T11:32:39Z</time>
      </trkpt>
      <trkpt lat="45.03032" lon="2.67673">
        <ele>1121.03</ele>
        <time>2015-06-08T11:32:41Z</time>
      </trkpt>
      <trkpt lat="45.03044" lon="2.67679">
        <ele>1119.59</ele>
        <time>2015-06-08T11:32:54Z</time>
      </trkpt>
      <trkpt lat="45.03052" lon="2.67682">
        <ele>1116.23</ele>
        <time>2015-06-08T11:33:07Z</time>
      </trkpt>
      <trkpt lat="45.03053" lon="2.67687">
        <ele>1117.19</ele>
        <time>2015-06-08T11:33:19Z</time>
      </trkpt>
      <trkpt lat="45.03044" lon="2.67687">
        <ele>1115.75</ele>
        <time>2015-06-08T11:33:28Z</time>
      </trkpt>
      <trkpt lat="45.03042" lon="2.67687">
        <ele>1115.75</ele>
        <time>2015-06-08T11:33:31Z</time>
      </trkpt>
      <trkpt lat="45.03033" lon="2.67687">
        <ele>1113.34</ele>
        <time>2015-06-08T11:33:42Z</time>
      </trkpt>
      <trkpt lat="45.03018" lon="2.67686">
        <ele>1112.86</ele>
        <time>2015-06-08T11:33:55Z</time>
      </trkpt>
      <trkpt lat="45.03002" lon="2.67686">
        <ele>1109.98</ele>
        <time>2015-06-08T11:34:11Z</time>
      </trkpt>
      <trkpt lat="45.02987" lon="2.67688">
        <ele>1109.02</ele>
        <time>2015-06-08T11:34:25Z</time>
      </trkpt>
      <trkpt lat="45.02971" lon="2.677">
        <ele>1109.02</ele>
        <time>2015-06-08T11:34:38Z</time>
      </trkpt>
      <trkpt lat="45.02962" lon="2.67705">
        <ele>1107.58</ele>
        <time>2015-06-08T11:34:47Z</time>
      </trkpt>
      <trkpt lat="45.02947" lon="2.67701">
        <ele>1106.13</ele>
        <time>2015-06-08T11:35:01Z</time>
      </trkpt>
      <trkpt lat="45.02944" lon="2.67701">
        <ele>1105.65</ele>
        <time>2015-06-08T11:35:04Z</time>
      </trkpt>
      <trkpt lat="45.0293" lon="2.67695">
        <ele>1104.21</ele>
        <time>2015-06-08T11:35:20Z</time>
      </trkpt>
      <trkpt lat="45.02924" lon="2.67693">
        <ele>1103.73</ele>
        <time>2015-06-08T11:35:25Z</time>
      </trkpt>
      <trkpt lat="45.02912" lon="2.67692">
        <ele>1106.61</ele>
        <time>2015-06-08T11:35:39Z</time>
      </trkpt>
      <trkpt lat="45.02899" lon="2.67679">
        <ele>1106.13</ele>
        <time>2015-06-08T11:35:53Z</time>
      </trkpt>
      <trkpt lat="45.02886" lon="2.67675">
        <ele>1105.65</ele>
        <time>2015-06-08T11:36:04Z</time>
      </trkpt>
      <trkpt lat="45.02874" lon="2.6767">
        <ele>1103.25</ele>
        <time>2015-06-08T11:36:17Z</time>
      </trkpt>
      <trkpt lat="45.02862" lon="2.67668">
        <ele>1102.29</ele>
        <time>2015-06-08T11:36:32Z</time>
      </trkpt>
      <trkpt lat="45.0286" lon="2.67667">
        <ele>1102.29</ele>
        <time>2015-06-08T11:36:34Z</time>
      </trkpt>
      <trkpt lat="45.02858" lon="2.67667">
        <ele>1102.77</ele>
        <time>2015-06-08T11:36:36Z</time>
      </trkpt>
      <trkpt lat="45.02842" lon="2.67656">
        <ele>1103.25</ele>
        <time>2015-06-08T11:36:50Z</time>
      </trkpt>
      <trkpt lat="45.02832" lon="2.67642">
        <ele>1103.73</ele>
        <time>2015-06-08T11:37:02Z</time>
      </trkpt>
      <trkpt lat="45.02823" lon="2.67626">
        <ele>1105.17</ele>
        <time>2015-06-08T11:37:15Z</time>
      </trkpt>
      <trkpt lat="45.02818" lon="2.67612">
        <ele>1106.13</ele>
        <time>2015-06-08T11:37:24Z</time>
      </trkpt>
      <trkpt lat="45.02813" lon="2.6759">
        <ele>1106.61</ele>
        <time>2015-06-08T11:37:39Z</time>
      </trkpt>
      <trkpt lat="45.02808" lon="2.67574">
        <ele>1105.65</ele>
        <time>2015-06-08T11:37:50Z</time>
      </trkpt>
      <trkpt lat="45.02803" lon="2.67557">
        <ele>1104.21</ele>
        <time>2015-06-08T11:38:01Z</time>
      </trkpt>
      <trkpt lat="45.02802" lon="2.67551">
        <ele>1103.73</ele>
        <time>2015-06-08T11:38:06Z</time>
      </trkpt>
      <trkpt lat="45.028" lon="2.6754">
        <ele>1102.29</ele>
        <time>2015-06-08T11:38:18Z</time>
      </trkpt>
      <trkpt lat="45.028" lon="2.67538">
        <ele>1102.29</ele>
        <time>2015-06-08T11:38:19Z</time>
      </trkpt>
      <trkpt lat="45.02787" lon="2.67515">
        <ele>1102.77</ele>
        <time>2015-06-08T11:38:35Z</time>
      </trkpt>
      <trkpt lat="45.02779" lon="2.67504">
        <ele>1102.29</ele>
        <time>2015-06-08T11:38:48Z</time>
      </trkpt>
      <trkpt lat="45.02775" lon="2.67501">
        <ele>1101.81</ele>
        <time>2015-06-08T11:38:51Z</time>
      </trkpt>
      <trkpt lat="45.02762" lon="2.67496">
        <ele>1101.33</ele>
        <time>2015-06-08T11:39:05Z</time>
      </trkpt>
      <trkpt lat="45.02759" lon="2.67496">
        <ele>1101.33</ele>
        <time>2015-06-08T11:39:09Z</time>
      </trkpt>
      <trkpt lat="45.02743" lon="2.67493">
        <ele>1100.85</ele>
        <time>2015-06-08T11:39:23Z</time>
      </trkpt>
      <trkpt lat="45.02723" lon="2.67494">
        <ele>1100.37</ele>
        <time>2015-06-08T11:39:36Z</time>
      </trkpt>
      <trkpt lat="45.02721" lon="2.67493">
        <ele>1100.37</ele>
        <time>2015-06-08T11:39:39Z</time>
      </trkpt>
      <trkpt lat="45.02703" lon="2.6749">
        <ele>1101.33</ele>
        <time>2015-06-08T11:39:55Z</time>
      </trkpt>
      <trkpt lat="45.02695" lon="2.67489">
        <ele>1101.33</ele>
        <time>2015-06-08T11:40:07Z</time>
      </trkpt>
      <trkpt lat="45.02677" lon="2.67482">
        <ele>1102.77</ele>
        <time>2015-06-08T11:40:23Z</time>
      </trkpt>
      <trkpt lat="45.02669" lon="2.6748">
        <ele>1102.29</ele>
        <time>2015-06-08T11:40:30Z</time>
      </trkpt>
      <trkpt lat="45.02652" lon="2.67473">
        <ele>1102.29</ele>
        <time>2015-06-08T11:40:45Z</time>
      </trkpt>
      <trkpt lat="45.02639" lon="2.67466">
        <ele>1101.81</ele>
        <time>2015-06-08T11:40:58Z</time>
      </trkpt>
      <trkpt lat="45.02625" lon="2.67461">
        <ele>1101.33</ele>
        <time>2015-06-08T11:41:12Z</time>
      </trkpt>
      <trkpt lat="45.02608" lon="2.67457">
        <ele>1100.85</ele>
        <time>2015-06-08T11:41:27Z</time>
      </trkpt>
      <trkpt lat="45.02596" lon="2.67454">
        <ele>1101.81</ele>
        <time>2015-06-08T11:41:39Z</time>
      </trkpt>
      <trkpt lat="45.0258" lon="2.67454">
        <ele>1103.25</ele>
        <time>2015-06-08T11:41:53Z</time>
      </trkpt>
      <trkpt lat="45.02578" lon="2.67456">
        <ele>1105.17</ele>
        <time>2015-06-08T11:41:56Z</time>
      </trkpt>
      <trkpt lat="45.02571" lon="2.67467">
        <ele>1107.58</ele>
        <time>2015-06-08T11:42:08Z</time>
      </trkpt>
      <trkpt lat="45.02562" lon="2.6748">
        <ele>1109.5</ele>
        <time>2015-06-08T11:42:19Z</time>
      </trkpt>
      <trkpt lat="45.0256" lon="2.67483">
        <ele>1110.46</ele>
        <time>2015-06-08T11:42:22Z</time>
      </trkpt>
      <trkpt lat="45.02551" lon="2.675">
        <ele>1113.34</ele>
        <time>2015-06-08T11:42:36Z</time>
      </trkpt>
      <trkpt lat="45.02539" lon="2.6751">
        <ele>1111.9</ele>
        <time>2015-06-08T11:42:49Z</time>
      </trkpt>
      <trkpt lat="45.02524" lon="2.67514">
        <ele>1110.94</ele>
        <time>2015-06-08T11:43:00Z</time>
      </trkpt>
      <trkpt lat="45.02507" lon="2.6752">
        <ele>1108.54</ele>
        <time>2015-06-08T11:43:15Z</time>
      </trkpt>
      <trkpt lat="45.02496" lon="2.67521">
        <ele>1107.58</ele>
        <time>2015-06-08T11:43:27Z</time>
      </trkpt>
      <trkpt lat="45.02481" lon="2.6752">
        <ele>1109.5</ele>
        <time>2015-06-08T11:43:41Z</time>
      </trkpt>
      <trkpt lat="45.02465" lon="2.67514">
        <ele>1108.06</ele>
        <time>2015-06-08T11:43:56Z</time>
      </trkpt>
      <trkpt lat="45.02463" lon="2.67511">
        <ele>1107.1</ele>
        <time>2015-06-08T11:43:59Z</time>
      </trkpt>
      <trkpt lat="45.02447" lon="2.67504">
        <ele>1106.13</ele>
        <time>2015-06-08T11:44:14Z</time>
      </trkpt>
      <trkpt lat="45.02442" lon="2.67499">
        <ele>1104.69</ele>
        <time>2015-06-08T11:44:20Z</time>
      </trkpt>
      <trkpt lat="45.02433" lon="2.67488">
        <ele>1101.33</ele>
        <time>2015-06-08T11:44:32Z</time>
      </trkpt>
      <trkpt lat="45.02426" lon="2.67477">
        <ele>1102.29</ele>
        <time>2015-06-08T11:44:42Z</time>
      </trkpt>
      <trkpt lat="45.02425" lon="2.67474">
        <ele>1101.81</ele>
        <time>2015-06-08T11:44:57Z</time>
      </trkpt>
      <trkpt lat="45.02425" lon="2.67473">
        <ele>1101.81</ele>
        <time>2015-06-08T11:45:01Z</time>
      </trkpt>
      <trkpt lat="45.02422" lon="2.67466">
        <ele>1102.77</ele>
        <time>2015-06-08T11:45:07Z</time>
      </trkpt>
      <trkpt lat="45.02419" lon="2.67459">
        <ele>1103.25</ele>
        <time>2015-06-08T11:45:12Z</time>
      </trkpt>
      <trkpt lat="45.02419" lon="2.67452">
        <ele>1102.29</ele>
        <time>2015-06-08T11:45:16Z</time>
      </trkpt>
      <trkpt lat="45.02415" lon="2.67441">
        <ele>1102.29</ele>
        <time>2015-06-08T11:45:29Z</time>
      </trkpt>
      <trkpt lat="45.0241" lon="2.67423">
        <ele>1104.21</ele>
        <time>2015-06-08T11:45:40Z</time>
      </trkpt>
      <trkpt lat="45.02401" lon="2.67398">
        <ele>1107.58</ele>
        <time>2015-06-08T11:45:56Z</time>
      </trkpt>
      <trkpt lat="45.02397" lon="2.67377">
        <ele>1106.13</ele>
        <time>2015-06-08T11:46:10Z</time>
      </trkpt>
      <trkpt lat="45.02392" lon="2.67357">
        <ele>1105.17</ele>
        <time>2015-06-08T11:46:23Z</time>
      </trkpt>
      <trkpt lat="45.02388" lon="2.67338">
        <ele>1106.13</ele>
        <time>2015-06-08T11:46:35Z</time>
      </trkpt>
      <trkpt lat="45.02387" lon="2.67334">
        <ele>1106.61</ele>
        <time>2015-06-08T11:46:38Z</time>
      </trkpt>
      <trkpt lat="45.02385" lon="2.67309">
        <ele>1107.1</ele>
        <time>2015-06-08T11:46:53Z</time>
      </trkpt>
      <trkpt lat="45.02385" lon="2.67289">
        <ele>1107.1</ele>
        <time>2015-06-08T11:47:05Z</time>
      </trkpt>
      <trkpt lat="45.02385" lon="2.67277">
        <ele>1107.58</ele>
        <time>2015-06-08T11:47:17Z</time>
      </trkpt>
      <trkpt lat="45.02386" lon="2.67258">
        <ele>1108.06</ele>
        <time>2015-06-08T11:47:28Z</time>
      </trkpt>
      <trkpt lat="45.02386" lon="2.67254">
        <ele>1108.54</ele>
        <time>2015-06-08T11:47:31Z</time>
      </trkpt>
      <trkpt lat="45.02385" lon="2.67228">
        <ele>1109.02</ele>
        <time>2015-06-08T11:47:45Z</time>
      </trkpt>
      <trkpt lat="45.02386" lon="2.67209">
        <ele>1109.02</ele>
        <time>2015-06-08T11:47:58Z</time>
      </trkpt>
      <trkpt lat="45.02384" lon="2.67185">
        <ele>1108.54</ele>
        <time>2015-06-08T11:48:11Z</time>
      </trkpt>
      <trkpt lat="45.02386" lon="2.67168">
        <ele>1108.54</ele>
        <time>2015-06-08T11:48:22Z</time>
      </trkpt>
      <trkpt lat="45.02383" lon="2.6716">
        <ele>1109.5</ele>
        <time>2015-06-08T11:48:27Z</time>
      </trkpt>
      <trkpt lat="45.02376" lon="2.6714">
        <ele>1109.5</ele>
        <time>2015-06-08T11:48:42Z</time>
      </trkpt>
      <trkpt lat="45.0237" lon="2.67124">
        <ele>1105.17</ele>
        <time>2015-06-08T11:48:56Z</time>
      </trkpt>
      <trkpt lat="45.02361" lon="2.671">
        <ele>1098.44</ele>
        <time>2015-06-08T11:49:14Z</time>
      </trkpt>
      <trkpt lat="45.02353" lon="2.6708">
        <ele>1094.6</ele>
        <time>2015-06-08T11:49:30Z</time>
      </trkpt>
      <trkpt lat="45.02348" lon="2.67058">
        <ele>1091.71</ele>
        <time>2015-06-08T11:49:45Z</time>
      </trkpt>
      <trkpt lat="45.0234" lon="2.67035">
        <ele>1090.27</ele>
        <time>2015-06-08T11:49:59Z</time>
      </trkpt>
      <trkpt lat="45.02335" lon="2.6702">
        <ele>1088.83</ele>
        <time>2015-06-08T11:50:08Z</time>
      </trkpt>
      <trkpt lat="45.02335" lon="2.67017">
        <ele>1088.35</ele>
        <time>2015-06-08T11:50:10Z</time>
      </trkpt>
      <trkpt lat="45.02324" lon="2.66995">
        <ele>1086.43</ele>
        <time>2015-06-08T11:50:26Z</time>
      </trkpt>
      <trkpt lat="45.0232" lon="2.66983">
        <ele>1086.43</ele>
        <time>2015-06-08T11:50:34Z</time>
      </trkpt>
      <trkpt lat="45.02315" lon="2.66969">
        <ele>1085.95</ele>
        <time>2015-06-08T11:50:44Z</time>
      </trkpt>
      <trkpt lat="45.02306" lon="2.66949">
        <ele>1085.47</ele>
        <time>2015-06-08T11:50:58Z</time>
      </trkpt>
      <trkpt lat="45.02299" lon="2.6693">
        <ele>1085.95</ele>
        <time>2015-06-08T11:51:11Z</time>
      </trkpt>
      <trkpt lat="45.02292" lon="2.66914">
        <ele>1088.35</ele>
        <time>2015-06-08T11:51:23Z</time>
      </trkpt>
      <trkpt lat="45.02284" lon="2.66897">
        <ele>1087.87</ele>
        <time>2015-06-08T11:51:35Z</time>
      </trkpt>
      <trkpt lat="45.02279" lon="2.6689">
        <ele>1087.87</ele>
        <time>2015-06-08T11:51:41Z</time>
      </trkpt>
      <trkpt lat="45.02268" lon="2.66879">
        <ele>1085.95</ele>
        <time>2015-06-08T11:51:54Z</time>
      </trkpt>
      <trkpt lat="45.02263" lon="2.66875">
        <ele>1085.47</ele>
        <time>2015-06-08T11:51:59Z</time>
      </trkpt>
      <trkpt lat="45.02258" lon="2.66874">
        <ele>1084.99</ele>
        <time>2015-06-08T11:52:03Z</time>
      </trkpt>
      <trkpt lat="45.02243" lon="2.66866">
        <ele>1085.47</ele>
        <time>2015-06-08T11:52:16Z</time>
      </trkpt>
      <trkpt lat="45.02237" lon="2.6686">
        <ele>1083.54</ele>
        <time>2015-06-08T11:52:22Z</time>
      </trkpt>
      <trkpt lat="45.02226" lon="2.66854">
        <ele>1081.62</ele>
        <time>2015-06-08T11:52:35Z</time>
      </trkpt>
      <trkpt lat="45.02216" lon="2.66851">
        <ele>1081.14</ele>
        <time>2015-06-08T11:52:47Z</time>
      </trkpt>
      <trkpt lat="45.02206" lon="2.66842">
        <ele>1081.62</ele>
        <time>2015-06-08T11:52:59Z</time>
      </trkpt>
      <trkpt lat="45.02198" lon="2.66832">
        <ele>1084.02</ele>
        <time>2015-06-08T11:53:11Z</time>
      </trkpt>
      <trkpt lat="45.02195" lon="2.66828">
        <ele>1084.99</ele>
        <time>2015-06-08T11:53:15Z</time>
      </trkpt>
      <trkpt lat="45.02192" lon="2.66828">
        <ele>1085.95</ele>
        <time>2015-06-08T11:53:29Z</time>
      </trkpt>
      <trkpt lat="45.02191" lon="2.66826">
        <ele>1086.43</ele>
        <time>2015-06-08T11:53:36Z</time>
      </trkpt>
      <trkpt lat="45.02184" lon="2.66826">
        <ele>1084.99</ele>
        <time>2015-06-08T11:53:47Z</time>
      </trkpt>
      <trkpt lat="45.02184" lon="2.66827">
        <ele>1083.06</ele>
        <time>2015-06-08T11:54:02Z</time>
      </trkpt>
      <trkpt lat="45.02184" lon="2.66827">
        <ele>1082.58</ele>
        <time>2015-06-08T11:54:27Z</time>
      </trkpt>
      <trkpt lat="45.02184" lon="2.66826">
        <ele>1083.06</ele>
        <time>2015-06-08T11:54:41Z</time>
      </trkpt>
      <trkpt lat="45.02184" lon="2.66827">
        <ele>1084.02</ele>
        <time>2015-06-08T11:54:54Z</time>
      </trkpt>
      <trkpt lat="45.02183" lon="2.66827">
        <ele>1084.02</ele>
        <time>2015-06-08T11:55:21Z</time>
      </trkpt>
      <trkpt lat="45.02183" lon="2.66827">
        <ele>1084.02</ele>
        <time>2015-06-08T11:55:47Z</time>
      </trkpt>
      <trkpt lat="45.02183" lon="2.66827">
        <ele>1084.02</ele>
        <time>2015-06-08T11:56:15Z</time>
      </trkpt>
      <trkpt lat="45.02183" lon="2.66827">
        <ele>1084.02</ele>
        <time>2015-06-08T11:56:42Z</time>
      </trkpt>
      <trkpt lat="45.02183" lon="2.66827">
        <ele>1084.5</ele>
        <time>2015-06-08T11:56:50Z</time>
      </trkpt>
      <trkpt lat="45.02183" lon="2.66826">
        <ele>1084.5</ele>
        <time>2015-06-08T11:57:00Z</time>
      </trkpt>
      <trkpt lat="45.02183" lon="2.66825">
        <ele>1084.5</ele>
        <time>2015-06-08T11:57:13Z</time>
      </trkpt>
      <trkpt lat="45.02183" lon="2.66826">
        <ele>1084.5</ele>
        <time>2015-06-08T11:57:30Z</time>
      </trkpt>
      <trkpt lat="45.02183" lon="2.66826">
        <ele>1084.5</ele>
        <time>2015-06-08T11:57:46Z</time>
      </trkpt>
      <trkpt lat="45.02183" lon="2.66827">
        <ele>1084.5</ele>
        <time>2015-06-08T11:58:11Z</time>
      </trkpt>
      <trkpt lat="45.02183" lon="2.66823">
        <ele>1084.5</ele>
        <time>2015-06-08T11:58:17Z</time>
      </trkpt>
      <trkpt lat="45.02185" lon="2.66813">
        <ele>1086.91</ele>
        <time>2015-06-08T11:58:31Z</time>
      </trkpt>
      <trkpt lat="45.02184" lon="2.66813">
        <ele>1085.95</ele>
        <time>2015-06-08T11:58:50Z</time>
      </trkpt>
      <trkpt lat="45.02183" lon="2.66813">
        <ele>1087.39</ele>
        <time>2015-06-08T11:59:06Z</time>
      </trkpt>
      <trkpt lat="45.0218" lon="2.66815">
        <ele>1087.39</ele>
        <time>2015-06-08T11:59:20Z</time>
      </trkpt>
      <trkpt lat="45.02178" lon="2.66815">
        <ele>1086.91</ele>
        <time>2015-06-08T11:59:23Z</time>
      </trkpt>
      <trkpt lat="45.02164" lon="2.66816">
        <ele>1083.54</ele>
        <time>2015-06-08T11:59:37Z</time>
      </trkpt>
      <trkpt lat="45.0216" lon="2.66816">
        <ele>1080.66</ele>
        <time>2015-06-08T11:59:42Z</time>
      </trkpt>
      <trkpt lat="45.02152" lon="2.66816">
        <ele>1078.26</ele>
        <time>2015-06-08T11:59:51Z</time>
      </trkpt>
      <trkpt lat="45.02151" lon="2.66817">
        <ele>1078.26</ele>
        <time>2015-06-08T11:59:53Z</time>
      </trkpt>
      <trkpt lat="45.02135" lon="2.66818">
        <ele>1077.78</ele>
        <time>2015-06-08T12:00:07Z</time>
      </trkpt>
      <trkpt lat="45.02123" lon="2.66815">
        <ele>1073.93</ele>
        <time>2015-06-08T12:00:19Z</time>
      </trkpt>
      <trkpt lat="45.02114" lon="2.66812">
        <ele>1072.01</ele>
        <time>2015-06-08T12:00:30Z</time>
      </trkpt>
      <trkpt lat="45.02113" lon="2.66812">
        <ele>1072.49</ele>
        <time>2015-06-08T12:00:33Z</time>
      </trkpt>
      <trkpt lat="45.02107" lon="2.66812">
        <ele>1072.49</ele>
        <time>2015-06-08T12:00:39Z</time>
      </trkpt>
      <trkpt lat="45.02104" lon="2.66813">
        <ele>1071.05</ele>
        <time>2015-06-08T12:00:42Z</time>
      </trkpt>
      <trkpt lat="45.02091" lon="2.66812">
        <ele>1068.64</ele>
        <time>2015-06-08T12:00:55Z</time>
      </trkpt>
      <trkpt lat="45.02085" lon="2.66808">
        <ele>1068.64</ele>
        <time>2015-06-08T12:01:03Z</time>
      </trkpt>
      <trkpt lat="45.02076" lon="2.66807">
        <ele>1068.64</ele>
        <time>2015-06-08T12:01:14Z</time>
      </trkpt>
      <trkpt lat="45.02071" lon="2.66804">
        <ele>1067.68</ele>
        <time>2015-06-08T12:01:21Z</time>
      </trkpt>
      <trkpt lat="45.02056" lon="2.668">
        <ele>1068.64</ele>
        <time>2015-06-08T12:01:35Z</time>
      </trkpt>
      <trkpt lat="45.02039" lon="2.66803">
        <ele>1067.2</ele>
        <time>2015-06-08T12:01:50Z</time>
      </trkpt>
      <trkpt lat="45.02025" lon="2.66807">
        <ele>1063.36</ele>
        <time>2015-06-08T12:02:04Z</time>
      </trkpt>
      <trkpt lat="45.02013" lon="2.66808">
        <ele>1064.8</ele>
        <time>2015-06-08T12:02:14Z</time>
      </trkpt>
      <trkpt lat="45.02004" lon="2.6681">
        <ele>1061.91</ele>
        <time>2015-06-08T12:02:24Z</time>
      </trkpt>
      <trkpt lat="45.01998" lon="2.66811">
        <ele>1059.03</ele>
        <time>2015-06-08T12:02:31Z</time>
      </trkpt>
      <trkpt lat="45.01993" lon="2.66814">
        <ele>1058.07</ele>
        <time>2015-06-08T12:02:37Z</time>
      </trkpt>
      <trkpt lat="45.01983" lon="2.66815">
        <ele>1056.15</ele>
        <time>2015-06-08T12:02:50Z</time>
      </trkpt>
      <trkpt lat="45.01979" lon="2.66818">
        <ele>1054.22</ele>
        <time>2015-06-08T12:02:56Z</time>
      </trkpt>
      <trkpt lat="45.01973" lon="2.66821">
        <ele>1049.9</ele>
        <time>2015-06-08T12:03:09Z</time>
      </trkpt>
      <trkpt lat="45.01973" lon="2.66821">
        <ele>1050.86</ele>
        <time>2015-06-08T12:03:24Z</time>
      </trkpt>
      <trkpt lat="45.0197" lon="2.66822">
        <ele>1050.38</ele>
        <time>2015-06-08T12:03:35Z</time>
      </trkpt>
      <trkpt lat="45.0196" lon="2.66815">
        <ele>1047.01</ele>
        <time>2015-06-08T12:03:48Z</time>
      </trkpt>
      <trkpt lat="45.01955" lon="2.6682">
        <ele>1044.61</ele>
        <time>2015-06-08T12:04:00Z</time>
      </trkpt>
      <trkpt lat="45.01954" lon="2.66832">
        <ele>1040.76</ele>
        <time>2015-06-08T12:04:14Z</time>
      </trkpt>
      <trkpt lat="45.01945" lon="2.66828">
        <ele>1037.88</ele>
        <time>2015-06-08T12:04:28Z</time>
      </trkpt>
      <trkpt lat="45.01941" lon="2.66826">
        <ele>1035</ele>
        <time>2015-06-08T12:04:41Z</time>
      </trkpt>
      <trkpt lat="45.0194" lon="2.66838">
        <ele>1032.11</ele>
        <time>2015-06-08T12:04:55Z</time>
      </trkpt>
      <trkpt lat="45.01946" lon="2.66853">
        <ele>1026.34</ele>
        <time>2015-06-08T12:05:12Z</time>
      </trkpt>
      <trkpt lat="45.01935" lon="2.66855">
        <ele>1023.46</ele>
        <time>2015-06-08T12:05:26Z</time>
      </trkpt>
      <trkpt lat="45.01926" lon="2.66855">
        <ele>1021.54</ele>
        <time>2015-06-08T12:05:39Z</time>
      </trkpt>
      <trkpt lat="45.01918" lon="2.6685">
        <ele>1018.65</ele>
        <time>2015-06-08T12:05:51Z</time>
      </trkpt>
      <trkpt lat="45.01908" lon="2.66843">
        <ele>1016.25</ele>
        <time>2015-06-08T12:06:04Z</time>
      </trkpt>
      <trkpt lat="45.01902" lon="2.66842">
        <ele>1013.85</ele>
        <time>2015-06-08T12:06:16Z</time>
      </trkpt>
      <trkpt lat="45.01905" lon="2.66853">
        <ele>1010.48</ele>
        <time>2015-06-08T12:06:27Z</time>
      </trkpt>
      <trkpt lat="45.01908" lon="2.66868">
        <ele>1008.56</ele>
        <time>2015-06-08T12:06:42Z</time>
      </trkpt>
      <trkpt lat="45.0191" lon="2.66891">
        <ele>1006.16</ele>
        <time>2015-06-08T12:06:59Z</time>
      </trkpt>
      <trkpt lat="45.01911" lon="2.66903">
        <ele>1004.72</ele>
        <time>2015-06-08T12:07:13Z</time>
      </trkpt>
      <trkpt lat="45.01901" lon="2.66899">
        <ele>1001.83</ele>
        <time>2015-06-08T12:07:26Z</time>
      </trkpt>
      <trkpt lat="45.01894" lon="2.66891">
        <ele>1000.39</ele>
        <time>2015-06-08T12:07:39Z</time>
      </trkpt>
      <trkpt lat="45.01881" lon="2.66877">
        <ele>997.02</ele>
        <time>2015-06-08T12:07:55Z</time>
      </trkpt>
      <trkpt lat="45.01876" lon="2.66871">
        <ele>995.58</ele>
        <time>2015-06-08T12:08:04Z</time>
      </trkpt>
      <trkpt lat="45.01869" lon="2.66852">
        <ele>990.78</ele>
        <time>2015-06-08T12:08:20Z</time>
      </trkpt>
      <trkpt lat="45.01867" lon="2.66843">
        <ele>987.89</ele>
        <time>2015-06-08T12:08:33Z</time>
      </trkpt>
      <trkpt lat="45.01859" lon="2.66831">
        <ele>985.49</ele>
        <time>2015-06-08T12:08:48Z</time>
      </trkpt>
      <trkpt lat="45.01856" lon="2.66831">
        <ele>982.12</ele>
        <time>2015-06-08T12:09:02Z</time>
      </trkpt>
      <trkpt lat="45.01853" lon="2.6682">
        <ele>981.64</ele>
        <time>2015-06-08T12:09:14Z</time>
      </trkpt>
      <trkpt lat="45.01859" lon="2.66807">
        <ele>979.24</ele>
        <time>2015-06-08T12:09:28Z</time>
      </trkpt>
      <trkpt lat="45.01859" lon="2.66797">
        <ele>978.76</ele>
        <time>2015-06-08T12:09:41Z</time>
      </trkpt>
      <trkpt lat="45.0186" lon="2.66781">
        <ele>975.39</ele>
        <time>2015-06-08T12:09:55Z</time>
      </trkpt>
      <trkpt lat="45.0186" lon="2.66768">
        <ele>973.95</ele>
        <time>2015-06-08T12:10:09Z</time>
      </trkpt>
      <trkpt lat="45.01857" lon="2.66759">
        <ele>972.51</ele>
        <time>2015-06-08T12:10:25Z</time>
      </trkpt>
      <trkpt lat="45.01853" lon="2.66765">
        <ele>971.07</ele>
        <time>2015-06-08T12:10:39Z</time>
      </trkpt>
      <trkpt lat="45.01846" lon="2.66766">
        <ele>969.63</ele>
        <time>2015-06-08T12:10:56Z</time>
      </trkpt>
      <trkpt lat="45.01837" lon="2.66771">
        <ele>967.22</ele>
        <time>2015-06-08T12:11:09Z</time>
      </trkpt>
      <trkpt lat="45.01831" lon="2.66771">
        <ele>966.74</ele>
        <time>2015-06-08T12:11:24Z</time>
      </trkpt>
      <trkpt lat="45.01827" lon="2.66767">
        <ele>965.78</ele>
        <time>2015-06-08T12:11:40Z</time>
      </trkpt>
      <trkpt lat="45.01817" lon="2.6675">
        <ele>960.01</ele>
        <time>2015-06-08T12:11:55Z</time>
      </trkpt>
      <trkpt lat="45.01812" lon="2.66748">
        <ele>957.13</ele>
        <time>2015-06-08T12:12:08Z</time>
      </trkpt>
      <trkpt lat="45.01806" lon="2.66748">
        <ele>954.25</ele>
        <time>2015-06-08T12:12:20Z</time>
      </trkpt>
      <trkpt lat="45.01799" lon="2.66744">
        <ele>949.44</ele>
        <time>2015-06-08T12:12:35Z</time>
      </trkpt>
      <trkpt lat="45.01789" lon="2.66737">
        <ele>947.04</ele>
        <time>2015-06-08T12:12:47Z</time>
      </trkpt>
      <trkpt lat="45.01785" lon="2.66734">
        <ele>944.15</ele>
        <time>2015-06-08T12:12:56Z</time>
      </trkpt>
      <trkpt lat="45.01782" lon="2.66733">
        <ele>943.67</ele>
        <time>2015-06-08T12:12:58Z</time>
      </trkpt>
      <trkpt lat="45.0177" lon="2.66735">
        <ele>942.71</ele>
        <time>2015-06-08T12:13:12Z</time>
      </trkpt>
      <trkpt lat="45.01769" lon="2.66735">
        <ele>942.71</ele>
        <time>2015-06-08T12:13:15Z</time>
      </trkpt>
      <trkpt lat="45.01765" lon="2.66736">
        <ele>940.31</ele>
        <time>2015-06-08T12:13:27Z</time>
      </trkpt>
      <trkpt lat="45.01761" lon="2.66734">
        <ele>940.31</ele>
        <time>2015-06-08T12:13:39Z</time>
      </trkpt>
      <trkpt lat="45.01752" lon="2.66727">
        <ele>935.98</ele>
        <time>2015-06-08T12:13:53Z</time>
      </trkpt>
      <trkpt lat="45.01751" lon="2.66724">
        <ele>934.54</ele>
        <time>2015-06-08T12:14:07Z</time>
      </trkpt>
      <trkpt lat="45.01755" lon="2.66716">
        <ele>931.17</ele>
        <time>2015-06-08T12:14:18Z</time>
      </trkpt>
      <trkpt lat="45.01757" lon="2.66712">
        <ele>927.81</ele>
        <time>2015-06-08T12:14:30Z</time>
      </trkpt>
      <trkpt lat="45.01758" lon="2.66706">
        <ele>925.89</ele>
        <time>2015-06-08T12:14:43Z</time>
      </trkpt>
      <trkpt lat="45.01758" lon="2.66698">
        <ele>922.04</ele>
        <time>2015-06-08T12:14:55Z</time>
      </trkpt>
      <trkpt lat="45.01758" lon="2.66689">
        <ele>918.2</ele>
        <time>2015-06-08T12:15:05Z</time>
      </trkpt>
      <trkpt lat="45.01758" lon="2.66687">
        <ele>917.24</ele>
        <time>2015-06-08T12:15:17Z</time>
      </trkpt>
      <trkpt lat="45.01756" lon="2.66684">
        <ele>914.35</ele>
        <time>2015-06-08T12:15:28Z</time>
      </trkpt>
      <trkpt lat="45.01752" lon="2.66686">
        <ele>909.54</ele>
        <time>2015-06-08T12:15:41Z</time>
      </trkpt>
      <trkpt lat="45.0175" lon="2.66689">
        <ele>907.62</ele>
        <time>2015-06-08T12:15:53Z</time>
      </trkpt>
      <trkpt lat="45.01745" lon="2.66697">
        <ele>906.18</ele>
        <time>2015-06-08T12:16:04Z</time>
      </trkpt>
      <trkpt lat="45.01738" lon="2.66705">
        <ele>905.22</ele>
        <time>2015-06-08T12:16:19Z</time>
      </trkpt>
      <trkpt lat="45.01738" lon="2.66709">
        <ele>905.7</ele>
        <time>2015-06-08T12:16:38Z</time>
      </trkpt>
      <trkpt lat="45.01734" lon="2.66714">
        <ele>905.7</ele>
        <time>2015-06-08T12:16:54Z</time>
      </trkpt>
      <trkpt lat="45.01728" lon="2.66721">
        <ele>906.66</ele>
        <time>2015-06-08T12:17:07Z</time>
      </trkpt>
      <trkpt lat="45.01718" lon="2.66734">
        <ele>907.62</ele>
        <time>2015-06-08T12:17:22Z</time>
      </trkpt>
      <trkpt lat="45.01717" lon="2.66735">
        <ele>907.62</ele>
        <time>2015-06-08T12:17:24Z</time>
      </trkpt>
      <trkpt lat="45.01709" lon="2.66743">
        <ele>907.14</ele>
        <time>2015-06-08T12:17:37Z</time>
      </trkpt>
      <trkpt lat="45.01698" lon="2.66753">
        <ele>904.26</ele>
        <time>2015-06-08T12:17:51Z</time>
      </trkpt>
      <trkpt lat="45.01692" lon="2.66761">
        <ele>900.89</ele>
        <time>2015-06-08T12:18:03Z</time>
      </trkpt>
      <trkpt lat="45.01685" lon="2.66771">
        <ele>898.97</ele>
        <time>2015-06-08T12:18:15Z</time>
      </trkpt>
      <trkpt lat="45.01681" lon="2.66782">
        <ele>895.12</ele>
        <time>2015-06-08T12:18:26Z</time>
      </trkpt>
      <trkpt lat="45.01675" lon="2.66794">
        <ele>897.05</ele>
        <time>2015-06-08T12:18:38Z</time>
      </trkpt>
      <trkpt lat="45.01671" lon="2.66807">
        <ele>896.57</ele>
        <time>2015-06-08T12:18:52Z</time>
      </trkpt>
      <trkpt lat="45.0167" lon="2.66816">
        <ele>893.68</ele>
        <time>2015-06-08T12:19:03Z</time>
      </trkpt>
      <trkpt lat="45.0167" lon="2.66816">
        <ele>893.2</ele>
        <time>2015-06-08T12:19:21Z</time>
      </trkpt>
      <trkpt lat="45.0167" lon="2.66816">
        <ele>892.72</ele>
        <time>2015-06-08T12:19:51Z</time>
      </trkpt>
      <trkpt lat="45.01669" lon="2.66812">
        <ele>891.28</ele>
        <time>2015-06-08T12:20:07Z</time>
      </trkpt>
      <trkpt lat="45.0166" lon="2.66791">
        <ele>886.95</ele>
        <time>2015-06-08T12:20:21Z</time>
      </trkpt>
      <trkpt lat="45.01661" lon="2.66779">
        <ele>884.07</ele>
        <time>2015-06-08T12:20:30Z</time>
      </trkpt>
      <trkpt lat="45.01663" lon="2.66768">
        <ele>880.71</ele>
        <time>2015-06-08T12:20:42Z</time>
      </trkpt>
      <trkpt lat="45.01662" lon="2.66754">
        <ele>877.34</ele>
        <time>2015-06-08T12:20:57Z</time>
      </trkpt>
      <trkpt lat="45.01659" lon="2.66738">
        <ele>874.94</ele>
        <time>2015-06-08T12:21:11Z</time>
      </trkpt>
      <trkpt lat="45.01661" lon="2.66722">
        <ele>870.13</ele>
        <time>2015-06-08T12:21:25Z</time>
      </trkpt>
      <trkpt lat="45.01663" lon="2.66705">
        <ele>866.29</ele>
        <time>2015-06-08T12:21:39Z</time>
      </trkpt>
      <trkpt lat="45.01667" lon="2.66693">
        <ele>863.88</ele>
        <time>2015-06-08T12:21:50Z</time>
      </trkpt>
      <trkpt lat="45.01669" lon="2.66676">
        <ele>858.59</ele>
        <time>2015-06-08T12:22:01Z</time>
      </trkpt>
      <trkpt lat="45.01669" lon="2.66671">
        <ele>857.63</ele>
        <time>2015-06-08T12:22:05Z</time>
      </trkpt>
      <trkpt lat="45.0167" lon="2.66666">
        <ele>857.63</ele>
        <time>2015-06-08T12:22:08Z</time>
      </trkpt>
      <trkpt lat="45.0167" lon="2.6666">
        <ele>857.63</ele>
        <time>2015-06-08T12:22:13Z</time>
      </trkpt>
      <trkpt lat="45.01672" lon="2.66643">
        <ele>853.31</ele>
        <time>2015-06-08T12:22:27Z</time>
      </trkpt>
      <trkpt lat="45.01673" lon="2.66627">
        <ele>849.46</ele>
        <time>2015-06-08T12:22:41Z</time>
      </trkpt>
      <trkpt lat="45.01664" lon="2.66623">
        <ele>850.9</ele>
        <time>2015-06-08T12:22:52Z</time>
      </trkpt>
      <trkpt lat="45.01654" lon="2.66626">
        <ele>849.46</ele>
        <time>2015-06-08T12:23:05Z</time>
      </trkpt>
      <trkpt lat="45.01646" lon="2.66624">
        <ele>849.94</ele>
        <time>2015-06-08T12:23:23Z</time>
      </trkpt>
      <trkpt lat="45.01644" lon="2.66624">
        <ele>850.42</ele>
        <time>2015-06-08T12:23:25Z</time>
      </trkpt>
      <trkpt lat="45.01636" lon="2.66609">
        <ele>847.06</ele>
        <time>2015-06-08T12:23:38Z</time>
      </trkpt>
      <trkpt lat="45.01631" lon="2.66597">
        <ele>846.1</ele>
        <time>2015-06-08T12:23:51Z</time>
      </trkpt>
      <trkpt lat="45.01619" lon="2.66585">
        <ele>845.62</ele>
        <time>2015-06-08T12:24:05Z</time>
      </trkpt>
      <trkpt lat="45.01612" lon="2.66577">
        <ele>843.21</ele>
        <time>2015-06-08T12:24:15Z</time>
      </trkpt>
      <trkpt lat="45.01603" lon="2.66572">
        <ele>840.81</ele>
        <time>2015-06-08T12:24:29Z</time>
      </trkpt>
      <trkpt lat="45.01598" lon="2.66561">
        <ele>836.48</ele>
        <time>2015-06-08T12:24:41Z</time>
      </trkpt>
      <trkpt lat="45.01592" lon="2.66552">
        <ele>833.6</ele>
        <time>2015-06-08T12:24:53Z</time>
      </trkpt>
      <trkpt lat="45.01587" lon="2.66551">
        <ele>834.08</ele>
        <time>2015-06-08T12:24:59Z</time>
      </trkpt>
      <trkpt lat="45.01574" lon="2.6655">
        <ele>830.24</ele>
        <time>2015-06-08T12:25:13Z</time>
      </trkpt>
      <trkpt lat="45.01568" lon="2.66551">
        <ele>829.27</ele>
        <time>2015-06-08T12:25:34Z</time>
      </trkpt>
      <trkpt lat="45.01564" lon="2.66551">
        <ele>828.79</ele>
        <time>2015-06-08T12:25:38Z</time>
      </trkpt>
      <trkpt lat="45.01554" lon="2.66543">
        <ele>825.43</ele>
        <time>2015-06-08T12:25:49Z</time>
      </trkpt>
      <trkpt lat="45.01547" lon="2.66541">
        <ele>824.47</ele>
        <time>2015-06-08T12:25:56Z</time>
      </trkpt>
      <trkpt lat="45.01531" lon="2.66544">
        <ele>825.43</ele>
        <time>2015-06-08T12:26:10Z</time>
      </trkpt>
      <trkpt lat="45.01518" lon="2.66562">
        <ele>823.51</ele>
        <time>2015-06-08T12:26:26Z</time>
      </trkpt>
      <trkpt lat="45.01516" lon="2.66565">
        <ele>823.99</ele>
        <time>2015-06-08T12:26:40Z</time>
      </trkpt>
      <trkpt lat="45.01508" lon="2.66572">
        <ele>822.06</ele>
        <time>2015-06-08T12:26:55Z</time>
      </trkpt>
      <trkpt lat="45.01501" lon="2.66574">
        <ele>821.1</ele>
        <time>2015-06-08T12:27:01Z</time>
      </trkpt>
      <trkpt lat="45.01499" lon="2.66572">
        <ele>821.1</ele>
        <time>2015-06-08T12:27:04Z</time>
      </trkpt>
      <trkpt lat="45.01495" lon="2.66568">
        <ele>820.62</ele>
        <time>2015-06-08T12:27:08Z</time>
      </trkpt>
      <trkpt lat="45.01493" lon="2.66558">
        <ele>820.14</ele>
        <time>2015-06-08T12:27:14Z</time>
      </trkpt>
      <trkpt lat="45.01501" lon="2.66531">
        <ele>819.18</ele>
        <time>2015-06-08T12:27:31Z</time>
      </trkpt>
      <trkpt lat="45.01503" lon="2.66523">
        <ele>818.22</ele>
        <time>2015-06-08T12:27:37Z</time>
      </trkpt>
      <trkpt lat="45.01511" lon="2.66503">
        <ele>815.82</ele>
        <time>2015-06-08T12:27:51Z</time>
      </trkpt>
      <trkpt lat="45.01512" lon="2.66483">
        <ele>811.01</ele>
        <time>2015-06-08T12:28:04Z</time>
      </trkpt>
      <trkpt lat="45.01514" lon="2.6647">
        <ele>806.68</ele>
        <time>2015-06-08T12:28:19Z</time>
      </trkpt>
      <trkpt lat="45.01516" lon="2.66465">
        <ele>806.2</ele>
        <time>2015-06-08T12:28:38Z</time>
      </trkpt>
      <trkpt lat="45.01516" lon="2.66447">
        <ele>805.24</ele>
        <time>2015-06-08T12:28:51Z</time>
      </trkpt>
      <trkpt lat="45.01512" lon="2.66438">
        <ele>807.16</ele>
        <time>2015-06-08T12:29:00Z</time>
      </trkpt>
      <trkpt lat="45.01501" lon="2.66432">
        <ele>806.68</ele>
        <time>2015-06-08T12:29:13Z</time>
      </trkpt>
      <trkpt lat="45.01493" lon="2.66429">
        <ele>809.09</ele>
        <time>2015-06-08T12:29:24Z</time>
      </trkpt>
      <trkpt lat="45.01492" lon="2.66429">
        <ele>809.57</ele>
        <time>2015-06-08T12:29:25Z</time>
      </trkpt>
      <trkpt lat="45.01471" lon="2.66446">
        <ele>818.7</ele>
        <time>2015-06-08T12:29:45Z</time>
      </trkpt>
      <trkpt lat="45.01465" lon="2.66463">
        <ele>818.22</ele>
        <time>2015-06-08T12:29:56Z</time>
      </trkpt>
      <trkpt lat="45.01463" lon="2.66471">
        <ele>816.78</ele>
        <time>2015-06-08T12:30:01Z</time>
      </trkpt>
      <trkpt lat="45.0146" lon="2.66475">
        <ele>816.3</ele>
        <time>2015-06-08T12:30:05Z</time>
      </trkpt>
      <trkpt lat="45.01455" lon="2.66486">
        <ele>817.26</ele>
        <time>2015-06-08T12:30:18Z</time>
      </trkpt>
      <trkpt lat="45.01454" lon="2.66481">
        <ele>819.18</ele>
        <time>2015-06-08T12:30:33Z</time>
      </trkpt>
      <trkpt lat="45.01453" lon="2.66484">
        <ele>821.1</ele>
        <time>2015-06-08T12:30:49Z</time>
      </trkpt>
      <trkpt lat="45.01453" lon="2.66483">
        <ele>820.62</ele>
        <time>2015-06-08T12:31:15Z</time>
      </trkpt>
      <trkpt lat="45.01453" lon="2.66483">
        <ele>821.1</ele>
        <time>2015-06-08T12:31:47Z</time>
      </trkpt>
      <trkpt lat="45.01455" lon="2.66483">
        <ele>821.58</ele>
        <time>2015-06-08T12:32:21Z</time>
      </trkpt>
      <trkpt lat="45.01455" lon="2.66482">
        <ele>821.1</ele>
        <time>2015-06-08T12:32:54Z</time>
      </trkpt>
      <trkpt lat="45.01454" lon="2.66482">
        <ele>820.62</ele>
        <time>2015-06-08T12:33:30Z</time>
      </trkpt>
      <trkpt lat="45.01454" lon="2.66483">
        <ele>820.62</ele>
        <time>2015-06-08T12:34:05Z</time>
      </trkpt>
      <trkpt lat="45.01454" lon="2.66484">
        <ele>820.14</ele>
        <time>2015-06-08T12:34:41Z</time>
      </trkpt>
      <trkpt lat="45.01454" lon="2.66484">
        <ele>819.66</ele>
        <time>2015-06-08T12:35:18Z</time>
      </trkpt>
      <trkpt lat="45.01454" lon="2.66485">
        <ele>819.18</ele>
        <time>2015-06-08T12:35:51Z</time>
      </trkpt>
      <trkpt lat="45.01455" lon="2.66485">
        <ele>819.18</ele>
        <time>2015-06-08T12:36:18Z</time>
      </trkpt>
      <trkpt lat="45.01455" lon="2.66485">
        <ele>819.18</ele>
        <time>2015-06-08T12:36:48Z</time>
      </trkpt>
      <trkpt lat="45.01456" lon="2.66485">
        <ele>819.18</ele>
        <time>2015-06-08T12:37:21Z</time>
      </trkpt>
      <trkpt lat="45.01456" lon="2.66485">
        <ele>819.18</ele>
        <time>2015-06-08T12:37:54Z</time>
      </trkpt>
      <trkpt lat="45.01455" lon="2.66484">
        <ele>820.14</ele>
        <time>2015-06-08T12:38:17Z</time>
      </trkpt>
      <trkpt lat="45.01454" lon="2.66485">
        <ele>819.66</ele>
        <time>2015-06-08T12:38:30Z</time>
      </trkpt>
      <trkpt lat="45.01454" lon="2.66485">
        <ele>818.7</ele>
        <time>2015-06-08T12:38:49Z</time>
      </trkpt>
      <trkpt lat="45.01454" lon="2.66485">
        <ele>818.22</ele>
        <time>2015-06-08T12:39:08Z</time>
      </trkpt>
      <trkpt lat="45.01456" lon="2.66485">
        <ele>817.74</ele>
        <time>2015-06-08T12:39:26Z</time>
      </trkpt>
      <trkpt lat="45.01455" lon="2.66489">
        <ele>818.7</ele>
        <time>2015-06-08T12:39:38Z</time>
      </trkpt>
      <trkpt lat="45.01446" lon="2.6651">
        <ele>822.55</ele>
        <time>2015-06-08T12:39:51Z</time>
      </trkpt>
      <trkpt lat="45.0144" lon="2.66537">
        <ele>823.99</ele>
        <time>2015-06-08T12:40:08Z</time>
      </trkpt>
      <trkpt lat="45.01437" lon="2.6656">
        <ele>824.95</ele>
        <time>2015-06-08T12:40:22Z</time>
      </trkpt>
      <trkpt lat="45.01437" lon="2.66584">
        <ele>822.55</ele>
        <time>2015-06-08T12:40:34Z</time>
      </trkpt>
      <trkpt lat="45.01437" lon="2.66588">
        <ele>822.06</ele>
        <time>2015-06-08T12:40:37Z</time>
      </trkpt>
      <trkpt lat="45.01439" lon="2.66596">
        <ele>819.66</ele>
        <time>2015-06-08T12:40:42Z</time>
      </trkpt>
      <trkpt lat="45.01444" lon="2.6662">
        <ele>812.93</ele>
        <time>2015-06-08T12:40:58Z</time>
      </trkpt>
      <trkpt lat="45.01447" lon="2.6664">
        <ele>811.49</ele>
        <time>2015-06-08T12:41:10Z</time>
      </trkpt>
      <trkpt lat="45.01449" lon="2.6665">
        <ele>809.57</ele>
        <time>2015-06-08T12:41:16Z</time>
      </trkpt>
      <trkpt lat="45.01454" lon="2.66671">
        <ele>805.24</ele>
        <time>2015-06-08T12:41:29Z</time>
      </trkpt>
      <trkpt lat="45.01454" lon="2.66677">
        <ele>804.76</ele>
        <time>2015-06-08T12:41:33Z</time>
      </trkpt>
      <trkpt lat="45.01454" lon="2.66694">
        <ele>803.8</ele>
        <time>2015-06-08T12:41:45Z</time>
      </trkpt>
      <trkpt lat="45.01456" lon="2.66704">
        <ele>802.84</ele>
        <time>2015-06-08T12:41:51Z</time>
      </trkpt>
      <trkpt lat="45.01465" lon="2.66722">
        <ele>799.95</ele>
        <time>2015-06-08T12:42:04Z</time>
      </trkpt>
      <trkpt lat="45.01467" lon="2.66725">
        <ele>799.47</ele>
        <time>2015-06-08T12:42:06Z</time>
      </trkpt>
      <trkpt lat="45.01474" lon="2.66738">
        <ele>795.15</ele>
        <time>2015-06-08T12:42:19Z</time>
      </trkpt>
      <trkpt lat="45.01476" lon="2.66738">
        <ele>793.71</ele>
        <time>2015-06-08T12:42:34Z</time>
      </trkpt>
      <trkpt lat="45.01475" lon="2.66738">
        <ele>793.71</ele>
        <time>2015-06-08T12:43:00Z</time>
      </trkpt>
      <trkpt lat="45.01473" lon="2.66738">
        <ele>793.71</ele>
        <time>2015-06-08T12:43:27Z</time>
      </trkpt>
      <trkpt lat="45.0147" lon="2.66738">
        <ele>793.71</ele>
        <time>2015-06-08T12:43:36Z</time>
      </trkpt>
      <trkpt lat="45.01467" lon="2.6674">
        <ele>793.22</ele>
        <time>2015-06-08T12:43:44Z</time>
      </trkpt>
      <trkpt lat="45.01464" lon="2.66742">
        <ele>790.82</ele>
        <time>2015-06-08T12:43:58Z</time>
      </trkpt>
      <trkpt lat="45.01461" lon="2.66749">
        <ele>791.78</ele>
        <time>2015-06-08T12:44:07Z</time>
      </trkpt>
      <trkpt lat="45.01458" lon="2.66756">
        <ele>793.22</ele>
        <time>2015-06-08T12:44:12Z</time>
      </trkpt>
      <trkpt lat="45.0146" lon="2.66776">
        <ele>795.63</ele>
        <time>2015-06-08T12:44:25Z</time>
      </trkpt>
      <trkpt lat="45.01465" lon="2.66788">
        <ele>791.78</ele>
        <time>2015-06-08T12:44:39Z</time>
      </trkpt>
      <trkpt lat="45.01466" lon="2.66794">
        <ele>789.86</ele>
        <time>2015-06-08T12:44:55Z</time>
      </trkpt>
      <trkpt lat="45.0147" lon="2.66797">
        <ele>788.9</ele>
        <time>2015-06-08T12:44:59Z</time>
      </trkpt>
      <trkpt lat="45.01472" lon="2.66798">
        <ele>788.42</ele>
        <time>2015-06-08T12:45:01Z</time>
      </trkpt>
      <trkpt lat="45.01483" lon="2.66802">
        <ele>786.02</ele>
        <time>2015-06-08T12:45:14Z</time>
      </trkpt>
      <trkpt lat="45.01488" lon="2.6681">
        <ele>785.53</ele>
        <time>2015-06-08T12:45:22Z</time>
      </trkpt>
      <trkpt lat="45.01489" lon="2.66817">
        <ele>785.53</ele>
        <time>2015-06-08T12:45:26Z</time>
      </trkpt>
      <trkpt lat="45.01474" lon="2.66835">
        <ele>784.57</ele>
        <time>2015-06-08T12:45:41Z</time>
      </trkpt>
      <trkpt lat="45.01467" lon="2.66845">
        <ele>783.13</ele>
        <time>2015-06-08T12:45:49Z</time>
      </trkpt>
      <trkpt lat="45.01467" lon="2.66846">
        <ele>783.13</ele>
        <time>2015-06-08T12:45:50Z</time>
      </trkpt>
      <trkpt lat="45.01461" lon="2.6686">
        <ele>783.13</ele>
        <time>2015-06-08T12:46:04Z</time>
      </trkpt>
      <trkpt lat="45.01464" lon="2.66864">
        <ele>782.17</ele>
        <time>2015-06-08T12:46:09Z</time>
      </trkpt>
      <trkpt lat="45.01469" lon="2.66875">
        <ele>781.21</ele>
        <time>2015-06-08T12:46:23Z</time>
      </trkpt>
      <trkpt lat="45.01471" lon="2.66878">
        <ele>781.69</ele>
        <time>2015-06-08T12:46:27Z</time>
      </trkpt>
      <trkpt lat="45.01473" lon="2.66881">
        <ele>781.21</ele>
        <time>2015-06-08T12:46:30Z</time>
      </trkpt>
      <trkpt lat="45.01477" lon="2.66885">
        <ele>780.73</ele>
        <time>2015-06-08T12:46:35Z</time>
      </trkpt>
      <trkpt lat="45.01471" lon="2.66894">
        <ele>779.77</ele>
        <time>2015-06-08T12:46:49Z</time>
      </trkpt>
      <trkpt lat="45.01468" lon="2.66895">
        <ele>779.77</ele>
        <time>2015-06-08T12:46:52Z</time>
      </trkpt>
      <trkpt lat="45.01456" lon="2.66878">
        <ele>780.25</ele>
        <time>2015-06-08T12:47:07Z</time>
      </trkpt>
      <trkpt lat="45.01446" lon="2.66875">
        <ele>776.88</ele>
        <time>2015-06-08T12:47:18Z</time>
      </trkpt>
      <trkpt lat="45.01435" lon="2.66862">
        <ele>777.36</ele>
        <time>2015-06-08T12:47:31Z</time>
      </trkpt>
      <trkpt lat="45.01428" lon="2.66859">
        <ele>776.4</ele>
        <time>2015-06-08T12:47:39Z</time>
      </trkpt>
      <trkpt lat="45.01425" lon="2.66879">
        <ele>772.08</ele>
        <time>2015-06-08T12:47:54Z</time>
      </trkpt>
      <trkpt lat="45.01425" lon="2.6688">
        <ele>772.56</ele>
        <time>2015-06-08T12:47:55Z</time>
      </trkpt>
      <trkpt lat="45.01427" lon="2.66891">
        <ele>773.04</ele>
        <time>2015-06-08T12:48:01Z</time>
      </trkpt>
      <trkpt lat="45.01439" lon="2.66908">
        <ele>771.11</ele>
        <time>2015-06-08T12:48:15Z</time>
      </trkpt>
      <trkpt lat="45.01448" lon="2.66918">
        <ele>769.67</ele>
        <time>2015-06-08T12:48:25Z</time>
      </trkpt>
      <trkpt lat="45.01453" lon="2.66928">
        <ele>769.67</ele>
        <time>2015-06-08T12:48:32Z</time>
      </trkpt>
      <trkpt lat="45.01442" lon="2.66946">
        <ele>768.71</ele>
        <time>2015-06-08T12:48:48Z</time>
      </trkpt>
      <trkpt lat="45.01441" lon="2.66946">
        <ele>768.71</ele>
        <time>2015-06-08T12:48:49Z</time>
      </trkpt>
      <trkpt lat="45.01434" lon="2.66951">
        <ele>766.79</ele>
        <time>2015-06-08T12:49:00Z</time>
      </trkpt>
      <trkpt lat="45.01432" lon="2.66955">
        <ele>767.27</ele>
        <time>2015-06-08T12:49:04Z</time>
      </trkpt>
      <trkpt lat="45.01431" lon="2.66958">
        <ele>767.27</ele>
        <time>2015-06-08T12:49:06Z</time>
      </trkpt>
      <trkpt lat="45.0143" lon="2.66961">
        <ele>767.27</ele>
        <time>2015-06-08T12:49:15Z</time>
      </trkpt>
      <trkpt lat="45.01434" lon="2.66952">
        <ele>764.87</ele>
        <time>2015-06-08T12:49:23Z</time>
      </trkpt>
      <trkpt lat="45.01437" lon="2.66951">
        <ele>764.39</ele>
        <time>2015-06-08T12:49:26Z</time>
      </trkpt>
      <trkpt lat="45.01442" lon="2.66957">
        <ele>762.94</ele>
        <time>2015-06-08T12:49:32Z</time>
      </trkpt>
      <trkpt lat="45.01444" lon="2.66959">
        <ele>763.42</ele>
        <time>2015-06-08T12:49:34Z</time>
      </trkpt>
      <trkpt lat="45.01448" lon="2.66965">
        <ele>763.42</ele>
        <time>2015-06-08T12:49:39Z</time>
      </trkpt>
      <trkpt lat="45.01456" lon="2.66978">
        <ele>763.42</ele>
        <time>2015-06-08T12:49:50Z</time>
      </trkpt>
      <trkpt lat="45.01463" lon="2.67001">
        <ele>762.94</ele>
        <time>2015-06-08T12:50:08Z</time>
      </trkpt>
      <trkpt lat="45.01471" lon="2.67021">
        <ele>762.94</ele>
        <time>2015-06-08T12:50:26Z</time>
      </trkpt>
      <trkpt lat="45.01481" lon="2.67037">
        <ele>763.42</ele>
        <time>2015-06-08T12:50:46Z</time>
      </trkpt>
      <trkpt lat="45.01481" lon="2.67046">
        <ele>762.94</ele>
        <time>2015-06-08T12:51:00Z</time>
      </trkpt>
      <trkpt lat="45.01475" lon="2.67066">
        <ele>758.62</ele>
        <time>2015-06-08T12:51:15Z</time>
      </trkpt>
      <trkpt lat="45.01475" lon="2.6707">
        <ele>758.62</ele>
        <time>2015-06-08T12:51:17Z</time>
      </trkpt>
      <trkpt lat="45.01473" lon="2.67079">
        <ele>757.66</ele>
        <time>2015-06-08T12:51:22Z</time>
      </trkpt>
      <trkpt lat="45.0147" lon="2.67101">
        <ele>756.21</ele>
        <time>2015-06-08T12:51:36Z</time>
      </trkpt>
      <trkpt lat="45.01469" lon="2.67109">
        <ele>757.18</ele>
        <time>2015-06-08T12:51:42Z</time>
      </trkpt>
      <trkpt lat="45.01461" lon="2.67128">
        <ele>763.9</ele>
        <time>2015-06-08T12:51:57Z</time>
      </trkpt>
      <trkpt lat="45.01452" lon="2.67142">
        <ele>768.23</ele>
        <time>2015-06-08T12:52:11Z</time>
      </trkpt>
      <trkpt lat="45.01445" lon="2.6715">
        <ele>770.63</ele>
        <time>2015-06-08T12:52:19Z</time>
      </trkpt>
      <trkpt lat="45.0143" lon="2.67164">
        <ele>769.67</ele>
        <time>2015-06-08T12:52:36Z</time>
      </trkpt>
      <trkpt lat="45.01422" lon="2.67182">
        <ele>768.23</ele>
        <time>2015-06-08T12:52:52Z</time>
      </trkpt>
      <trkpt lat="45.0142" lon="2.67196">
        <ele>769.67</ele>
        <time>2015-06-08T12:53:02Z</time>
      </trkpt>
      <trkpt lat="45.01421" lon="2.67208">
        <ele>771.11</ele>
        <time>2015-06-08T12:53:10Z</time>
      </trkpt>
      <trkpt lat="45.01421" lon="2.67211">
        <ele>772.08</ele>
        <time>2015-06-08T12:53:12Z</time>
      </trkpt>
      <trkpt lat="45.01422" lon="2.67229">
        <ele>776.4</ele>
        <time>2015-06-08T12:53:22Z</time>
      </trkpt>
      <trkpt lat="45.01423" lon="2.6724">
        <ele>778.81</ele>
        <time>2015-06-08T12:53:29Z</time>
      </trkpt>
      <trkpt lat="45.01422" lon="2.67258">
        <ele>783.13</ele>
        <time>2015-06-08T12:53:42Z</time>
      </trkpt>
      <trkpt lat="45.01422" lon="2.67272">
        <ele>787.46</ele>
        <time>2015-06-08T12:53:51Z</time>
      </trkpt>
      <trkpt lat="45.01423" lon="2.67275">
        <ele>788.42</ele>
        <time>2015-06-08T12:53:53Z</time>
      </trkpt>
      <trkpt lat="45.01423" lon="2.67281">
        <ele>789.38</ele>
        <time>2015-06-08T12:53:57Z</time>
      </trkpt>
      <trkpt lat="45.01424" lon="2.67303">
        <ele>788.9</ele>
        <time>2015-06-08T12:54:11Z</time>
      </trkpt>
      <trkpt lat="45.01424" lon="2.67325">
        <ele>792.74</ele>
        <time>2015-06-08T12:54:24Z</time>
      </trkpt>
      <trkpt lat="45.01425" lon="2.6733">
        <ele>794.67</ele>
        <time>2015-06-08T12:54:27Z</time>
      </trkpt>
      <trkpt lat="45.01427" lon="2.67349">
        <ele>795.15</ele>
        <time>2015-06-08T12:54:40Z</time>
      </trkpt>
      <trkpt lat="45.01428" lon="2.67351">
        <ele>794.19</ele>
        <time>2015-06-08T12:54:42Z</time>
      </trkpt>
      <trkpt lat="45.0143" lon="2.67372">
        <ele>796.11</ele>
        <time>2015-06-08T12:54:57Z</time>
      </trkpt>
      <trkpt lat="45.01429" lon="2.67389">
        <ele>795.63</ele>
        <time>2015-06-08T12:55:08Z</time>
      </trkpt>
      <trkpt lat="45.01424" lon="2.67401">
        <ele>780.73</ele>
        <time>2015-06-08T12:55:22Z</time>
      </trkpt>
      <trkpt lat="45.01421" lon="2.67407">
        <ele>779.77</ele>
        <time>2015-06-08T12:55:28Z</time>
      </trkpt>
      <trkpt lat="45.0141" lon="2.67416">
        <ele>778.81</ele>
        <time>2015-06-08T12:55:42Z</time>
      </trkpt>
      <trkpt lat="45.01408" lon="2.67417">
        <ele>778.81</ele>
        <time>2015-06-08T12:55:45Z</time>
      </trkpt>
      <trkpt lat="45.01394" lon="2.67415">
        <ele>775.92</ele>
        <time>2015-06-08T12:55:58Z</time>
      </trkpt>
      <trkpt lat="45.01392" lon="2.67416">
        <ele>775.44</ele>
        <time>2015-06-08T12:56:01Z</time>
      </trkpt>
      <trkpt lat="45.01388" lon="2.67415">
        <ele>774.48</ele>
        <time>2015-06-08T12:56:06Z</time>
      </trkpt>
      <trkpt lat="45.01376" lon="2.67415">
        <ele>772.08</ele>
        <time>2015-06-08T12:56:20Z</time>
      </trkpt>
      <trkpt lat="45.01367" lon="2.67418">
        <ele>776.4</ele>
        <time>2015-06-08T12:56:33Z</time>
      </trkpt>
      <trkpt lat="45.01358" lon="2.67427">
        <ele>778.81</ele>
        <time>2015-06-08T12:56:46Z</time>
      </trkpt>
      <trkpt lat="45.01356" lon="2.67434">
        <ele>780.73</ele>
        <time>2015-06-08T12:57:00Z</time>
      </trkpt>
      <trkpt lat="45.01355" lon="2.67437">
        <ele>781.21</ele>
        <time>2015-06-08T12:57:03Z</time>
      </trkpt>
      <trkpt lat="45.01354" lon="2.67444">
        <ele>782.17</ele>
        <time>2015-06-08T12:57:08Z</time>
      </trkpt>
      <trkpt lat="45.01355" lon="2.67461">
        <ele>779.77</ele>
        <time>2015-06-08T12:57:22Z</time>
      </trkpt>
      <trkpt lat="45.0136" lon="2.67477">
        <ele>782.17</ele>
        <time>2015-06-08T12:57:37Z</time>
      </trkpt>
      <trkpt lat="45.01359" lon="2.6748">
        <ele>783.13</ele>
        <time>2015-06-08T12:57:40Z</time>
      </trkpt>
      <trkpt lat="45.01363" lon="2.67485">
        <ele>783.13</ele>
        <time>2015-06-08T12:57:49Z</time>
      </trkpt>
      <trkpt lat="45.01372" lon="2.67497">
        <ele>783.61</ele>
        <time>2015-06-08T12:58:02Z</time>
      </trkpt>
      <trkpt lat="45.01374" lon="2.67512">
        <ele>786.02</ele>
        <time>2015-06-08T12:58:17Z</time>
      </trkpt>
      <trkpt lat="45.01379" lon="2.67529">
        <ele>786.02</ele>
        <time>2015-06-08T12:58:34Z</time>
      </trkpt>
      <trkpt lat="45.01382" lon="2.67545">
        <ele>790.34</ele>
        <time>2015-06-08T12:58:48Z</time>
      </trkpt>
      <trkpt lat="45.01384" lon="2.67562">
        <ele>791.3</ele>
        <time>2015-06-08T12:59:03Z</time>
      </trkpt>
      <trkpt lat="45.01386" lon="2.67578">
        <ele>794.67</ele>
        <time>2015-06-08T12:59:17Z</time>
      </trkpt>
      <trkpt lat="45.01386" lon="2.6758">
        <ele>795.15</ele>
        <time>2015-06-08T12:59:19Z</time>
      </trkpt>
      <trkpt lat="45.01388" lon="2.67593">
        <ele>796.11</ele>
        <time>2015-06-08T12:59:33Z</time>
      </trkpt>
      <trkpt lat="45.0139" lon="2.67606">
        <ele>796.11</ele>
        <time>2015-06-08T12:59:45Z</time>
      </trkpt>
      <trkpt lat="45.01389" lon="2.67615">
        <ele>796.59</ele>
        <time>2015-06-08T12:59:52Z</time>
      </trkpt>
      <trkpt lat="45.0139" lon="2.67633">
        <ele>798.03</ele>
        <time>2015-06-08T13:00:07Z</time>
      </trkpt>
      <trkpt lat="45.0139" lon="2.67652">
        <ele>800.44</ele>
        <time>2015-06-08T13:00:23Z</time>
      </trkpt>
      <trkpt lat="45.0139" lon="2.67659">
        <ele>800.44</ele>
        <time>2015-06-08T13:00:38Z</time>
      </trkpt>
      <trkpt lat="45.0139" lon="2.67674">
        <ele>800.92</ele>
        <time>2015-06-08T13:00:50Z</time>
      </trkpt>
      <trkpt lat="45.01386" lon="2.67684">
        <ele>800.44</ele>
        <time>2015-06-08T13:01:02Z</time>
      </trkpt>
      <trkpt lat="45.01376" lon="2.67698">
        <ele>799.95</ele>
        <time>2015-06-08T13:01:18Z</time>
      </trkpt>
      <trkpt lat="45.01372" lon="2.67707">
        <ele>800.92</ele>
        <time>2015-06-08T13:01:28Z</time>
      </trkpt>
      <trkpt lat="45.01366" lon="2.67721">
        <ele>801.4</ele>
        <time>2015-06-08T13:01:43Z</time>
      </trkpt>
      <trkpt lat="45.01362" lon="2.67733">
        <ele>802.84</ele>
        <time>2015-06-08T13:01:59Z</time>
      </trkpt>
      <trkpt lat="45.0136" lon="2.67752">
        <ele>803.8</ele>
        <time>2015-06-08T13:02:14Z</time>
      </trkpt>
      <trkpt lat="45.01365" lon="2.67765">
        <ele>805.24</ele>
        <time>2015-06-08T13:02:26Z</time>
      </trkpt>
      <trkpt lat="45.01372" lon="2.67774">
        <ele>806.68</ele>
        <time>2015-06-08T13:02:40Z</time>
      </trkpt>
      <trkpt lat="45.01378" lon="2.67787">
        <ele>806.2</ele>
        <time>2015-06-08T13:02:53Z</time>
      </trkpt>
      <trkpt lat="45.01384" lon="2.67794">
        <ele>807.64</ele>
        <time>2015-06-08T13:03:03Z</time>
      </trkpt>
      <trkpt lat="45.01387" lon="2.678">
        <ele>809.09</ele>
        <time>2015-06-08T13:03:09Z</time>
      </trkpt>
      <trkpt lat="45.01392" lon="2.67814">
        <ele>810.05</ele>
        <time>2015-06-08T13:03:23Z</time>
      </trkpt>
      <trkpt lat="45.01396" lon="2.67829">
        <ele>810.53</ele>
        <time>2015-06-08T13:03:38Z</time>
      </trkpt>
      <trkpt lat="45.01403" lon="2.67844">
        <ele>811.97</ele>
        <time>2015-06-08T13:03:53Z</time>
      </trkpt>
      <trkpt lat="45.01406" lon="2.67853">
        <ele>814.37</ele>
        <time>2015-06-08T13:04:02Z</time>
      </trkpt>
      <trkpt lat="45.01412" lon="2.67866">
        <ele>816.3</ele>
        <time>2015-06-08T13:04:16Z</time>
      </trkpt>
      <trkpt lat="45.01417" lon="2.67874">
        <ele>817.74</ele>
        <time>2015-06-08T13:04:25Z</time>
      </trkpt>
      <trkpt lat="45.01424" lon="2.67886">
        <ele>820.14</ele>
        <time>2015-06-08T13:04:38Z</time>
      </trkpt>
      <trkpt lat="45.01431" lon="2.67894">
        <ele>821.58</ele>
        <time>2015-06-08T13:04:51Z</time>
      </trkpt>
      <trkpt lat="45.0144" lon="2.67907">
        <ele>822.06</ele>
        <time>2015-06-08T13:05:07Z</time>
      </trkpt>
      <trkpt lat="45.01447" lon="2.67914">
        <ele>821.1</ele>
        <time>2015-06-08T13:05:20Z</time>
      </trkpt>
      <trkpt lat="45.01459" lon="2.67922">
        <ele>821.58</ele>
        <time>2015-06-08T13:05:34Z</time>
      </trkpt>
      <trkpt lat="45.01467" lon="2.67929">
        <ele>821.58</ele>
        <time>2015-06-08T13:05:48Z</time>
      </trkpt>
      <trkpt lat="45.01472" lon="2.67936">
        <ele>823.03</ele>
        <time>2015-06-08T13:06:02Z</time>
      </trkpt>
      <trkpt lat="45.01473" lon="2.67941">
        <ele>823.99</ele>
        <time>2015-06-08T13:06:07Z</time>
      </trkpt>
      <trkpt lat="45.01475" lon="2.67958">
        <ele>825.91</ele>
        <time>2015-06-08T13:06:21Z</time>
      </trkpt>
      <trkpt lat="45.01476" lon="2.67967">
        <ele>825.91</ele>
        <time>2015-06-08T13:06:35Z</time>
      </trkpt>
      <trkpt lat="45.01478" lon="2.67974">
        <ele>825.43</ele>
        <time>2015-06-08T13:06:48Z</time>
      </trkpt>
      <trkpt lat="45.01478" lon="2.67978">
        <ele>825.91</ele>
        <time>2015-06-08T13:07:01Z</time>
      </trkpt>
      <trkpt lat="45.01478" lon="2.67981">
        <ele>825.43</ele>
        <time>2015-06-08T13:07:15Z</time>
      </trkpt>
      <trkpt lat="45.01477" lon="2.67985">
        <ele>823.99</ele>
        <time>2015-06-08T13:07:29Z</time>
      </trkpt>
      <trkpt lat="45.01477" lon="2.6799">
        <ele>825.43</ele>
        <time>2015-06-08T13:07:46Z</time>
      </trkpt>
      <trkpt lat="45.01477" lon="2.67999">
        <ele>826.87</ele>
        <time>2015-06-08T13:07:58Z</time>
      </trkpt>
      <trkpt lat="45.01473" lon="2.68007">
        <ele>827.35</ele>
        <time>2015-06-08T13:08:09Z</time>
      </trkpt>
      <trkpt lat="45.01471" lon="2.68011">
        <ele>828.31</ele>
        <time>2015-06-08T13:08:20Z</time>
      </trkpt>
      <trkpt lat="45.01471" lon="2.68011">
        <ele>828.31</ele>
        <time>2015-06-08T13:08:40Z</time>
      </trkpt>
      <trkpt lat="45.01471" lon="2.68011">
        <ele>828.31</ele>
        <time>2015-06-08T13:09:06Z</time>
      </trkpt>
      <trkpt lat="45.01471" lon="2.68011">
        <ele>828.31</ele>
        <time>2015-06-08T13:09:31Z</time>
      </trkpt>
      <trkpt lat="45.01471" lon="2.6801">
        <ele>828.31</ele>
        <time>2015-06-08T13:09:59Z</time>
      </trkpt>
      <trkpt lat="45.01471" lon="2.6801">
        <ele>828.79</ele>
        <time>2015-06-08T13:10:28Z</time>
      </trkpt>
      <trkpt lat="45.0147" lon="2.68009">
        <ele>827.83</ele>
        <time>2015-06-08T13:10:51Z</time>
      </trkpt>
      <trkpt lat="45.0147" lon="2.68009">
        <ele>828.31</ele>
        <time>2015-06-08T13:11:07Z</time>
      </trkpt>
      <trkpt lat="45.0147" lon="2.68008">
        <ele>828.31</ele>
        <time>2015-06-08T13:11:22Z</time>
      </trkpt>
      <trkpt lat="45.0147" lon="2.68008">
        <ele>828.79</ele>
        <time>2015-06-08T13:11:37Z</time>
      </trkpt>
      <trkpt lat="45.01472" lon="2.68008">
        <ele>828.79</ele>
        <time>2015-06-08T13:11:40Z</time>
      </trkpt>
      <trkpt lat="45.01478" lon="2.6802">
        <ele>829.27</ele>
        <time>2015-06-08T13:11:53Z</time>
      </trkpt>
      <trkpt lat="45.01481" lon="2.68029">
        <ele>831.68</ele>
        <time>2015-06-08T13:12:02Z</time>
      </trkpt>
      <trkpt lat="45.01485" lon="2.68045">
        <ele>833.12</ele>
        <time>2015-06-08T13:12:18Z</time>
      </trkpt>
      <trkpt lat="45.01484" lon="2.68054">
        <ele>834.56</ele>
        <time>2015-06-08T13:12:29Z</time>
      </trkpt>
      <trkpt lat="45.01487" lon="2.68069">
        <ele>837.93</ele>
        <time>2015-06-08T13:12:43Z</time>
      </trkpt>
      <trkpt lat="45.01492" lon="2.68082">
        <ele>838.89</ele>
        <time>2015-06-08T13:12:57Z</time>
      </trkpt>
      <trkpt lat="45.01493" lon="2.68083">
        <ele>838.89</ele>
        <time>2015-06-08T13:12:58Z</time>
      </trkpt>
      <trkpt lat="45.01497" lon="2.68099">
        <ele>839.85</ele>
        <time>2015-06-08T13:13:12Z</time>
      </trkpt>
      <trkpt lat="45.01497" lon="2.681">
        <ele>840.33</ele>
        <time>2015-06-08T13:13:13Z</time>
      </trkpt>
      <trkpt lat="45.01498" lon="2.68111">
        <ele>837.93</ele>
        <time>2015-06-08T13:13:22Z</time>
      </trkpt>
      <trkpt lat="45.01503" lon="2.68126">
        <ele>838.41</ele>
        <time>2015-06-08T13:13:34Z</time>
      </trkpt>
      <trkpt lat="45.01502" lon="2.68138">
        <ele>839.85</ele>
        <time>2015-06-08T13:13:44Z</time>
      </trkpt>
      <trkpt lat="45.01499" lon="2.68151">
        <ele>840.33</ele>
        <time>2015-06-08T13:13:58Z</time>
      </trkpt>
      <trkpt lat="45.01496" lon="2.68155">
        <ele>841.29</ele>
        <time>2015-06-08T13:14:11Z</time>
      </trkpt>
      <trkpt lat="45.01482" lon="2.68162">
        <ele>840.81</ele>
        <time>2015-06-08T13:14:27Z</time>
      </trkpt>
      <trkpt lat="45.01479" lon="2.68164">
        <ele>841.29</ele>
        <time>2015-06-08T13:14:31Z</time>
      </trkpt>
      <trkpt lat="45.01468" lon="2.68169">
        <ele>844.18</ele>
        <time>2015-06-08T13:14:46Z</time>
      </trkpt>
      <trkpt lat="45.01459" lon="2.68173">
        <ele>846.1</ele>
        <time>2015-06-08T13:14:59Z</time>
      </trkpt>
      <trkpt lat="45.01448" lon="2.68177">
        <ele>850.9</ele>
        <time>2015-06-08T13:15:13Z</time>
      </trkpt>
      <trkpt lat="45.0144" lon="2.68181">
        <ele>852.83</ele>
        <time>2015-06-08T13:15:24Z</time>
      </trkpt>
      <trkpt lat="45.01428" lon="2.68185">
        <ele>855.71</ele>
        <time>2015-06-08T13:15:38Z</time>
      </trkpt>
      <trkpt lat="45.01422" lon="2.68187">
        <ele>856.67</ele>
        <time>2015-06-08T13:15:46Z</time>
      </trkpt>
      <trkpt lat="45.0141" lon="2.68191">
        <ele>852.83</ele>
        <time>2015-06-08T13:15:59Z</time>
      </trkpt>
      <trkpt lat="45.01397" lon="2.68194">
        <ele>854.75</ele>
        <time>2015-06-08T13:16:14Z</time>
      </trkpt>
      <trkpt lat="45.0139" lon="2.68189">
        <ele>856.19</ele>
        <time>2015-06-08T13:16:27Z</time>
      </trkpt>
      <trkpt lat="45.01376" lon="2.68191">
        <ele>854.27</ele>
        <time>2015-06-08T13:16:39Z</time>
      </trkpt>
      <trkpt lat="45.01362" lon="2.68196">
        <ele>851.87</ele>
        <time>2015-06-08T13:16:53Z</time>
      </trkpt>
      <trkpt lat="45.01354" lon="2.68198">
        <ele>850.42</ele>
        <time>2015-06-08T13:17:05Z</time>
      </trkpt>
      <trkpt lat="45.01348" lon="2.68209">
        <ele>848.98</ele>
        <time>2015-06-08T13:17:18Z</time>
      </trkpt>
      <trkpt lat="45.01342" lon="2.68224">
        <ele>850.9</ele>
        <time>2015-06-08T13:17:30Z</time>
      </trkpt>
      <trkpt lat="45.01341" lon="2.68233">
        <ele>848.98</ele>
        <time>2015-06-08T13:17:43Z</time>
      </trkpt>
      <trkpt lat="45.01347" lon="2.6824">
        <ele>850.9</ele>
        <time>2015-06-08T13:17:57Z</time>
      </trkpt>
      <trkpt lat="45.0135" lon="2.68256">
        <ele>856.19</ele>
        <time>2015-06-08T13:18:14Z</time>
      </trkpt>
      <trkpt lat="45.01356" lon="2.6827">
        <ele>861</ele>
        <time>2015-06-08T13:18:31Z</time>
      </trkpt>
      <trkpt lat="45.01362" lon="2.68285">
        <ele>867.25</ele>
        <time>2015-06-08T13:18:47Z</time>
      </trkpt>
      <trkpt lat="45.01364" lon="2.68298">
        <ele>870.13</ele>
        <time>2015-06-08T13:19:01Z</time>
      </trkpt>
      <trkpt lat="45.01371" lon="2.68311">
        <ele>873.5</ele>
        <time>2015-06-08T13:19:15Z</time>
      </trkpt>
      <trkpt lat="45.01367" lon="2.68321">
        <ele>873.98</ele>
        <time>2015-06-08T13:19:31Z</time>
      </trkpt>
      <trkpt lat="45.01366" lon="2.68331">
        <ele>874.94</ele>
        <time>2015-06-08T13:19:46Z</time>
      </trkpt>
      <trkpt lat="45.01363" lon="2.68342">
        <ele>874.94</ele>
        <time>2015-06-08T13:20:00Z</time>
      </trkpt>
      <trkpt lat="45.01361" lon="2.68344">
        <ele>873.01</ele>
        <time>2015-06-08T13:20:23Z</time>
      </trkpt>
      <trkpt lat="45.01357" lon="2.68351">
        <ele>873.01</ele>
        <time>2015-06-08T13:20:47Z</time>
      </trkpt>
      <trkpt lat="45.01353" lon="2.68358">
        <ele>873.98</ele>
        <time>2015-06-08T13:21:02Z</time>
      </trkpt>
      <trkpt lat="45.0134" lon="2.68359">
        <ele>874.46</ele>
        <time>2015-06-08T13:21:16Z</time>
      </trkpt>
      <trkpt lat="45.01334" lon="2.68356">
        <ele>875.9</ele>
        <time>2015-06-08T13:21:23Z</time>
      </trkpt>
      <trkpt lat="45.01328" lon="2.68354">
        <ele>877.82</ele>
        <time>2015-06-08T13:21:40Z</time>
      </trkpt>
      <trkpt lat="45.01325" lon="2.68354">
        <ele>878.3</ele>
        <time>2015-06-08T13:21:55Z</time>
      </trkpt>
      <trkpt lat="45.01322" lon="2.68354">
        <ele>878.78</ele>
        <time>2015-06-08T13:22:10Z</time>
      </trkpt>
      <trkpt lat="45.01312" lon="2.68349">
        <ele>879.74</ele>
        <time>2015-06-08T13:22:29Z</time>
      </trkpt>
      <trkpt lat="45.01305" lon="2.68343">
        <ele>881.67</ele>
        <time>2015-06-08T13:22:44Z</time>
      </trkpt>
      <trkpt lat="45.01294" lon="2.68336">
        <ele>881.67</ele>
        <time>2015-06-08T13:23:03Z</time>
      </trkpt>
      <trkpt lat="45.01286" lon="2.68335">
        <ele>881.67</ele>
        <time>2015-06-08T13:23:20Z</time>
      </trkpt>
      <trkpt lat="45.01281" lon="2.68333">
        <ele>881.67</ele>
        <time>2015-06-08T13:23:38Z</time>
      </trkpt>
      <trkpt lat="45.01272" lon="2.68336">
        <ele>885.51</ele>
        <time>2015-06-08T13:23:56Z</time>
      </trkpt>
      <trkpt lat="45.01271" lon="2.6834">
        <ele>891.28</ele>
        <time>2015-06-08T13:24:12Z</time>
      </trkpt>
      <trkpt lat="45.01269" lon="2.68346">
        <ele>895.12</ele>
        <time>2015-06-08T13:24:31Z</time>
      </trkpt>
      <trkpt lat="45.01266" lon="2.68357">
        <ele>897.05</ele>
        <time>2015-06-08T13:24:47Z</time>
      </trkpt>
      <trkpt lat="45.01247" lon="2.68361">
        <ele>899.93</ele>
        <time>2015-06-08T13:25:06Z</time>
      </trkpt>
      <trkpt lat="45.01245" lon="2.68367">
        <ele>898.49</ele>
        <time>2015-06-08T13:25:28Z</time>
      </trkpt>
      <trkpt lat="45.01241" lon="2.68366">
        <ele>898.01</ele>
        <time>2015-06-08T13:25:43Z</time>
      </trkpt>
      <trkpt lat="45.01239" lon="2.68365">
        <ele>898.01</ele>
        <time>2015-06-08T13:25:59Z</time>
      </trkpt>
      <trkpt lat="45.01223" lon="2.68366">
        <ele>898.97</ele>
        <time>2015-06-08T13:26:16Z</time>
      </trkpt>
      <trkpt lat="45.01218" lon="2.68366">
        <ele>899.45</ele>
        <time>2015-06-08T13:26:33Z</time>
      </trkpt>
      <trkpt lat="45.01216" lon="2.68365">
        <ele>900.41</ele>
        <time>2015-06-08T13:26:45Z</time>
      </trkpt>
      <trkpt lat="45.01204" lon="2.68365">
        <ele>904.74</ele>
        <time>2015-06-08T13:27:01Z</time>
      </trkpt>
      <trkpt lat="45.01197" lon="2.68365">
        <ele>906.66</ele>
        <time>2015-06-08T13:27:18Z</time>
      </trkpt>
      <trkpt lat="45.01191" lon="2.68365">
        <ele>908.1</ele>
        <time>2015-06-08T13:27:35Z</time>
      </trkpt>
      <trkpt lat="45.01178" lon="2.68361">
        <ele>909.06</ele>
        <time>2015-06-08T13:27:49Z</time>
      </trkpt>
      <trkpt lat="45.01169" lon="2.68356">
        <ele>913.87</ele>
        <time>2015-06-08T13:28:04Z</time>
      </trkpt>
      <trkpt lat="45.01165" lon="2.68348">
        <ele>918.2</ele>
        <time>2015-06-08T13:28:23Z</time>
      </trkpt>
      <trkpt lat="45.01157" lon="2.68344">
        <ele>916.75</ele>
        <time>2015-06-08T13:28:40Z</time>
      </trkpt>
      <trkpt lat="45.01144" lon="2.68342">
        <ele>915.79</ele>
        <time>2015-06-08T13:28:55Z</time>
      </trkpt>
      <trkpt lat="45.0114" lon="2.6834">
        <ele>915.79</ele>
        <time>2015-06-08T13:29:10Z</time>
      </trkpt>
      <trkpt lat="45.01135" lon="2.6834">
        <ele>916.27</ele>
        <time>2015-06-08T13:29:27Z</time>
      </trkpt>
      <trkpt lat="45.01132" lon="2.68335">
        <ele>918.2</ele>
        <time>2015-06-08T13:29:46Z</time>
      </trkpt>
      <trkpt lat="45.01128" lon="2.6833">
        <ele>918.68</ele>
        <time>2015-06-08T13:30:02Z</time>
      </trkpt>
      <trkpt lat="45.01121" lon="2.68334">
        <ele>921.08</ele>
        <time>2015-06-08T13:30:09Z</time>
      </trkpt>
      <trkpt lat="45.01117" lon="2.68337">
        <ele>923.48</ele>
        <time>2015-06-08T13:30:15Z</time>
      </trkpt>
      <trkpt lat="45.01107" lon="2.68348">
        <ele>925.41</ele>
        <time>2015-06-08T13:30:27Z</time>
      </trkpt>
      <trkpt lat="45.01093" lon="2.68349">
        <ele>926.85</ele>
        <time>2015-06-08T13:30:44Z</time>
      </trkpt>
      <trkpt lat="45.01081" lon="2.68342">
        <ele>923.96</ele>
        <time>2015-06-08T13:30:59Z</time>
      </trkpt>
      <trkpt lat="45.01068" lon="2.68328">
        <ele>921.56</ele>
        <time>2015-06-08T13:31:18Z</time>
      </trkpt>
      <trkpt lat="45.01063" lon="2.68314">
        <ele>921.08</ele>
        <time>2015-06-08T13:31:34Z</time>
      </trkpt>
      <trkpt lat="45.01061" lon="2.68309">
        <ele>920.6</ele>
        <time>2015-06-08T13:31:38Z</time>
      </trkpt>
      <trkpt lat="45.01046" lon="2.68302">
        <ele>921.08</ele>
        <time>2015-06-08T13:31:53Z</time>
      </trkpt>
      <trkpt lat="45.01042" lon="2.68298">
        <ele>919.64</ele>
        <time>2015-06-08T13:32:01Z</time>
      </trkpt>
      <trkpt lat="45.01033" lon="2.68304">
        <ele>918.2</ele>
        <time>2015-06-08T13:32:15Z</time>
      </trkpt>
      <trkpt lat="45.01035" lon="2.6831">
        <ele>921.56</ele>
        <time>2015-06-08T13:32:27Z</time>
      </trkpt>
      <trkpt lat="45.01035" lon="2.68314">
        <ele>924.93</ele>
        <time>2015-06-08T13:32:40Z</time>
      </trkpt>
      <trkpt lat="45.01036" lon="2.68317">
        <ele>927.33</ele>
        <time>2015-06-08T13:32:53Z</time>
      </trkpt>
      <trkpt lat="45.01037" lon="2.68319">
        <ele>932.14</ele>
        <time>2015-06-08T13:33:08Z</time>
      </trkpt>
      <trkpt lat="45.01037" lon="2.68321">
        <ele>934.06</ele>
        <time>2015-06-08T13:33:22Z</time>
      </trkpt>
      <trkpt lat="45.01037" lon="2.6832">
        <ele>935.02</ele>
        <time>2015-06-08T13:33:34Z</time>
      </trkpt>
      <trkpt lat="45.01037" lon="2.68326">
        <ele>936.46</ele>
        <time>2015-06-08T13:33:48Z</time>
      </trkpt>
      <trkpt lat="45.01036" lon="2.68333">
        <ele>933.58</ele>
        <time>2015-06-08T13:34:04Z</time>
      </trkpt>
      <trkpt lat="45.01038" lon="2.68335">
        <ele>934.06</ele>
        <time>2015-06-08T13:34:33Z</time>
      </trkpt>
      <trkpt lat="45.01037" lon="2.68338">
        <ele>936.46</ele>
        <time>2015-06-08T13:34:48Z</time>
      </trkpt>
      <trkpt lat="45.01037" lon="2.68342">
        <ele>936.46</ele>
        <time>2015-06-08T13:35:02Z</time>
      </trkpt>
      <trkpt lat="45.01034" lon="2.68347">
        <ele>936.94</ele>
        <time>2015-06-08T13:35:18Z</time>
      </trkpt>
      <trkpt lat="45.01037" lon="2.68346">
        <ele>936.94</ele>
        <time>2015-06-08T13:35:30Z</time>
      </trkpt>
      <trkpt lat="45.01039" lon="2.68348">
        <ele>935.98</ele>
        <time>2015-06-08T13:35:41Z</time>
      </trkpt>
      <trkpt lat="45.01038" lon="2.68355">
        <ele>938.38</ele>
        <time>2015-06-08T13:35:49Z</time>
      </trkpt>
      <trkpt lat="45.01036" lon="2.68361">
        <ele>941.27</ele>
        <time>2015-06-08T13:36:01Z</time>
      </trkpt>
      <trkpt lat="45.01036" lon="2.68363">
        <ele>943.67</ele>
        <time>2015-06-08T13:36:14Z</time>
      </trkpt>
      <trkpt lat="45.01036" lon="2.68364">
        <ele>945.11</ele>
        <time>2015-06-08T13:36:22Z</time>
      </trkpt>
      <trkpt lat="45.01036" lon="2.68377">
        <ele>947.52</ele>
        <time>2015-06-08T13:36:35Z</time>
      </trkpt>
      <trkpt lat="45.01038" lon="2.68388">
        <ele>945.59</ele>
        <time>2015-06-08T13:36:47Z</time>
      </trkpt>
      <trkpt lat="45.0104" lon="2.68395">
        <ele>944.15</ele>
        <time>2015-06-08T13:36:56Z</time>
      </trkpt>
      <trkpt lat="45.01047" lon="2.68405">
        <ele>939.83</ele>
        <time>2015-06-08T13:37:09Z</time>
      </trkpt>
      <trkpt lat="45.01053" lon="2.68414">
        <ele>938.38</ele>
        <time>2015-06-08T13:37:22Z</time>
      </trkpt>
      <trkpt lat="45.01063" lon="2.68418">
        <ele>935.98</ele>
        <time>2015-06-08T13:37:37Z</time>
      </trkpt>
      <trkpt lat="45.01067" lon="2.6842">
        <ele>935.5</ele>
        <time>2015-06-08T13:37:41Z</time>
      </trkpt>
      <trkpt lat="45.01073" lon="2.68427">
        <ele>933.1</ele>
        <time>2015-06-08T13:37:54Z</time>
      </trkpt>
      <trkpt lat="45.01081" lon="2.68436">
        <ele>931.17</ele>
        <time>2015-06-08T13:38:08Z</time>
      </trkpt>
      <trkpt lat="45.01081" lon="2.68437">
        <ele>930.69</ele>
        <time>2015-06-08T13:38:09Z</time>
      </trkpt>
      <trkpt lat="45.01081" lon="2.68444">
        <ele>930.21</ele>
        <time>2015-06-08T13:38:22Z</time>
      </trkpt>
      <trkpt lat="45.0109" lon="2.68449">
        <ele>930.69</ele>
        <time>2015-06-08T13:38:35Z</time>
      </trkpt>
      <trkpt lat="45.0109" lon="2.68454">
        <ele>930.21</ele>
        <time>2015-06-08T13:38:39Z</time>
      </trkpt>
      <trkpt lat="45.01094" lon="2.68467">
        <ele>926.37</ele>
        <time>2015-06-08T13:38:55Z</time>
      </trkpt>
      <trkpt lat="45.01095" lon="2.68476">
        <ele>926.37</ele>
        <time>2015-06-08T13:39:08Z</time>
      </trkpt>
      <trkpt lat="45.01092" lon="2.68484">
        <ele>929.73</ele>
        <time>2015-06-08T13:39:22Z</time>
      </trkpt>
      <trkpt lat="45.0109" lon="2.68493">
        <ele>932.62</ele>
        <time>2015-06-08T13:39:37Z</time>
      </trkpt>
      <trkpt lat="45.0109" lon="2.68495">
        <ele>934.06</ele>
        <time>2015-06-08T13:39:59Z</time>
      </trkpt>
      <trkpt lat="45.01091" lon="2.68495">
        <ele>935.02</ele>
        <time>2015-06-08T13:40:25Z</time>
      </trkpt>
      <trkpt lat="45.01092" lon="2.68496">
        <ele>935.98</ele>
        <time>2015-06-08T13:40:41Z</time>
      </trkpt>
      <trkpt lat="45.01092" lon="2.68496">
        <ele>936.94</ele>
        <time>2015-06-08T13:41:05Z</time>
      </trkpt>
      <trkpt lat="45.0109" lon="2.68503">
        <ele>939.35</ele>
        <time>2015-06-08T13:41:19Z</time>
      </trkpt>
      <trkpt lat="45.01086" lon="2.68507">
        <ele>940.79</ele>
        <time>2015-06-08T13:41:34Z</time>
      </trkpt>
      <trkpt lat="45.01083" lon="2.68513">
        <ele>941.75</ele>
        <time>2015-06-08T13:41:49Z</time>
      </trkpt>
      <trkpt lat="45.01078" lon="2.68519">
        <ele>943.19</ele>
        <time>2015-06-08T13:42:04Z</time>
      </trkpt>
      <trkpt lat="45.01073" lon="2.68525">
        <ele>944.63</ele>
        <time>2015-06-08T13:42:18Z</time>
      </trkpt>
      <trkpt lat="45.01072" lon="2.68525">
        <ele>946.56</ele>
        <time>2015-06-08T13:42:33Z</time>
      </trkpt>
      <trkpt lat="45.01073" lon="2.6853">
        <ele>948</ele>
        <time>2015-06-08T13:42:49Z</time>
      </trkpt>
      <trkpt lat="45.01072" lon="2.68534">
        <ele>950.4</ele>
        <time>2015-06-08T13:43:05Z</time>
      </trkpt>
      <trkpt lat="45.01074" lon="2.68541">
        <ele>951.84</ele>
        <time>2015-06-08T13:43:20Z</time>
      </trkpt>
      <trkpt lat="45.01073" lon="2.68546">
        <ele>953.77</ele>
        <time>2015-06-08T13:43:35Z</time>
      </trkpt>
      <trkpt lat="45.01072" lon="2.68551">
        <ele>954.25</ele>
        <time>2015-06-08T13:43:50Z</time>
      </trkpt>
      <trkpt lat="45.01071" lon="2.68556">
        <ele>955.69</ele>
        <time>2015-06-08T13:44:09Z</time>
      </trkpt>
      <trkpt lat="45.01069" lon="2.68566">
        <ele>956.17</ele>
        <time>2015-06-08T13:44:24Z</time>
      </trkpt>
      <trkpt lat="45.0107" lon="2.68581">
        <ele>958.09</ele>
        <time>2015-06-08T13:44:38Z</time>
      </trkpt>
      <trkpt lat="45.01066" lon="2.68587">
        <ele>957.13</ele>
        <time>2015-06-08T13:44:53Z</time>
      </trkpt>
      <trkpt lat="45.01067" lon="2.68587">
        <ele>956.65</ele>
        <time>2015-06-08T13:45:10Z</time>
      </trkpt>
      <trkpt lat="45.01067" lon="2.68587">
        <ele>955.69</ele>
        <time>2015-06-08T13:45:28Z</time>
      </trkpt>
      <trkpt lat="45.01066" lon="2.68588">
        <ele>955.21</ele>
        <time>2015-06-08T13:46:01Z</time>
      </trkpt>
      <trkpt lat="45.01065" lon="2.68588">
        <ele>954.73</ele>
        <time>2015-06-08T13:46:31Z</time>
      </trkpt>
      <trkpt lat="45.01065" lon="2.68588">
        <ele>954.25</ele>
        <time>2015-06-08T13:47:07Z</time>
      </trkpt>
      <trkpt lat="45.01065" lon="2.6859">
        <ele>953.77</ele>
        <time>2015-06-08T13:47:38Z</time>
      </trkpt>
      <trkpt lat="45.01064" lon="2.68591">
        <ele>953.77</ele>
        <time>2015-06-08T13:48:14Z</time>
      </trkpt>
      <trkpt lat="45.01064" lon="2.6859">
        <ele>953.77</ele>
        <time>2015-06-08T13:48:50Z</time>
      </trkpt>
      <trkpt lat="45.01063" lon="2.68589">
        <ele>954.25</ele>
        <time>2015-06-08T13:49:25Z</time>
      </trkpt>
      <trkpt lat="45.01064" lon="2.6859">
        <ele>955.69</ele>
        <time>2015-06-08T13:49:57Z</time>
      </trkpt>
      <trkpt lat="45.01064" lon="2.68589">
        <ele>956.65</ele>
        <time>2015-06-08T13:50:29Z</time>
      </trkpt>
      <trkpt lat="45.01064" lon="2.68589">
        <ele>956.65</ele>
        <time>2015-06-08T13:51:00Z</time>
      </trkpt>
      <trkpt lat="45.01064" lon="2.68589">
        <ele>957.61</ele>
        <time>2015-06-08T13:51:36Z</time>
      </trkpt>
      <trkpt lat="45.01065" lon="2.68589">
        <ele>958.57</ele>
        <time>2015-06-08T13:52:09Z</time>
      </trkpt>
      <trkpt lat="45.01066" lon="2.68588">
        <ele>959.53</ele>
        <time>2015-06-08T13:52:40Z</time>
      </trkpt>
      <trkpt lat="45.01066" lon="2.68588">
        <ele>959.53</ele>
        <time>2015-06-08T13:53:03Z</time>
      </trkpt>
      <trkpt lat="45.01066" lon="2.68588">
        <ele>960.01</ele>
        <time>2015-06-08T13:53:34Z</time>
      </trkpt>
      <trkpt lat="45.01066" lon="2.68589">
        <ele>960.01</ele>
        <time>2015-06-08T13:54:04Z</time>
      </trkpt>
      <trkpt lat="45.01067" lon="2.68588">
        <ele>959.53</ele>
        <time>2015-06-08T13:54:17Z</time>
      </trkpt>
      <trkpt lat="45.01067" lon="2.68587">
        <ele>958.09</ele>
        <time>2015-06-08T13:54:33Z</time>
      </trkpt>
      <trkpt lat="45.01067" lon="2.68586">
        <ele>958.09</ele>
        <time>2015-06-08T13:54:55Z</time>
      </trkpt>
      <trkpt lat="45.01067" lon="2.68586">
        <ele>957.61</ele>
        <time>2015-06-08T13:55:16Z</time>
      </trkpt>
      <trkpt lat="45.01067" lon="2.68586">
        <ele>958.09</ele>
        <time>2015-06-08T13:55:43Z</time>
      </trkpt>
      <trkpt lat="45.01067" lon="2.68586">
        <ele>959.05</ele>
        <time>2015-06-08T13:56:09Z</time>
      </trkpt>
      <trkpt lat="45.01066" lon="2.68586">
        <ele>958.57</ele>
        <time>2015-06-08T13:56:25Z</time>
      </trkpt>
      <trkpt lat="45.01064" lon="2.68587">
        <ele>957.13</ele>
        <time>2015-06-08T13:56:42Z</time>
      </trkpt>
      <trkpt lat="45.01066" lon="2.68587">
        <ele>956.65</ele>
        <time>2015-06-08T13:57:10Z</time>
      </trkpt>
      <trkpt lat="45.01065" lon="2.68587">
        <ele>957.13</ele>
        <time>2015-06-08T13:57:34Z</time>
      </trkpt>
      <trkpt lat="45.01068" lon="2.68586">
        <ele>957.61</ele>
        <time>2015-06-08T13:57:47Z</time>
      </trkpt>
      <trkpt lat="45.01069" lon="2.68585">
        <ele>957.13</ele>
        <time>2015-06-08T13:58:08Z</time>
      </trkpt>
      <trkpt lat="45.01069" lon="2.68587">
        <ele>958.57</ele>
        <time>2015-06-08T13:58:25Z</time>
      </trkpt>
      <trkpt lat="45.01068" lon="2.6859">
        <ele>959.53</ele>
        <time>2015-06-08T13:58:31Z</time>
      </trkpt>
      <trkpt lat="45.01067" lon="2.68593">
        <ele>960.49</ele>
        <time>2015-06-08T13:58:33Z</time>
      </trkpt>
      <trkpt lat="45.01068" lon="2.68608">
        <ele>963.86</ele>
        <time>2015-06-08T13:58:48Z</time>
      </trkpt>
      <trkpt lat="45.01071" lon="2.6862">
        <ele>968.18</ele>
        <time>2015-06-08T13:59:04Z</time>
      </trkpt>
      <trkpt lat="45.01077" lon="2.68633">
        <ele>972.51</ele>
        <time>2015-06-08T13:59:17Z</time>
      </trkpt>
      <trkpt lat="45.01087" lon="2.68651">
        <ele>976.36</ele>
        <time>2015-06-08T13:59:30Z</time>
      </trkpt>
      <trkpt lat="45.01096" lon="2.68662">
        <ele>974.43</ele>
        <time>2015-06-08T13:59:44Z</time>
      </trkpt>
      <trkpt lat="45.01096" lon="2.68667">
        <ele>973.95</ele>
        <time>2015-06-08T13:59:57Z</time>
      </trkpt>
      <trkpt lat="45.01098" lon="2.68668">
        <ele>973.47</ele>
        <time>2015-06-08T14:00:13Z</time>
      </trkpt>
      <trkpt lat="45.01096" lon="2.68673">
        <ele>973.47</ele>
        <time>2015-06-08T14:00:26Z</time>
      </trkpt>
      <trkpt lat="45.01097" lon="2.68675">
        <ele>973.95</ele>
        <time>2015-06-08T14:00:42Z</time>
      </trkpt>
      <trkpt lat="45.01095" lon="2.68689">
        <ele>974.91</ele>
        <time>2015-06-08T14:01:02Z</time>
      </trkpt>
      <trkpt lat="45.01098" lon="2.68697">
        <ele>976.84</ele>
        <time>2015-06-08T14:01:18Z</time>
      </trkpt>
      <trkpt lat="45.01099" lon="2.6871">
        <ele>979.72</ele>
        <time>2015-06-08T14:01:30Z</time>
      </trkpt>
      <trkpt lat="45.01098" lon="2.68718">
        <ele>980.68</ele>
        <time>2015-06-08T14:01:43Z</time>
      </trkpt>
      <trkpt lat="45.01096" lon="2.68725">
        <ele>982.12</ele>
        <time>2015-06-08T14:01:52Z</time>
      </trkpt>
      <trkpt lat="45.011" lon="2.68738">
        <ele>982.12</ele>
        <time>2015-06-08T14:02:06Z</time>
      </trkpt>
      <trkpt lat="45.01104" lon="2.68749">
        <ele>984.05</ele>
        <time>2015-06-08T14:02:21Z</time>
      </trkpt>
      <trkpt lat="45.01109" lon="2.68755">
        <ele>986.45</ele>
        <time>2015-06-08T14:02:35Z</time>
      </trkpt>
      <trkpt lat="45.01123" lon="2.6877">
        <ele>989.33</ele>
        <time>2015-06-08T14:02:51Z</time>
      </trkpt>
      <trkpt lat="45.01129" lon="2.68787">
        <ele>987.89</ele>
        <time>2015-06-08T14:03:06Z</time>
      </trkpt>
      <trkpt lat="45.01129" lon="2.68803">
        <ele>984.05</ele>
        <time>2015-06-08T14:03:18Z</time>
      </trkpt>
      <trkpt lat="45.01127" lon="2.68811">
        <ele>983.57</ele>
        <time>2015-06-08T14:03:32Z</time>
      </trkpt>
      <trkpt lat="45.0113" lon="2.68821">
        <ele>988.37</ele>
        <time>2015-06-08T14:03:49Z</time>
      </trkpt>
      <trkpt lat="45.0113" lon="2.68825">
        <ele>990.78</ele>
        <time>2015-06-08T14:04:04Z</time>
      </trkpt>
      <trkpt lat="45.01136" lon="2.68829">
        <ele>994.14</ele>
        <time>2015-06-08T14:04:19Z</time>
      </trkpt>
      <trkpt lat="45.01143" lon="2.68841">
        <ele>997.02</ele>
        <time>2015-06-08T14:04:38Z</time>
      </trkpt>
      <trkpt lat="45.01153" lon="2.68847">
        <ele>1000.87</ele>
        <time>2015-06-08T14:04:52Z</time>
      </trkpt>
      <trkpt lat="45.01159" lon="2.6886">
        <ele>1004.72</ele>
        <time>2015-06-08T14:05:04Z</time>
      </trkpt>
      <trkpt lat="45.0117" lon="2.6887">
        <ele>1008.08</ele>
        <time>2015-06-08T14:05:21Z</time>
      </trkpt>
      <trkpt lat="45.01178" lon="2.68872">
        <ele>1007.6</ele>
        <time>2015-06-08T14:05:38Z</time>
      </trkpt>
      <trkpt lat="45.01192" lon="2.68881">
        <ele>1005.68</ele>
        <time>2015-06-08T14:05:53Z</time>
      </trkpt>
      <trkpt lat="45.01199" lon="2.68884">
        <ele>1004.23</ele>
        <time>2015-06-08T14:06:03Z</time>
      </trkpt>
      <trkpt lat="45.01211" lon="2.68894">
        <ele>1005.2</ele>
        <time>2015-06-08T14:06:17Z</time>
      </trkpt>
      <trkpt lat="45.01217" lon="2.68905">
        <ele>1005.2</ele>
        <time>2015-06-08T14:06:27Z</time>
      </trkpt>
      <trkpt lat="45.01224" lon="2.68915">
        <ele>1006.64</ele>
        <time>2015-06-08T14:06:42Z</time>
      </trkpt>
      <trkpt lat="45.01233" lon="2.68928">
        <ele>1006.64</ele>
        <time>2015-06-08T14:06:56Z</time>
      </trkpt>
      <trkpt lat="45.01246" lon="2.68938">
        <ele>1008.08</ele>
        <time>2015-06-08T14:07:11Z</time>
      </trkpt>
      <trkpt lat="45.01256" lon="2.6895">
        <ele>1010.48</ele>
        <time>2015-06-08T14:07:25Z</time>
      </trkpt>
      <trkpt lat="45.01262" lon="2.68958">
        <ele>1010</ele>
        <time>2015-06-08T14:07:38Z</time>
      </trkpt>
      <trkpt lat="45.0127" lon="2.68964">
        <ele>1010</ele>
        <time>2015-06-08T14:07:53Z</time>
      </trkpt>
      <trkpt lat="45.01276" lon="2.68968">
        <ele>1010</ele>
        <time>2015-06-08T14:07:59Z</time>
      </trkpt>
      <trkpt lat="45.0129" lon="2.68979">
        <ele>1009.52</ele>
        <time>2015-06-08T14:08:14Z</time>
      </trkpt>
      <trkpt lat="45.01302" lon="2.68989">
        <ele>1011.44</ele>
        <time>2015-06-08T14:08:27Z</time>
      </trkpt>
      <trkpt lat="45.01305" lon="2.6899">
        <ele>1012.41</ele>
        <time>2015-06-08T14:08:29Z</time>
      </trkpt>
      <trkpt lat="45.01317" lon="2.68984">
        <ele>1013.85</ele>
        <time>2015-06-08T14:08:41Z</time>
      </trkpt>
      <trkpt lat="45.01319" lon="2.68977">
        <ele>1015.29</ele>
        <time>2015-06-08T14:08:46Z</time>
      </trkpt>
      <trkpt lat="45.01324" lon="2.68967">
        <ele>1013.37</ele>
        <time>2015-06-08T14:09:00Z</time>
      </trkpt>
      <trkpt lat="45.01331" lon="2.68962">
        <ele>1010</ele>
        <time>2015-06-08T14:09:16Z</time>
      </trkpt>
      <trkpt lat="45.01341" lon="2.68959">
        <ele>1008.56</ele>
        <time>2015-06-08T14:09:31Z</time>
      </trkpt>
      <trkpt lat="45.01354" lon="2.68965">
        <ele>1003.75</ele>
        <time>2015-06-08T14:09:45Z</time>
      </trkpt>
      <trkpt lat="45.0136" lon="2.68967">
        <ele>998.95</ele>
        <time>2015-06-08T14:09:58Z</time>
      </trkpt>
      <trkpt lat="45.01363" lon="2.68969">
        <ele>997.99</ele>
        <time>2015-06-08T14:10:03Z</time>
      </trkpt>
      <trkpt lat="45.01371" lon="2.68975">
        <ele>991.26</ele>
        <time>2015-06-08T14:10:16Z</time>
      </trkpt>
      <trkpt lat="45.01368" lon="2.68993">
        <ele>990.3</ele>
        <time>2015-06-08T14:10:29Z</time>
      </trkpt>
      <trkpt lat="45.01369" lon="2.69016">
        <ele>990.78</ele>
        <time>2015-06-08T14:10:43Z</time>
      </trkpt>
      <trkpt lat="45.01371" lon="2.69029">
        <ele>993.66</ele>
        <time>2015-06-08T14:10:57Z</time>
      </trkpt>
      <trkpt lat="45.01376" lon="2.69031">
        <ele>994.62</ele>
        <time>2015-06-08T14:11:10Z</time>
      </trkpt>
      <trkpt lat="45.01383" lon="2.69037">
        <ele>994.14</ele>
        <time>2015-06-08T14:11:21Z</time>
      </trkpt>
      <trkpt lat="45.01387" lon="2.69044">
        <ele>991.74</ele>
        <time>2015-06-08T14:11:34Z</time>
      </trkpt>
      <trkpt lat="45.01399" lon="2.69058">
        <ele>990.3</ele>
        <time>2015-06-08T14:11:45Z</time>
      </trkpt>
      <trkpt lat="45.014" lon="2.69061">
        <ele>990.3</ele>
        <time>2015-06-08T14:12:04Z</time>
      </trkpt>
      <trkpt lat="45.01403" lon="2.69066">
        <ele>992.7</ele>
        <time>2015-06-08T14:12:17Z</time>
      </trkpt>
      <trkpt lat="45.01405" lon="2.69076">
        <ele>991.74</ele>
        <time>2015-06-08T14:12:32Z</time>
      </trkpt>
      <trkpt lat="45.01412" lon="2.69084">
        <ele>992.7</ele>
        <time>2015-06-08T14:12:41Z</time>
      </trkpt>
      <trkpt lat="45.01417" lon="2.69095">
        <ele>993.18</ele>
        <time>2015-06-08T14:12:54Z</time>
      </trkpt>
      <trkpt lat="45.01421" lon="2.69104">
        <ele>993.66</ele>
        <time>2015-06-08T14:13:05Z</time>
      </trkpt>
      <trkpt lat="45.01425" lon="2.69117">
        <ele>993.18</ele>
        <time>2015-06-08T14:13:19Z</time>
      </trkpt>
      <trkpt lat="45.01431" lon="2.69125">
        <ele>994.62</ele>
        <time>2015-06-08T14:13:34Z</time>
      </trkpt>
      <trkpt lat="45.0144" lon="2.69134">
        <ele>995.1</ele>
        <time>2015-06-08T14:13:51Z</time>
      </trkpt>
      <trkpt lat="45.01447" lon="2.69141">
        <ele>997.99</ele>
        <time>2015-06-08T14:14:05Z</time>
      </trkpt>
      <trkpt lat="45.0145" lon="2.69144">
        <ele>999.43</ele>
        <time>2015-06-08T14:14:21Z</time>
      </trkpt>
      <trkpt lat="45.0145" lon="2.69149">
        <ele>1001.35</ele>
        <time>2015-06-08T14:14:36Z</time>
      </trkpt>
      <trkpt lat="45.01451" lon="2.69154">
        <ele>1000.39</ele>
        <time>2015-06-08T14:14:49Z</time>
      </trkpt>
      <trkpt lat="45.0145" lon="2.69164">
        <ele>1001.83</ele>
        <time>2015-06-08T14:15:05Z</time>
      </trkpt>
      <trkpt lat="45.0145" lon="2.69175">
        <ele>1003.27</ele>
        <time>2015-06-08T14:15:20Z</time>
      </trkpt>
      <trkpt lat="45.01455" lon="2.69187">
        <ele>1005.68</ele>
        <time>2015-06-08T14:15:34Z</time>
      </trkpt>
      <trkpt lat="45.01456" lon="2.69191">
        <ele>1007.6</ele>
        <time>2015-06-08T14:15:48Z</time>
      </trkpt>
      <trkpt lat="45.01462" lon="2.69201">
        <ele>1010.48</ele>
        <time>2015-06-08T14:16:06Z</time>
      </trkpt>
      <trkpt lat="45.01468" lon="2.69204">
        <ele>1010.48</ele>
        <time>2015-06-08T14:16:10Z</time>
      </trkpt>
      <trkpt lat="45.0148" lon="2.69213">
        <ele>1010.48</ele>
        <time>2015-06-08T14:16:21Z</time>
      </trkpt>
      <trkpt lat="45.01489" lon="2.69227">
        <ele>1013.85</ele>
        <time>2015-06-08T14:16:33Z</time>
      </trkpt>
      <trkpt lat="45.01491" lon="2.6924">
        <ele>1015.77</ele>
        <time>2015-06-08T14:16:47Z</time>
      </trkpt>
      <trkpt lat="45.01495" lon="2.69247">
        <ele>1017.69</ele>
        <time>2015-06-08T14:16:58Z</time>
      </trkpt>
      <trkpt lat="45.01497" lon="2.69261">
        <ele>1017.69</ele>
        <time>2015-06-08T14:17:11Z</time>
      </trkpt>
      <trkpt lat="45.01497" lon="2.69274">
        <ele>1017.69</ele>
        <time>2015-06-08T14:17:21Z</time>
      </trkpt>
      <trkpt lat="45.01497" lon="2.69279">
        <ele>1016.25</ele>
        <time>2015-06-08T14:17:26Z</time>
      </trkpt>
      <trkpt lat="45.01497" lon="2.69296">
        <ele>1014.81</ele>
        <time>2015-06-08T14:17:39Z</time>
      </trkpt>
      <trkpt lat="45.01498" lon="2.69303">
        <ele>1010.96</ele>
        <time>2015-06-08T14:17:52Z</time>
      </trkpt>
      <trkpt lat="45.01503" lon="2.6931">
        <ele>1007.12</ele>
        <time>2015-06-08T14:18:05Z</time>
      </trkpt>
      <trkpt lat="45.01504" lon="2.69312">
        <ele>1006.64</ele>
        <time>2015-06-08T14:18:09Z</time>
      </trkpt>
      <trkpt lat="45.01504" lon="2.69316">
        <ele>1004.23</ele>
        <time>2015-06-08T14:18:13Z</time>
      </trkpt>
      <trkpt lat="45.01503" lon="2.69322">
        <ele>1002.79</ele>
        <time>2015-06-08T14:18:18Z</time>
      </trkpt>
      <trkpt lat="45.01501" lon="2.69336">
        <ele>998.95</ele>
        <time>2015-06-08T14:18:34Z</time>
      </trkpt>
      <trkpt lat="45.01498" lon="2.6934">
        <ele>999.43</ele>
        <time>2015-06-08T14:18:50Z</time>
      </trkpt>
      <trkpt lat="45.01494" lon="2.69351">
        <ele>996.06</ele>
        <time>2015-06-08T14:19:05Z</time>
      </trkpt>
      <trkpt lat="45.01495" lon="2.69356">
        <ele>994.14</ele>
        <time>2015-06-08T14:19:22Z</time>
      </trkpt>
      <trkpt lat="45.01499" lon="2.69357">
        <ele>993.18</ele>
        <time>2015-06-08T14:19:35Z</time>
      </trkpt>
      <trkpt lat="45.01506" lon="2.69363">
        <ele>992.22</ele>
        <time>2015-06-08T14:19:46Z</time>
      </trkpt>
      <trkpt lat="45.01506" lon="2.69365">
        <ele>990.78</ele>
        <time>2015-06-08T14:19:58Z</time>
      </trkpt>
      <trkpt lat="45.0151" lon="2.69368">
        <ele>989.81</ele>
        <time>2015-06-08T14:20:20Z</time>
      </trkpt>
      <trkpt lat="45.01512" lon="2.69376">
        <ele>986.45</ele>
        <time>2015-06-08T14:20:37Z</time>
      </trkpt>
      <trkpt lat="45.01515" lon="2.69388">
        <ele>982.12</ele>
        <time>2015-06-08T14:20:51Z</time>
      </trkpt>
      <trkpt lat="45.01517" lon="2.69394">
        <ele>979.72</ele>
        <time>2015-06-08T14:21:02Z</time>
      </trkpt>
      <trkpt lat="45.01519" lon="2.69398">
        <ele>978.28</ele>
        <time>2015-06-08T14:21:06Z</time>
      </trkpt>
      <trkpt lat="45.01517" lon="2.69407">
        <ele>972.99</ele>
        <time>2015-06-08T14:21:17Z</time>
      </trkpt>
      <trkpt lat="45.01514" lon="2.69412">
        <ele>970.11</ele>
        <time>2015-06-08T14:21:25Z</time>
      </trkpt>
      <trkpt lat="45.0151" lon="2.69421">
        <ele>967.7</ele>
        <time>2015-06-08T14:21:35Z</time>
      </trkpt>
      <trkpt lat="45.01504" lon="2.69438">
        <ele>965.78</ele>
        <time>2015-06-08T14:21:47Z</time>
      </trkpt>
      <trkpt lat="45.015" lon="2.69449">
        <ele>966.26</ele>
        <time>2015-06-08T14:21:54Z</time>
      </trkpt>
      <trkpt lat="45.01501" lon="2.69464">
        <ele>968.18</ele>
        <time>2015-06-08T14:22:04Z</time>
      </trkpt>
      <trkpt lat="45.01499" lon="2.69467">
        <ele>968.18</ele>
        <time>2015-06-08T14:22:07Z</time>
      </trkpt>
      <trkpt lat="45.01494" lon="2.69485">
        <ele>969.15</ele>
        <time>2015-06-08T14:22:19Z</time>
      </trkpt>
      <trkpt lat="45.01495" lon="2.69493">
        <ele>971.07</ele>
        <time>2015-06-08T14:22:27Z</time>
      </trkpt>
      <trkpt lat="45.01497" lon="2.69504">
        <ele>972.03</ele>
        <time>2015-06-08T14:22:35Z</time>
      </trkpt>
      <trkpt lat="45.01496" lon="2.69519">
        <ele>972.99</ele>
        <time>2015-06-08T14:22:53Z</time>
      </trkpt>
      <trkpt lat="45.01494" lon="2.69522">
        <ele>972.51</ele>
        <time>2015-06-08T14:23:27Z</time>
      </trkpt>
      <trkpt lat="45.01495" lon="2.69523">
        <ele>972.51</ele>
        <time>2015-06-08T14:23:56Z</time>
      </trkpt>
      <trkpt lat="45.01496" lon="2.69522">
        <ele>973.47</ele>
        <time>2015-06-08T14:24:23Z</time>
      </trkpt>
      <trkpt lat="45.01497" lon="2.69521">
        <ele>972.99</ele>
        <time>2015-06-08T14:24:49Z</time>
      </trkpt>
      <trkpt lat="45.01487" lon="2.69521">
        <ele>971.07</ele>
        <time>2015-06-08T14:25:08Z</time>
      </trkpt>
      <trkpt lat="45.01493" lon="2.69523">
        <ele>971.07</ele>
        <time>2015-06-08T14:25:24Z</time>
      </trkpt>
      <trkpt lat="45.01496" lon="2.69529">
        <ele>972.03</ele>
        <time>2015-06-08T14:25:41Z</time>
      </trkpt>
      <trkpt lat="45.01514" lon="2.69536">
        <ele>976.36</ele>
        <time>2015-06-08T14:25:54Z</time>
      </trkpt>
      <trkpt lat="45.01521" lon="2.69541">
        <ele>977.8</ele>
        <time>2015-06-08T14:26:06Z</time>
      </trkpt>
      <trkpt lat="45.01521" lon="2.69545">
        <ele>978.28</ele>
        <time>2015-06-08T14:26:19Z</time>
      </trkpt>
      <trkpt lat="45.01522" lon="2.69546">
        <ele>978.28</ele>
        <time>2015-06-08T14:26:23Z</time>
      </trkpt>
      <trkpt lat="45.0153" lon="2.69551">
        <ele>982.12</ele>
        <time>2015-06-08T14:26:36Z</time>
      </trkpt>
      <trkpt lat="45.01531" lon="2.6955">
        <ele>982.6</ele>
        <time>2015-06-08T14:26:38Z</time>
      </trkpt>
      <trkpt lat="45.01535" lon="2.69552">
        <ele>981.16</ele>
        <time>2015-06-08T14:26:48Z</time>
      </trkpt>
      <trkpt lat="45.01536" lon="2.69553">
        <ele>980.68</ele>
        <time>2015-06-08T14:26:50Z</time>
      </trkpt>
      <trkpt lat="45.01538" lon="2.6956">
        <ele>980.68</ele>
        <time>2015-06-08T14:26:56Z</time>
      </trkpt>
      <trkpt lat="45.01565" lon="2.69575">
        <ele>979.24</ele>
        <time>2015-06-08T14:27:08Z</time>
      </trkpt>
      <trkpt lat="45.01567" lon="2.69578">
        <ele>979.24</ele>
        <time>2015-06-08T14:27:22Z</time>
      </trkpt>
      <trkpt lat="45.01567" lon="2.69586">
        <ele>979.24</ele>
        <time>2015-06-08T14:27:36Z</time>
      </trkpt>
      <trkpt lat="45.01568" lon="2.69593">
        <ele>978.28</ele>
        <time>2015-06-08T14:27:53Z</time>
      </trkpt>
      <trkpt lat="45.01567" lon="2.69598">
        <ele>977.8</ele>
        <time>2015-06-08T14:28:03Z</time>
      </trkpt>
      <trkpt lat="45.01571" lon="2.69605">
        <ele>979.24</ele>
        <time>2015-06-08T14:28:11Z</time>
      </trkpt>
      <trkpt lat="45.01573" lon="2.69605">
        <ele>979.72</ele>
        <time>2015-06-08T14:28:13Z</time>
      </trkpt>
      <trkpt lat="45.01582" lon="2.69616">
        <ele>981.64</ele>
        <time>2015-06-08T14:28:26Z</time>
      </trkpt>
      <trkpt lat="45.01588" lon="2.69626">
        <ele>982.12</ele>
        <time>2015-06-08T14:28:38Z</time>
      </trkpt>
      <trkpt lat="45.01589" lon="2.69627">
        <ele>982.12</ele>
        <time>2015-06-08T14:28:39Z</time>
      </trkpt>
      <trkpt lat="45.01586" lon="2.69634">
        <ele>981.64</ele>
        <time>2015-06-08T14:28:47Z</time>
      </trkpt>
      <trkpt lat="45.01572" lon="2.6964">
        <ele>981.64</ele>
        <time>2015-06-08T14:29:01Z</time>
      </trkpt>
      <trkpt lat="45.01572" lon="2.6964">
        <ele>981.64</ele>
        <time>2015-06-08T14:29:02Z</time>
      </trkpt>
      <trkpt lat="45.01565" lon="2.69639">
        <ele>981.16</ele>
        <time>2015-06-08T14:29:09Z</time>
      </trkpt>
      <trkpt lat="45.01555" lon="2.69634">
        <ele>982.6</ele>
        <time>2015-06-08T14:29:22Z</time>
      </trkpt>
      <trkpt lat="45.01542" lon="2.69628">
        <ele>981.16</ele>
        <time>2015-06-08T14:29:36Z</time>
      </trkpt>
      <trkpt lat="45.01528" lon="2.69626">
        <ele>980.68</ele>
        <time>2015-06-08T14:29:52Z</time>
      </trkpt>
      <trkpt lat="45.01514" lon="2.69634">
        <ele>980.68</ele>
        <time>2015-06-08T14:30:06Z</time>
      </trkpt>
      <trkpt lat="45.01518" lon="2.69642">
        <ele>981.64</ele>
        <time>2015-06-08T14:30:18Z</time>
      </trkpt>
      <trkpt lat="45.01532" lon="2.69649">
        <ele>989.81</ele>
        <time>2015-06-08T14:30:33Z</time>
      </trkpt>
      <trkpt lat="45.0154" lon="2.69655">
        <ele>993.18</ele>
        <time>2015-06-08T14:30:43Z</time>
      </trkpt>
      <trkpt lat="45.01543" lon="2.69658">
        <ele>993.18</ele>
        <time>2015-06-08T14:30:45Z</time>
      </trkpt>
      <trkpt lat="45.01552" lon="2.69671">
        <ele>996.06</ele>
        <time>2015-06-08T14:31:01Z</time>
      </trkpt>
      <trkpt lat="45.01553" lon="2.69678">
        <ele>995.58</ele>
        <time>2015-06-08T14:31:07Z</time>
      </trkpt>
      <trkpt lat="45.01555" lon="2.69692">
        <ele>996.06</ele>
        <time>2015-06-08T14:31:19Z</time>
      </trkpt>
      <trkpt lat="45.01556" lon="2.69698">
        <ele>997.02</ele>
        <time>2015-06-08T14:31:26Z</time>
      </trkpt>
      <trkpt lat="45.01562" lon="2.69707">
        <ele>996.06</ele>
        <time>2015-06-08T14:31:38Z</time>
      </trkpt>
      <trkpt lat="45.01564" lon="2.69708">
        <ele>995.1</ele>
        <time>2015-06-08T14:31:45Z</time>
      </trkpt>
      <trkpt lat="45.01571" lon="2.69711">
        <ele>995.58</ele>
        <time>2015-06-08T14:31:59Z</time>
      </trkpt>
      <trkpt lat="45.01573" lon="2.69714">
        <ele>996.54</ele>
        <time>2015-06-08T14:32:12Z</time>
      </trkpt>
      <trkpt lat="45.01568" lon="2.6971">
        <ele>994.14</ele>
        <time>2015-06-08T14:32:23Z</time>
      </trkpt>
      <trkpt lat="45.01563" lon="2.69709">
        <ele>992.22</ele>
        <time>2015-06-08T14:32:37Z</time>
      </trkpt>
      <trkpt lat="45.01561" lon="2.69712">
        <ele>991.74</ele>
        <time>2015-06-08T14:32:52Z</time>
      </trkpt>
      <trkpt lat="45.01562" lon="2.69707">
        <ele>992.22</ele>
        <time>2015-06-08T14:33:05Z</time>
      </trkpt>
      <trkpt lat="45.01567" lon="2.69698">
        <ele>996.54</ele>
        <time>2015-06-08T14:33:16Z</time>
      </trkpt>
      <trkpt lat="45.01569" lon="2.69698">
        <ele>996.06</ele>
        <time>2015-06-08T14:33:28Z</time>
      </trkpt>
      <trkpt lat="45.01569" lon="2.69698">
        <ele>997.99</ele>
        <time>2015-06-08T14:33:40Z</time>
      </trkpt>
      <trkpt lat="45.01569" lon="2.69698">
        <ele>997.99</ele>
        <time>2015-06-08T14:34:06Z</time>
      </trkpt>
      <trkpt lat="45.01569" lon="2.69697">
        <ele>998.47</ele>
        <time>2015-06-08T14:34:39Z</time>
      </trkpt>
      <trkpt lat="45.01568" lon="2.69698">
        <ele>998.47</ele>
        <time>2015-06-08T14:35:12Z</time>
      </trkpt>
      <trkpt lat="45.01568" lon="2.69698">
        <ele>998.95</ele>
        <time>2015-06-08T14:35:36Z</time>
      </trkpt>
      <trkpt lat="45.01568" lon="2.69698">
        <ele>998.95</ele>
        <time>2015-06-08T14:36:03Z</time>
      </trkpt>
    </trkseg>
  </trk>
</gpx>